GFSSGP_925_temp_000.txt.gz
Temp
23 24 26 27 31 34 29 29 33 32 31 31 29 30 28 26 29 28 25 24 24 23 22 22 22 22 22 22 22 22 23 23 23 23 23 23 22 22 22 21 21 22 22 21 21 21 21 21 21
27 27 28 33 35 33 33 34 33 33 32 32 30 29 30 26 26 24 25 24 24 25 25 23 21 22 22 22 22 22 22 22 23 23 23 23 22 22 22 21 22 21 21 21 21 22 21 21 21
28 29 34 35 36 34 33 34 33 32 32 32 31 31 30 27 27 28 25 24 25 24 25 22 22 22 22 22 22 22 22 22 22 22 23 22 22 22 22 21 21 21 21 21 21 22 22 21 21
31 33 35 35 35 34 34 34 33 32 32 32 32 29 29 29 28 28 25 25 26 24 24 22 22 22 22 22 22 22 22 22 22 22 22 22 22 22 22 22 22 22 22 22 22 22 21 21 21
32 35 36 36 34 34 35 34 34 33 32 32 32 30 28 27 27 26 25 26 26 25 25 23 22 22 22 22 22 21 21 22 22 22 22 22 22 22 22 22 21 21 21 22 22 21 21 21 21
36 36 37 36 34 34 34 34 34 33 32 31 32 30 29 27 26 26 26 25 26 26 25 24 22 22 22 22 21 22 22 22 22 22 22 22 22 22 22 22 21 21 21 21 22 22 22 21 22
36 37 36 36 35 34 34 35 34 33 32 32 32 30 29 28 27 26 26 26 26 26 25 25 24 22 21 22 21 21 22 22 22 22 23 23 23 23 22 22 22 21 22 22 22 22 22 22 22
37 37 36 36 36 35 35 34 34 34 32 33 33 30 28 28 27 27 27 26 26 26 25 24 24 23 24 23 22 21 21 22 22 23 23 23 23 23 23 24 22 23 23 22 22 22 22 22 23
36 37 36 37 36 35 35 34 34 34 32 32 32 32 31 28 27 27 26 25 25 26 25 25 24 24 23 24 23 22 22 22 22 23 23 24 25 25 24 23 23 23 23 22 22 23 23 23 23
36 37 37 38 38 37 35 35 34 33 32 32 31 32 29 27 27 28 27 27 27 26 26 26 26 24 24 25 24 24 24 24 24 24 24 24 24 24 24 24 23 23 23 23 23 23 23 24 25
38 37 38 38 38 38 36 35 35 34 32 33 31 31 29 28 28 28 28 28 28 27 26 25 25 24 25 25 24 25 25 25 24 24 24 24 24 24 25 25 25 24 24 25 24 24 25 23 23
37 38 38 38 37 37 36 36 35 34 35 35 33 31 30 29 29 29 28 28 28 27 26 26 25 24 25 24 24 25 25 25 25 25 23 24 24 24 24 25 24 24 25 24 24 24 23 23 23
37 38 39 39 37 38 37 36 35 34 34 35 33 31 30 30 29 29 28 28 28 27 26 26 25 24 24 23 25 25 25 25 25 25 24 24 25 24 24 23 23 23 24 24 24 23 23 23 23
39 38 38 39 38 37 36 36 35 35 35 33 32 31 31 31 30 29 28 28 27 27 26 26 25 24 24 24 24 24 24 25 25 25 25 23 24 23 24 24 24 24 24 24 23 23 22 23 23
38 37 36 37 37 36 37 34 34 35 34 33 32 32 31 31 30 29 28 28 27 27 26 26 25 25 24 24 23 24 25 25 25 25 24 24 23 23 23 24 23 24 23 22 23 23 23 24 24
37 38 37 37 36 36 36 36 35 35 34 33 32 32 31 31 30 29 28 28 27 27 26 26 26 26 25 24 24 24 25 25 25 26 25 23 23 23 23 24 24 23 23 24 24 24 24 24 24
38 37 37 36 37 35 35 37 36 35 35 34 33 32 32 31 30 29 29 28 28 27 26 25 25 25 25 24 24 24 25 24 24 24 23 24 23 23 23 24 24 23 22 21 23 24 23 24 24
37 37 38 38 36 36 36 37 35 35 35 35 33 33 32 32 31 30 29 28 28 27 26 25 25 25 24 24 23 24 24 24 24 25 23 24 23 23 23 23 23 22 22 23 23 22 23 22 23
39 38 38 39 38 36 37 37 37 34 35 35 34 33 33 33 32 31 29 29 28 27 26 26 25 25 24 24 25 25 26 26 25 25 23 23 24 23 23 23 23 22 23 23 22 22 23 23 23
38 38 38 39 38 37 38 37 37 36 34 35 35 34 33 33 33 31 30 29 29 28 27 26 25 25 24 25 26 26 26 27 26 26 24 24 24 23 23 23 23 22 24 22 22 21 23 23 23
37 37 38 38 37 37 38 36 37 38 36 35 35 35 35 34 33 32 31 30 29 29 27 27 26 25 25 25 25 25 24 24 25 25 24 24 23 23 22 22 23 22 22 24 22 22 22 24 22
36 39 38 38 37 36 37 36 38 39 36 35 35 35 35 34 34 33 32 30 30 29 28 27 26 25 25 25 26 25 26 27 28 27 27 26 24 23 23 22 22 22 23 22 22 21 21 21 24
37 39 38 38 37 37 37 36 38 38 37 37 36 36 36 35 34 33 33 31 30 30 29 28 26 26 25 25 25 26 25 27 27 27 25 24 24 23 23 22 22 22 22 21 21 21 20 22 22
38 37 37 38 37 36 37 37 37 38 37 39 39 37 36 36 35 34 32 31 31 30 29 28 27 26 26 25 25 25 26 26 27 26 26 25 25 24 23 22 22 22 22 21 21 20 20 21 21
36 36 34 34 35 35 38 37 37 39 40 40 41 40 37 36 35 34 33 32 31 30 30 29 27 26 26 26 25 25 25 25 26 26 26 26 26 25 24 22 21 22 21 21 21 20 21 21 21
35 36 36 33 35 35 37 35 37 39 40 41 41 40 39 37 37 35 34 33 31 31 30 29 28 27 26 26 25 25 25 25 26 26 26 26 26 25 24 22 22 22 22 21 21 21 21 21 21
36 36 38 37 37 37 38 37 38 40 39 40 40 39 39 38 37 36 35 33 32 31 30 29 28 27 27 27 25 25 25 25 26 26 25 25 25 25 23 22 22 22 22 21 21 21 21 21 21
37 37 35 37 34 34 36 37 37 38 39 40 40 39 39 38 37 37 36 34 33 32 31 29 29 28 27 27 26 26 25 25 25 26 25 25 24 23 23 22 22 22 21 21 20 22 21 21 21
36 36 36 37 37 35 35 36 39 38 39 39 41 40 40 39 37 37 37 36 34 33 32 31 29 28 28 28 27 26 26 26 25 25 23 23 22 22 22 22 22 22 21 21 20 21 22 21 21
37 36 36 35 34 36 36 37 41 40 40 40 41 42 42 40 38 37 38 36 35 33 33 32 31 30 29 28 27 27 27 26 25 24 23 21 21 21 21 21 20 21 21 21 21 21 22 21 21

GFSSGP_925_temp_003.txt.gz
Temp
24 24 25 25 25 27 30 33 33 33 33 33 34 27 28 27 27 27 23 24 25 25 23 22 22 22 22 23 22 22 23 22 22 22 22 22 21 22 22 21 21 21 21 21 21 21 21 21 21
27 28 29 33 34 26 27 34 32 33 33 34 34 32 30 25 29 27 26 25 26 26 25 24 22 22 22 22 22 22 22 22 22 23 22 23 21 21 21 21 21 21 21 21 21 21 21 21 21
30 31 30 33 35 32 32 33 35 35 36 35 34 33 30 24 30 28 26 26 27 26 25 22 22 22 22 21 22 22 23 22 23 22 22 22 22 21 21 21 21 21 21 21 21 21 21 21 21
32 35 35 38 37 37 34 36 36 35 35 35 34 31 31 31 30 29 27 27 26 25 25 22 22 22 21 21 22 22 22 22 22 22 22 22 21 21 22 21 21 21 21 21 22 21 21 21 21
34 37 36 37 37 37 37 37 37 35 36 35 34 31 31 31 30 28 28 27 27 26 25 23 22 22 21 22 21 21 22 22 22 23 22 22 22 22 22 21 22 21 22 22 22 21 21 21 21
34 38 36 38 37 37 37 37 37 37 36 34 33 32 31 30 30 29 28 27 27 26 26 23 22 21 21 21 21 22 23 23 23 22 22 22 22 22 22 22 22 22 22 22 21 22 22 21 21
36 35 37 38 37 37 37 38 38 36 35 35 34 32 31 31 30 29 27 27 27 27 26 25 24 22 21 21 22 22 22 22 22 22 22 23 23 22 23 23 23 22 22 22 21 22 22 22 22
39 37 39 37 38 37 38 38 38 37 36 37 36 32 30 31 30 28 28 27 27 27 26 26 25 25 24 23 22 21 22 22 22 21 23 24 24 24 24 24 23 23 22 22 22 23 23 23 23
39 36 38 38 34 38 38 37 37 38 35 36 36 35 33 31 31 29 27 27 26 27 26 26 26 26 25 25 22 22 22 22 22 23 23 24 25 25 25 24 24 23 22 23 23 23 24 24 23
38 30 38 40 38 39 38 38 37 36 35 35 34 35 31 30 31 31 28 27 28 27 28 28 26 25 25 26 23 24 24 24 25 25 24 25 26 25 25 25 24 24 24 23 24 24 25 25 25
39 34 38 40 40 40 38 38 38 37 35 35 34 33 32 31 31 31 29 29 29 29 29 26 26 25 25 25 26 26 26 26 26 25 25 26 26 26 25 25 25 25 25 23 24 25 25 25 25
39 39 39 40 40 40 39 39 38 37 38 37 36 34 33 32 32 32 31 31 31 29 29 27 26 25 25 26 26 27 27 27 27 26 25 24 25 26 26 25 26 25 25 25 25 26 24 24 24
39 40 40 40 40 40 40 39 38 37 38 37 36 34 33 33 32 32 31 31 31 30 29 28 27 26 26 25 27 27 27 27 28 27 26 25 26 25 25 25 25 25 26 25 25 25 25 24 24
41 40 40 40 40 40 39 39 38 38 38 37 35 34 34 33 33 32 31 31 31 30 29 28 27 25 24 24 25 26 27 27 27 27 27 24 25 24 25 25 25 25 25 25 25 24 24 24 25
40 39 40 40 40 39 39 38 37 38 37 36 35 34 34 34 33 32 31 31 30 29 29 28 27 26 25 25 25 25 26 27 27 27 26 25 25 25 24 25 25 26 24 23 24 23 24 25 26
39 39 39 40 40 40 39 37 38 39 37 37 36 35 34 34 34 32 31 31 30 29 28 28 28 27 26 24 24 25 26 26 27 27 27 25 25 24 24 25 25 26 25 25 24 24 24 25 26
39 38 39 39 40 39 38 37 38 38 38 37 36 36 35 34 34 32 32 31 30 29 28 27 27 28 27 25 26 26 26 26 26 26 26 25 25 24 24 25 26 24 24 24 24 24 25 25 25
37 38 40 39 40 39 38 37 39 39 38 38 37 37 35 35 34 33 32 31 30 29 28 27 27 27 26 26 25 26 26 25 26 26 26 26 24 24 24 25 24 24 24 24 23 23 24 23 24
40 40 40 41 41 39 39 39 39 39 38 38 37 37 36 35 35 34 32 32 31 30 28 27 27 26 25 25 25 25 25 27 27 27 26 25 24 24 23 24 24 23 24 23 24 23 24 25 25
39 39 40 41 40 40 39 39 40 39 38 38 38 37 37 36 36 34 33 32 31 30 29 28 27 26 25 25 24 27 27 28 28 28 27 26 25 25 24 24 26 25 25 24 23 22 23 25 24
39 39 40 40 39 39 40 38 39 40 39 38 39 39 38 37 37 35 34 32 31 30 29 28 27 26 26 26 26 26 26 27 27 28 26 25 25 25 24 24 23 23 23 25 23 23 22 24 24
38 40 40 40 38 37 40 37 39 40 40 38 38 39 38 38 37 36 34 33 32 31 29 29 27 27 26 25 27 27 27 27 28 28 29 27 25 25 24 23 24 23 24 23 23 23 22 22 25
38 40 40 40 40 35 39 38 39 40 40 40 39 39 39 39 38 37 35 33 32 32 30 29 28 27 27 26 26 27 26 29 29 29 28 27 25 25 25 25 24 23 23 23 22 22 21 23 23
39 39 39 40 39 38 39 38 39 38 40 41 41 40 39 39 39 37 36 34 33 32 31 30 28 27 27 26 25 26 27 28 29 29 28 27 26 25 25 25 23 23 23 23 22 21 21 21 22
38 38 36 36 37 37 40 39 35 41 42 42 42 42 40 39 39 38 36 35 33 33 32 31 29 27 27 27 26 26 26 26 27 28 27 28 27 27 25 24 23 23 22 23 22 21 22 22 22
37 38 37 34 36 38 39 38 40 42 43 43 43 43 42 40 40 38 37 36 34 33 32 31 30 28 27 27 27 27 26 27 27 27 28 27 27 27 26 24 23 23 23 22 22 22 22 22 22
38 38 39 38 39 38 39 40 41 42 42 42 42 42 42 41 40 39 38 36 34 33 32 31 30 29 28 28 27 26 26 26 28 28 27 27 27 27 25 24 23 23 23 22 22 22 22 22 22
38 39 38 39 35 36 39 39 39 40 40 41 41 42 42 42 40 40 38 37 35 34 33 31 30 29 28 28 28 27 26 26 27 27 27 27 26 25 25 24 23 23 23 22 22 22 22 22 22
36 37 38 38 38 36 37 39 42 41 40 40 41 42 43 42 41 40 39 38 36 35 33 32 31 30 29 29 29 28 27 27 26 27 26 26 26 24 24 23 23 23 23 22 21 22 23 22 22
38 37 38 38 36 38 39 39 42 42 41 41 41 42 43 42 41 41 40 39 37 36 35 33 32 31 30 30 29 28 28 27 27 26 26 25 24 24 23 22 22 23 22 22 21 22 22 22 22

GFSSGP_925_temp_006.txt.gz
Temp
25 23 26 24 25 27 28 30 32 25 32 32 30 27 28 28 27 25 23 24 24 23 21 21 22 22 22 22 22 22 22 22 23 22 22 22 22 22 22 22 22 21 21 21 21 21 21 21 21
25 26 26 22 23 26 29 31 29 32 34 31 30 29 28 28 27 26 24 25 25 24 23 22 22 22 22 22 22 22 22 22 22 22 22 22 22 22 22 22 22 21 21 21 21 21 21 21 21
28 28 28 27 30 27 26 25 33 34 32 31 30 31 28 28 27 26 25 26 26 25 24 22 22 22 22 22 23 22 22 22 22 22 22 22 22 22 22 22 22 21 21 21 21 21 21 21 21
27 30 31 31 33 30 32 31 36 35 34 34 33 28 30 29 29 27 27 26 26 26 24 22 22 22 22 22 22 22 22 22 22 22 22 22 22 22 21 21 21 21 21 21 21 21 21 21 21
30 31 29 34 37 35 34 37 35 35 34 33 33 30 30 31 29 28 27 27 25 25 23 22 22 22 22 22 22 22 22 22 22 22 22 22 22 22 22 22 22 22 22 22 21 21 21 21 21
22 30 30 37 37 38 38 38 35 35 34 33 32 30 29 30 30 28 27 27 27 26 24 22 22 22 22 22 22 22 22 22 22 22 22 22 22 22 22 22 22 22 22 22 22 22 22 22 22
22 28 36 36 37 37 38 39 37 37 35 34 33 28 29 31 29 28 27 27 27 26 24 22 22 22 22 22 22 22 22 22 22 23 23 23 23 22 22 22 23 23 23 22 23 23 23 23 23
26 32 35 37 38 37 38 39 39 37 34 36 33 31 29 30 28 28 28 27 27 27 26 24 23 22 22 22 22 22 23 22 22 23 24 23 23 22 23 23 24 24 23 23 24 24 24 23 24
39 36 36 36 38 38 39 38 39 38 37 35 34 33 32 31 29 28 28 27 27 27 26 26 25 24 23 23 22 22 22 22 22 23 24 24 24 24 24 24 24 24 24 24 24 25 24 24 24
38 35 35 35 38 39 39 38 37 37 36 36 35 34 33 31 30 29 28 28 27 28 26 26 26 25 25 25 23 23 23 23 23 24 25 25 24 25 25 24 24 25 24 23 24 25 24 24 24
38 33 37 38 38 39 39 38 38 36 35 36 33 33 33 33 31 29 29 29 28 28 28 27 26 26 26 24 25 24 25 25 25 25 25 25 26 26 25 23 22 23 23 23 23 23 24 25 25
38 38 38 39 40 39 39 39 38 37 37 37 35 33 33 33 33 31 30 30 30 30 27 26 26 26 26 26 26 26 26 26 26 26 26 25 25 26 23 22 25 24 25 23 24 25 25 24 24
39 39 40 41 41 40 40 39 38 38 38 37 36 34 33 33 33 32 32 31 31 30 28 26 26 26 25 26 27 27 27 28 27 26 26 26 26 26 25 25 25 25 25 25 25 25 25 25 25
41 41 41 41 41 40 39 39 39 38 39 37 36 34 33 33 33 33 33 33 32 31 30 28 26 26 25 26 26 27 28 27 28 28 26 26 25 25 25 25 25 25 25 25 25 24 24 24 25
40 40 41 40 41 40 40 38 38 38 38 37 35 34 34 34 33 33 33 33 32 31 30 29 27 26 26 25 25 25 27 27 27 27 26 26 26 25 24 24 25 25 25 25 24 24 24 24 25
39 40 38 41 41 40 39 37 39 39 38 37 36 35 34 34 34 33 32 32 32 31 30 29 29 26 25 25 25 25 26 27 27 27 27 26 25 25 24 25 25 24 25 25 24 24 24 24 25
38 37 38 40 41 40 39 35 37 39 38 37 36 35 35 34 34 33 33 32 31 31 29 29 28 28 26 25 25 24 25 26 26 26 26 25 25 24 25 25 24 24 24 24 24 23 24 24 25
36 38 39 39 40 40 38 30 30 35 39 38 37 36 35 35 34 34 33 32 31 30 29 28 28 28 27 25 25 25 26 26 26 25 25 25 25 25 24 25 25 25 24 24 24 23 23 24 24
38 39 39 40 40 40 38 28 25 31 38 38 37 37 36 36 35 35 33 33 32 30 29 28 27 28 27 26 25 25 25 26 26 27 27 25 25 25 24 24 24 24 24 24 24 23 23 24 25
38 38 39 41 40 40 40 33 31 35 38 39 38 37 37 37 36 35 34 33 32 31 29 28 27 27 27 26 26 25 25 26 26 27 27 26 25 25 24 24 24 24 25 24 23 22 23 24 25
38 38 39 40 41 41 40 39 38 39 39 39 39 39 38 37 37 35 34 33 33 31 29 28 27 26 26 26 26 26 25 26 27 27 27 26 26 25 24 24 24 24 24 24 23 23 23 23 24
37 39 40 40 39 37 39 36 37 38 39 38 39 39 39 38 37 36 35 33 33 32 30 28 27 26 25 26 25 25 26 27 28 28 27 27 26 25 25 24 24 23 24 24 23 23 22 23 23
38 40 40 40 39 38 38 37 38 38 38 39 39 39 40 39 38 37 35 34 33 32 30 29 27 26 26 25 26 26 27 27 28 29 28 27 25 25 25 24 24 23 23 24 23 22 22 22 23
40 39 39 40 39 37 39 37 37 39 37 38 40 40 40 40 39 38 36 34 33 33 31 29 28 26 26 25 26 26 26 27 28 29 27 26 25 25 25 25 24 23 23 23 22 22 22 22 22
39 38 36 36 37 37 40 37 37 39 40 40 35 37 40 40 39 38 36 35 33 33 32 30 28 27 26 26 25 26 26 27 27 28 28 27 27 25 25 25 24 23 23 23 22 22 22 21 22
38 38 37 34 36 37 40 38 40 40 40 39 37 34 41 41 41 39 37 35 34 33 32 31 29 27 27 26 25 25 26 26 26 27 28 28 28 27 26 25 24 23 23 23 22 22 22 22 22
38 37 39 37 38 38 39 40 42 42 40 37 40 43 42 41 40 39 38 36 34 33 32 31 29 27 27 27 26 25 25 26 26 28 28 27 27 27 26 25 24 23 23 22 22 22 22 22 22
38 39 36 37 34 35 38 38 40 40 41 40 39 40 42 42 41 40 39 37 35 34 32 32 30 28 27 27 26 26 25 26 27 28 28 27 27 28 26 24 24 23 23 23 22 22 22 22 22
37 37 37 38 38 37 36 38 42 40 41 41 41 42 42 42 41 41 39 38 36 34 33 32 31 29 28 27 27 27 26 26 26 27 27 27 27 27 26 25 24 23 23 23 22 22 22 22 22
38 37 37 36 35 38 37 39 43 41 42 42 41 42 42 41 41 41 40 38 36 35 34 32 31 30 29 28 28 27 27 26 26 26 27 27 27 26 26 24 23 23 23 22 22 22 22 22 21

GFSSGP_925_temp_009.txt.gz
Temp
25 24 23 23 23 24 26 28 29 30 28 30 29 27 26 26 26 23 22 21 21 21 21 21 21 21 21 22 22 22 22 22 22 22 22 22 23 22 22 21 21 21 21 21 21 21 21 21 20
25 23 21 20 24 24 25 27 28 30 29 29 29 29 27 24 25 22 21 22 22 22 21 21 22 22 22 21 22 22 22 22 22 22 22 22 22 22 22 22 21 21 21 21 21 21 21 21 21
24 25 23 23 24 25 24 26 30 28 29 30 29 29 27 24 25 23 23 23 23 22 22 22 22 22 22 22 22 22 22 22 22 22 22 22 22 22 22 22 22 22 21 21 21 21 21 21 21
27 22 21 25 29 28 28 28 25 29 30 31 29 27 27 27 26 25 24 24 23 23 22 22 22 22 22 22 22 22 22 22 22 22 22 22 22 22 23 22 22 21 21 21 21 21 21 21 22
25 23 25 27 31 30 31 29 28 31 31 30 29 26 26 27 26 25 25 25 23 23 22 22 22 22 22 22 22 23 22 22 22 22 22 22 22 22 23 22 22 22 21 21 22 22 22 23 23
22 23 27 31 33 33 32 33 32 31 31 30 29 28 27 27 26 26 26 25 24 23 22 22 22 22 22 22 22 22 22 22 22 22 22 22 23 23 23 22 22 22 22 22 23 23 23 24 24
24 25 30 30 32 35 32 33 31 31 30 30 29 26 27 27 26 26 26 25 24 23 22 22 21 21 21 22 22 22 22 22 22 22 22 23 24 24 23 23 23 23 23 23 23 23 24 24 24
26 27 31 30 32 34 35 35 31 33 31 31 30 27 27 27 27 27 26 26 24 23 22 22 22 21 22 22 22 22 22 22 22 22 23 24 24 24 24 23 23 24 24 24 23 23 23 24 24
31 27 26 29 34 35 35 33 34 34 30 30 29 29 28 28 27 27 27 26 25 24 23 22 22 22 22 22 22 22 22 22 22 23 24 24 24 23 23 23 22 23 24 25 24 23 24 24 24
33 30 32 34 35 35 36 34 33 33 31 29 30 29 28 28 27 27 26 25 25 24 23 23 23 23 22 22 22 23 23 23 24 24 25 24 25 23 23 23 23 23 24 24 24 24 24 24 25
35 33 34 36 37 37 35 35 35 33 31 30 29 28 28 28 27 27 26 26 26 26 25 24 24 24 23 23 24 24 24 24 24 25 25 25 24 23 24 24 24 23 24 24 24 24 24 24 25
35 36 37 36 36 37 36 35 35 34 33 33 31 29 29 28 27 27 27 26 26 26 26 25 25 24 24 24 25 25 24 24 25 25 25 25 24 24 25 26 25 24 24 25 24 24 24 25 25
35 36 38 38 37 37 38 36 35 35 33 33 32 31 29 28 28 27 28 28 27 27 26 26 26 25 25 25 26 25 25 25 25 25 26 26 25 24 25 24 24 23 24 24 24 24 25 24 25
36 37 37 38 37 36 36 36 35 34 34 33 32 31 31 28 28 28 28 28 28 26 26 26 26 26 25 26 25 25 26 26 26 26 26 25 25 25 25 24 25 25 25 25 25 25 25 25 25
36 35 37 38 38 38 36 30 35 35 34 32 31 31 31 31 30 29 29 29 28 27 26 26 26 26 26 26 25 26 26 27 27 26 26 25 26 25 25 25 25 24 25 25 24 24 24 25 24
34 34 33 37 38 38 34 29 34 35 34 32 32 31 31 30 31 30 30 30 29 28 26 26 25 26 26 26 25 26 26 26 27 26 26 26 25 25 24 25 24 25 25 24 24 24 24 24 24
32 31 33 35 38 37 35 30 35 35 33 32 32 32 31 31 31 31 32 31 30 30 27 26 26 26 26 26 26 25 26 26 26 26 26 25 25 25 25 24 24 24 24 24 24 23 24 24 24
30 32 33 34 37 36 32 31 33 34 34 33 32 32 31 31 30 31 32 32 31 30 29 27 27 26 26 26 25 25 25 26 26 26 26 26 26 25 25 24 24 24 24 24 24 23 23 24 24
33 33 34 36 37 36 32 31 32 33 32 31 32 32 32 31 31 31 31 32 31 30 29 28 28 26 25 25 25 25 24 25 26 27 26 26 25 25 24 24 24 24 24 24 23 23 23 24 24
34 33 34 36 38 35 31 32 34 35 33 33 33 32 32 32 32 31 31 31 30 29 29 28 28 28 25 25 25 25 25 25 26 27 27 26 25 25 25 24 24 24 24 23 23 23 23 23 24
33 33 33 34 37 37 32 30 30 32 34 32 34 34 33 32 32 31 31 31 30 28 28 28 28 28 26 26 25 25 25 25 25 25 26 26 25 25 25 24 24 24 24 23 23 23 23 23 23
32 35 36 36 35 34 35 31 29 31 32 31 32 34 34 33 33 32 31 31 30 28 28 27 27 27 27 26 25 25 25 25 25 26 26 26 25 25 24 24 24 23 24 23 23 22 23 22 23
34 35 36 36 35 33 35 33 31 31 30 29 31 35 35 34 33 32 31 31 31 29 28 27 27 27 26 26 26 25 25 25 26 26 26 26 25 25 25 24 23 23 24 23 23 23 23 22 22
36 35 35 35 34 32 33 34 31 32 30 29 34 36 36 35 34 32 33 32 31 29 28 26 26 26 25 26 26 25 25 25 26 27 27 26 25 25 25 25 24 23 24 24 23 22 23 22 22
35 32 31 31 31 30 32 33 31 36 35 36 36 36 36 36 35 34 32 31 31 30 28 26 26 25 25 25 26 25 25 26 27 27 26 25 25 25 25 24 24 24 24 23 23 22 22 22 22
33 33 31 28 30 31 32 33 34 37 37 38 36 37 37 36 36 34 32 32 31 30 28 27 25 25 25 25 25 25 26 26 27 27 26 26 26 25 25 25 24 24 23 23 22 22 22 21 22
33 32 34 30 31 30 33 33 35 36 36 37 36 36 36 37 35 35 33 32 31 30 28 28 26 25 25 25 25 25 25 26 26 26 27 26 26 26 26 25 25 24 23 23 22 22 22 21 22
34 35 32 33 30 30 33 32 33 34 35 35 34 34 35 35 35 36 34 32 31 31 29 28 26 26 25 25 25 25 25 26 25 26 27 27 27 27 26 25 24 23 23 23 22 22 22 22 22
33 33 32 31 32 31 30 32 34 33 34 34 35 36 35 35 36 36 35 34 32 31 30 29 27 26 25 25 25 25 25 25 25 26 27 27 27 27 27 26 24 24 23 23 22 22 22 22 22
35 32 31 29 29 29 31 32 35 37 36 36 36 35 36 33 36 36 35 34 32 31 31 29 27 26 26 26 25 25 25 24 24 25 26 27 27 27 26 26 25 24 23 23 22 22 22 22 22

GFSSGP_925_temp_012.txt.gz
Temp
21 21 21 22 23 23 25 28 29 29 28 28 28 27 24 23 25 23 21 20 21 21 21 21 21 21 21 22 22 22 22 23 22 23 22 22 22 21 21 21 21 21 21 21 21 21 21 21 21
21 21 22 21 23 24 26 27 27 28 28 28 28 27 25 23 23 20 20 21 21 21 21 21 21 21 21 22 22 22 21 22 22 22 22 22 22 22 21 21 21 21 21 21 21 21 21 21 22
23 22 21 23 23 24 25 26 27 27 29 29 28 27 25 22 22 21 22 21 21 21 21 21 21 21 21 22 21 21 21 22 22 22 22 22 22 21 21 21 21 21 21 21 21 21 21 21 22
23 19 20 24 26 27 27 25 29 28 29 30 26 24 25 24 23 23 21 22 21 21 21 21 21 21 21 21 21 21 22 22 22 22 22 22 21 21 21 21 21 21 21 21 21 22 22 22 22
22 21 23 24 29 29 27 24 26 28 29 28 27 24 24 25 24 22 22 22 22 22 22 21 22 22 21 21 21 22 23 22 22 22 22 22 21 22 21 22 22 22 22 22 22 23 23 23 22
22 23 25 27 29 30 28 26 25 28 28 27 25 25 24 25 23 23 23 22 23 22 22 22 22 22 22 21 22 22 23 22 22 22 22 22 22 23 23 23 22 22 22 22 23 23 23 23 23
24 24 27 29 31 29 29 28 29 28 27 27 27 24 24 25 24 24 23 23 23 22 22 21 21 21 21 22 22 22 22 22 22 23 23 23 23 23 23 23 23 23 22 23 23 24 24 24 23
25 25 29 28 30 30 30 30 30 29 29 29 28 24 23 25 25 24 23 23 22 22 22 21 21 21 21 22 21 21 21 22 23 23 23 23 23 23 22 23 23 23 23 23 24 24 24 24 23
25 27 30 28 30 31 31 30 30 31 28 29 29 26 26 25 26 25 23 22 22 22 22 21 21 21 22 22 21 21 21 22 23 23 24 24 23 23 23 22 23 23 23 23 24 24 24 24 23
27 27 30 32 31 32 31 31 30 29 28 28 27 27 26 26 25 24 23 22 21 21 22 22 21 22 22 22 22 22 22 23 23 24 24 23 23 23 23 23 23 24 24 24 24 24 24 24 24
29 30 32 34 34 33 31 31 31 28 28 28 26 26 26 26 26 25 24 23 22 22 22 22 22 22 22 22 22 23 23 24 24 25 24 24 23 23 23 24 24 25 24 24 24 24 25 24 24
30 33 34 35 36 34 32 32 30 30 29 29 27 27 27 26 26 25 25 24 23 22 23 23 23 23 23 23 23 24 24 24 24 25 24 24 24 24 24 24 24 24 24 24 24 24 24 24 25
31 33 35 36 35 35 34 33 31 31 30 29 28 28 27 26 26 26 25 25 24 23 23 24 23 23 23 23 24 24 25 25 25 25 24 24 24 25 24 25 25 24 24 24 24 25 24 24 24
33 33 34 36 35 35 35 33 33 31 30 29 28 27 27 26 26 26 26 25 25 24 24 24 23 24 24 24 24 25 25 25 25 25 25 24 25 25 25 25 24 24 24 24 24 24 24 24 25
33 32 33 34 36 35 34 32 31 31 30 28 28 28 27 27 27 26 26 26 26 25 25 25 24 24 24 25 25 25 25 25 25 25 25 25 25 25 25 24 24 24 24 24 24 24 24 24 24
32 31 30 33 35 34 33 29 31 31 30 28 28 28 27 27 27 27 27 27 26 26 25 25 24 25 25 25 25 24 25 25 26 26 25 25 25 25 24 24 24 24 24 24 24 24 24 24 24
28 28 30 31 34 33 32 29 32 31 30 29 29 28 28 27 27 27 27 27 27 26 25 25 25 25 25 25 25 25 26 25 25 26 26 25 25 25 25 25 24 24 24 24 24 23 23 24 24
27 29 30 30 34 34 31 29 31 31 30 30 30 30 30 27 28 28 28 28 27 26 25 25 25 26 26 26 25 26 26 26 25 25 25 25 25 25 25 24 24 24 24 23 23 23 23 23 23
29 29 29 32 33 32 31 31 32 31 30 29 29 29 29 30 29 29 29 28 27 26 25 24 24 25 25 25 24 25 25 26 26 25 25 25 25 25 25 25 24 23 23 23 23 23 23 23 23
30 30 30 31 33 33 30 32 32 31 31 30 30 29 29 30 30 29 29 28 27 25 25 24 25 25 25 25 25 25 26 25 26 25 25 26 26 25 25 24 24 23 23 23 23 23 23 23 23
30 30 30 30 32 33 30 30 31 31 31 31 31 31 30 30 29 29 29 28 28 26 25 25 25 25 25 25 25 25 25 25 25 25 25 25 25 25 25 24 24 23 23 23 23 23 23 23 22
27 31 32 32 31 29 32 28 29 30 30 30 31 31 30 30 30 29 29 29 28 27 26 26 25 26 25 25 25 24 24 23 24 25 25 25 25 25 25 24 24 24 24 23 23 23 23 23 23
30 31 31 32 31 30 31 28 29 30 29 29 30 31 31 31 31 30 30 30 30 28 26 26 26 26 26 25 25 24 25 25 25 25 25 25 26 25 25 24 24 24 23 24 23 23 22 22 22
32 31 30 30 30 27 29 31 28 27 31 31 33 32 32 32 31 31 31 30 30 29 27 26 26 25 26 25 25 25 24 25 25 25 25 25 25 25 25 24 24 23 23 23 23 23 23 22 22
30 28 27 28 29 27 29 29 30 31 32 33 34 31 32 33 32 31 30 30 30 29 27 26 25 25 25 25 25 25 25 25 25 25 25 25 24 25 24 24 24 23 23 23 23 22 22 22 22
27 29 29 27 26 28 29 28 30 31 34 34 35 34 32 33 33 32 31 30 30 29 27 26 24 25 24 24 25 25 25 25 25 25 25 25 25 25 25 24 24 24 23 23 23 22 22 22 22
30 27 30 27 27 26 28 30 31 32 32 33 33 32 33 34 33 33 31 31 30 29 27 26 24 25 24 24 25 24 25 25 24 25 25 26 26 25 25 25 24 24 23 23 23 23 22 22 22
30 30 30 24 28 28 28 29 32 32 32 30 33 33 34 34 34 34 33 31 30 30 27 26 25 25 24 24 24 24 25 24 24 25 25 25 25 25 25 25 24 24 23 23 23 23 22 22 21
30 29 27 28 28 29 25 30 30 30 30 30 33 35 35 35 34 34 34 32 31 30 28 26 25 25 24 24 24 24 24 24 24 25 25 25 26 26 25 25 24 24 23 23 23 23 22 22 21
32 31 28 30 27 27 31 31 35 32 31 30 31 34 36 35 34 33 34 32 31 30 28 27 25 25 25 24 24 24 24 24 24 25 25 25 26 26 26 25 24 24 24 23 23 22 22 22 22

GFSSGP_925_temp_015.txt.gz
Temp
20 21 21 21 23 23 24 26 25 27 28 27 28 27 23 22 24 23 20 20 21 21 21 21 21 21 21 22 21 22 22 23 23 22 22 21 21 21 21 21 21 21 21 21 20 20 21 21 20
21 21 21 21 23 24 25 26 27 27 27 26 27 26 24 22 22 19 19 20 21 21 21 21 21 21 21 21 21 22 22 23 22 22 21 21 21 21 21 21 21 21 20 20 21 21 21 21 21
21 21 22 22 22 24 25 26 27 28 28 28 26 25 24 22 21 20 21 21 21 21 21 21 21 21 21 21 21 22 22 22 22 21 21 21 21 21 21 21 21 21 21 21 21 21 21 22 22
22 21 21 24 26 26 26 26 27 28 29 26 25 24 24 23 22 21 21 21 21 21 21 21 21 21 21 21 21 21 22 22 22 21 22 22 22 21 21 21 21 21 21 21 21 21 21 22 22
23 22 23 24 28 27 27 28 27 28 28 27 26 23 22 23 23 21 21 21 21 21 21 21 21 21 21 21 21 22 21 22 22 22 22 22 21 21 21 21 21 22 22 22 22 22 22 22 21
21 22 26 26 28 28 28 27 28 28 27 25 24 24 22 22 21 21 21 21 22 21 21 21 21 21 21 21 21 21 22 23 22 22 22 22 21 22 22 22 22 22 22 22 22 22 22 22 22
23 22 26 28 29 28 28 27 26 27 26 25 26 23 22 22 22 21 21 22 22 22 21 21 21 21 21 21 21 21 22 23 22 22 22 22 22 22 22 22 22 22 23 23 23 23 23 22 22
23 22 27 28 29 28 29 26 28 27 27 27 26 23 22 23 23 22 22 21 21 21 22 21 21 21 21 21 21 21 22 23 22 23 23 22 22 22 22 22 22 22 23 24 24 23 23 23 22
24 24 25 28 28 29 29 27 29 29 27 27 27 25 25 23 23 21 21 20 20 21 22 21 21 21 21 21 21 21 22 22 22 23 23 23 22 23 22 23 22 22 23 24 24 24 23 23 23
24 24 27 29 30 29 29 29 28 27 27 26 26 26 24 24 22 21 21 20 20 20 21 21 21 21 21 22 22 21 22 22 22 23 23 23 23 23 23 23 23 23 23 24 24 24 24 24 24
26 26 30 31 32 31 30 29 29 27 26 26 24 24 25 24 23 22 21 20 20 21 21 21 21 21 21 22 22 22 22 22 23 23 24 23 23 23 23 23 23 24 24 24 24 24 24 24 24
28 29 30 31 33 31 30 30 28 28 28 27 26 25 25 24 24 23 22 21 21 20 21 21 21 21 22 22 22 22 22 23 23 24 24 23 23 23 24 24 24 24 24 24 24 25 25 24 25
28 30 31 32 34 32 31 29 29 28 29 27 26 26 25 24 24 23 23 22 22 21 21 22 22 22 22 22 23 23 23 23 24 24 24 23 23 23 24 24 24 24 24 24 24 24 24 24 24
30 31 31 32 32 33 30 30 29 29 28 27 26 25 25 25 25 24 23 23 22 22 22 22 22 23 23 23 24 24 24 24 24 24 24 23 23 24 24 24 24 24 24 24 24 23 23 24 24
31 31 31 31 32 32 32 30 29 29 28 26 26 26 25 25 25 24 24 23 23 22 23 22 23 23 23 24 24 24 24 24 24 24 24 24 24 24 24 24 24 24 24 24 23 23 23 24 24
31 30 30 32 33 33 32 29 30 28 27 26 26 26 26 25 26 25 25 24 24 23 23 24 23 23 23 23 24 24 24 24 24 25 24 24 24 24 24 24 24 24 24 23 23 23 23 23 24
25 28 29 30 32 31 31 29 29 28 27 26 26 26 26 25 25 26 25 25 24 24 23 23 23 23 24 24 24 25 25 24 24 25 25 24 24 24 24 24 24 24 24 23 23 23 23 23 23
27 28 28 29 32 31 30 28 29 28 27 27 27 26 26 26 25 26 26 25 25 25 24 24 23 24 24 24 24 24 24 24 25 25 25 25 24 24 24 24 24 24 24 24 23 23 23 23 23
28 29 28 29 32 32 30 28 28 28 28 27 26 27 26 26 26 26 26 26 26 25 24 24 23 23 23 23 23 23 24 24 24 25 25 25 25 24 24 24 24 24 24 23 23 23 23 23 23
27 28 28 29 30 30 28 28 29 29 28 28 27 27 27 27 26 26 27 26 26 25 24 24 24 24 24 23 24 23 24 25 25 25 25 25 25 25 25 24 24 24 23 23 23 23 23 23 23
26 26 28 28 29 31 29 28 28 29 29 29 29 29 28 28 26 26 27 27 26 25 24 24 24 24 24 23 24 24 24 24 25 25 25 24 25 24 24 24 24 24 23 23 23 22 23 23 22
25 28 29 30 29 27 30 26 27 28 28 28 28 28 29 29 29 27 27 27 27 25 25 24 24 24 24 24 23 23 24 23 24 25 25 25 24 24 25 25 24 24 23 23 23 23 23 22 22
28 30 29 30 28 28 29 27 27 28 28 28 29 29 29 29 29 28 27 28 27 26 25 24 24 24 24 24 23 23 23 24 25 25 25 25 25 25 25 24 24 24 23 23 23 23 22 22 23
30 30 28 27 25 25 29 27 29 26 29 29 30 30 30 29 29 29 29 29 27 27 25 24 23 23 23 24 23 24 23 24 24 25 25 25 25 25 25 24 24 24 23 23 23 23 22 22 22
28 25 24 24 24 27 27 26 30 29 30 32 30 30 31 30 30 29 29 29 29 27 25 24 23 23 23 23 23 23 24 24 25 25 25 25 24 25 24 24 24 23 23 23 23 23 22 22 22
25 26 21 24 23 27 26 25 27 31 30 32 33 32 31 31 31 30 30 29 29 28 26 25 24 23 22 22 23 23 24 24 24 25 25 25 25 25 25 24 24 24 23 23 23 23 22 22 22
27 26 28 25 24 24 25 27 29 30 30 30 31 33 32 31 31 31 30 30 29 29 27 25 24 24 23 23 23 23 23 23 23 25 25 25 25 25 25 25 25 24 23 23 23 23 22 22 22
29 27 28 20 25 26 25 26 27 29 30 28 30 30 31 31 31 31 31 30 30 29 28 26 25 25 24 24 23 23 24 24 24 25 25 25 25 25 25 25 25 24 23 23 23 23 22 22 22
26 28 25 24 23 27 27 28 29 29 29 29 29 30 31 30 31 32 32 31 31 30 28 26 25 25 25 24 24 24 23 23 23 24 25 26 25 25 25 25 24 24 24 23 23 23 22 22 22
29 29 24 26 25 23 27 28 30 31 30 28 29 29 30 32 32 32 32 31 31 29 28 26 26 25 25 25 24 24 24 23 23 24 25 25 25 25 25 24 24 24 24 23 23 23 22 22 22

GFSSGP_925_temp_018.txt.gz
Temp
20 20 21 21 22 23 24 26 26 27 27 25 27 26 24 22 24 23 20 20 21 20 21 21 21 21 21 21 22 21 22 22 21 21 21 21 21 21 21 21 21 21 21 20 20 20 20 21 21
21 21 21 20 23 23 24 25 26 26 25 26 25 24 23 22 21 19 19 20 21 21 21 21 21 21 21 22 21 21 21 21 21 21 21 21 21 21 21 21 20 20 21 21 21 21 21 22 22
21 21 21 22 22 24 24 25 26 26 27 27 24 24 23 22 20 19 20 20 21 21 21 21 21 21 21 21 21 21 21 21 22 21 21 21 21 21 21 21 20 21 21 21 21 21 21 22 22
21 21 21 23 26 26 26 26 27 27 26 25 24 22 22 22 21 20 20 21 21 21 21 21 20 21 21 21 21 21 21 22 21 21 22 21 21 21 21 21 21 21 21 20 20 21 21 21 22
22 22 24 25 27 28 26 27 27 27 27 25 25 22 21 21 22 20 20 21 21 21 21 21 21 21 21 21 21 21 22 21 22 22 22 21 21 21 21 21 21 21 21 21 21 21 22 22 22
22 22 25 25 28 29 27 26 27 27 26 24 23 22 21 21 20 20 20 21 21 21 21 21 21 21 21 21 21 21 22 21 22 22 22 22 22 21 21 21 21 21 21 21 22 22 22 22 22
23 22 25 26 27 28 28 26 26 25 25 24 25 21 21 21 20 20 21 21 21 21 21 21 21 21 21 21 21 21 22 22 22 22 22 22 22 22 22 21 22 22 22 22 22 22 22 22 23
22 21 24 27 27 28 27 26 27 26 26 26 25 22 21 21 21 20 21 21 21 21 21 21 21 21 21 21 21 21 22 22 22 22 22 22 22 22 22 22 22 22 23 23 22 22 22 23 23
24 22 23 27 28 29 26 27 28 28 26 26 26 24 23 21 21 20 20 20 20 20 21 21 21 21 21 21 21 21 21 22 22 22 22 22 23 22 23 22 22 23 23 23 23 23 23 23 23
22 21 25 28 29 28 27 28 27 26 25 26 25 24 22 22 21 20 20 20 19 20 20 21 21 21 21 21 21 21 21 21 22 22 22 22 23 23 22 22 22 23 23 23 23 24 23 23 23
24 24 26 29 30 29 28 28 28 26 25 25 23 23 23 22 21 20 20 20 20 20 20 21 21 21 21 21 22 21 21 22 22 23 23 23 23 23 23 23 23 23 23 24 24 24 24 24 24
25 26 27 29 31 29 28 28 27 26 26 28 24 23 23 22 22 21 21 20 20 20 21 21 21 21 21 22 22 22 22 22 23 23 23 23 23 23 23 23 24 24 24 24 24 24 24 24 24
26 28 29 30 29 29 29 28 28 27 28 26 25 24 23 22 22 22 21 20 20 20 20 21 21 21 21 21 22 22 22 23 23 23 23 23 23 23 23 23 24 24 24 24 24 24 24 23 23
28 28 29 29 29 30 28 28 28 28 26 25 24 24 23 23 23 22 21 21 20 21 21 21 21 21 21 22 22 23 23 23 23 23 23 23 23 23 23 23 23 24 24 24 24 24 23 23 23
28 29 29 29 30 30 30 28 28 27 26 25 24 24 24 23 23 22 22 21 21 21 22 21 22 22 22 22 22 23 23 23 23 24 23 23 23 24 23 23 23 24 24 23 23 23 23 23 24
28 29 28 31 30 31 29 27 28 27 26 25 25 24 24 24 24 23 23 22 22 22 22 22 22 22 22 22 23 23 23 23 24 24 24 24 23 24 24 23 23 23 24 24 23 23 23 23 23
25 26 27 29 31 30 28 28 29 27 26 25 25 25 24 24 24 24 23 23 22 23 23 22 22 22 23 23 23 24 24 23 24 24 24 24 24 24 24 24 23 23 23 23 23 22 22 23 23
25 26 28 29 32 29 28 28 27 27 26 25 25 25 25 24 24 24 24 23 23 23 23 23 23 22 23 23 23 23 23 23 24 24 24 25 24 24 24 24 23 23 23 22 22 22 22 23 22
26 27 29 29 31 31 28 28 25 26 26 26 25 25 25 25 25 25 24 24 23 23 23 24 23 23 23 22 21 22 22 23 24 24 25 25 25 24 24 24 23 23 23 23 23 22 22 22 22
26 26 26 28 30 31 29 28 26 26 26 26 26 25 25 25 25 25 25 24 24 23 23 23 24 24 23 23 23 22 23 24 24 24 25 25 25 25 24 24 23 23 23 23 22 22 22 22 22
24 25 26 28 29 29 28 26 27 27 27 27 27 27 26 26 25 25 25 25 25 24 23 23 24 24 24 23 23 22 22 23 23 24 24 25 25 25 24 24 23 23 23 23 23 22 22 22 22
23 25 28 28 27 26 28 25 26 26 26 27 27 26 26 26 26 25 25 25 25 24 24 24 23 23 23 23 23 22 22 22 22 23 24 24 24 25 24 24 23 24 23 23 23 22 22 22 22
26 27 27 28 27 26 27 26 25 25 25 26 27 27 27 27 27 26 26 26 25 25 24 24 23 23 23 23 23 23 22 23 23 24 24 24 24 25 24 24 24 23 23 24 23 22 22 22 22
27 28 25 23 22 23 26 26 24 24 27 27 28 28 28 28 28 27 27 26 26 26 25 24 23 23 23 23 23 23 23 23 23 24 24 24 24 25 24 24 24 24 23 24 23 22 22 22 22
26 24 22 23 23 26 24 25 29 27 28 29 28 29 29 29 28 28 27 26 27 26 25 24 23 22 23 22 23 23 23 23 24 24 25 24 24 24 24 24 24 23 23 24 23 22 22 22 22
24 23 20 22 22 25 23 25 26 29 28 30 30 30 30 29 29 29 28 27 27 26 25 24 23 23 22 22 22 23 23 23 23 24 25 25 25 25 25 25 24 24 23 23 23 22 22 22 22
24 25 24 22 23 22 23 25 28 28 28 27 29 30 29 30 29 29 29 28 28 27 26 24 24 23 22 22 22 22 22 23 23 24 25 26 26 25 25 25 25 24 24 23 23 22 22 22 22
25 24 24 19 23 23 23 25 27 27 29 27 27 28 30 30 30 30 29 29 28 28 26 25 24 24 23 22 22 22 22 23 23 24 24 25 26 25 25 25 25 24 24 23 23 22 22 22 22
24 24 23 23 20 22 23 26 24 28 26 28 29 28 29 30 30 30 30 30 29 29 28 26 25 24 23 22 22 22 22 22 22 23 24 26 25 25 25 25 25 24 24 23 23 22 22 22 22
29 27 23 25 23 20 21 26 28 28 30 27 28 27 28 28 28 29 30 30 30 29 28 27 25 25 24 23 22 22 22 22 22 22 24 25 25 25 25 25 25 24 24 24 23 23 22 22 22

GFSSGP_925_temp_021.txt.gz
Temp
20 20 20 22 23 25 26 27 28 28 28 28 29 27 27 23 24 25 20 19 20 20 20 21 21 21 21 21 21 21 22 21 22 21 21 21 21 21 21 21 21 21 21 20 20 20 20 21 21
21 21 21 23 25 26 27 28 28 28 27 28 27 26 26 23 22 21 20 20 21 21 21 21 21 21 21 21 21 21 21 21 21 21 21 21 21 21 21 20 21 21 21 21 20 21 21 21 21
21 22 22 24 27 28 28 28 28 28 28 28 26 26 25 23 22 22 21 21 21 21 21 21 21 21 21 21 21 21 21 21 21 21 21 21 21 21 21 21 22 22 22 21 20 21 21 21 21
22 22 22 24 29 29 29 29 29 28 28 27 27 25 24 23 22 22 21 21 22 21 22 21 21 21 21 21 21 21 21 21 21 21 21 21 21 21 21 21 21 22 21 21 21 21 21 21 21
23 24 26 28 30 29 29 29 29 29 28 27 27 24 22 23 22 21 21 22 22 22 21 21 21 21 21 22 21 21 21 21 21 21 21 21 21 21 21 21 21 21 21 21 21 22 22 22 22
24 25 28 30 30 30 29 30 29 29 28 26 25 25 23 22 22 21 21 22 22 22 22 22 21 21 21 21 21 21 21 21 21 21 21 21 21 21 21 21 21 21 21 22 22 22 22 22 22
25 27 29 29 30 30 29 30 29 29 27 27 27 25 22 23 22 21 21 21 22 22 22 22 22 21 21 21 21 21 21 22 22 21 22 22 21 21 22 22 21 21 22 22 23 23 23 23 23
26 26 28 30 31 31 29 29 29 29 27 28 28 25 22 23 22 21 21 22 22 22 22 22 22 22 22 21 21 21 22 22 22 22 22 23 22 22 22 22 22 22 22 23 23 23 23 23 23
26 27 29 30 31 31 29 29 29 29 27 28 27 26 26 22 22 22 22 22 21 22 22 22 22 22 21 21 21 21 21 22 21 22 22 22 22 22 22 22 22 23 22 23 23 23 23 23 23
26 27 30 31 32 32 30 30 29 28 28 28 27 26 23 22 22 23 23 23 22 22 22 22 22 22 21 22 21 21 22 22 22 22 21 22 22 22 22 22 23 23 23 23 23 23 23 23 24
26 28 30 32 32 33 31 30 30 29 28 29 27 25 24 23 23 23 23 23 23 22 22 22 21 21 21 22 21 21 22 22 22 21 21 21 21 22 22 22 22 23 23 23 23 23 24 24 24
27 28 30 32 32 32 31 31 30 29 30 30 28 26 25 25 24 24 24 23 23 22 22 22 21 21 21 21 21 22 22 22 22 22 22 22 22 22 23 22 23 23 23 23 24 23 24 24 22
27 30 30 31 32 32 32 31 31 30 30 30 28 26 26 25 25 24 24 24 23 22 22 22 21 21 21 20 21 21 21 22 22 21 22 22 22 22 23 23 23 23 23 23 23 23 24 23 23
30 30 31 32 33 33 32 32 31 31 29 28 27 26 26 26 25 24 24 23 23 23 22 22 21 21 21 21 20 21 21 21 21 22 22 23 22 23 23 23 23 23 23 23 23 23 23 23 23
30 30 32 33 33 33 33 30 30 31 29 28 27 26 26 26 25 24 24 24 23 23 22 22 21 21 20 20 20 21 21 21 22 22 23 23 23 23 23 23 23 23 23 23 23 23 23 23 22
30 30 31 34 34 33 33 34 32 30 29 28 27 26 26 26 25 25 24 24 23 23 22 22 22 21 21 21 21 21 21 21 22 22 22 23 23 23 23 23 23 23 23 23 23 23 23 22 23
30 31 31 33 34 32 32 34 34 31 30 29 27 27 26 26 26 25 25 24 24 23 22 22 21 22 21 21 21 21 21 21 22 22 22 24 24 23 23 23 23 23 22 23 23 23 22 22 22
29 29 31 32 34 33 33 33 32 31 30 29 28 28 27 27 27 26 25 24 24 23 22 22 22 21 21 21 20 21 21 21 22 22 22 24 24 24 24 23 24 23 22 22 22 22 21 22 22
30 31 31 33 34 33 33 33 32 30 30 30 29 28 28 28 28 26 25 25 24 23 23 22 22 22 21 21 22 22 22 22 22 22 24 24 25 25 24 23 24 23 22 22 22 21 21 22 21
29 30 31 31 32 32 33 33 34 31 30 30 29 29 28 28 28 27 26 25 25 24 23 22 22 22 21 22 22 22 22 23 23 23 23 24 25 25 24 24 23 23 22 22 22 22 22 22 21
29 29 31 31 31 32 32 33 32 31 31 31 30 30 29 29 28 28 26 26 25 25 23 23 22 22 22 22 22 21 22 22 22 23 23 24 25 25 25 25 23 23 22 22 22 22 22 23 21
28 30 30 30 30 31 32 32 31 32 30 30 30 30 29 30 29 29 27 26 26 25 24 23 23 22 22 22 22 22 23 24 24 24 23 23 24 25 25 24 24 23 22 22 21 22 22 22 23
29 30 30 31 31 31 31 31 34 30 31 30 30 30 30 30 30 29 28 27 26 26 25 24 23 22 22 22 22 22 23 24 24 24 23 23 24 25 25 24 24 23 23 22 21 22 22 21 22
30 29 29 29 31 29 31 31 33 33 32 33 32 31 30 30 31 30 28 27 27 26 25 24 23 22 22 22 22 22 23 24 24 23 23 23 23 23 24 24 24 24 23 23 22 22 22 22 22
30 30 29 28 29 29 33 31 32 34 33 35 34 32 31 31 31 30 29 28 27 27 26 25 24 23 22 22 22 22 23 23 23 23 23 24 24 23 23 24 24 23 24 23 22 23 22 22 21
29 30 30 28 30 31 30 30 32 34 35 34 35 34 33 32 31 31 31 29 28 27 26 25 25 23 23 22 22 22 22 23 23 23 24 24 24 24 23 24 24 24 24 24 23 22 22 22 21
28 29 31 30 27 29 32 32 32 33 34 34 34 35 34 33 32 31 31 30 28 28 27 26 25 24 23 23 23 22 22 22 23 24 23 24 24 24 23 24 24 24 24 24 23 22 22 22 22
29 31 28 29 28 28 31 30 33 32 34 33 33 34 34 34 33 33 32 31 30 28 28 26 25 25 24 23 23 23 22 22 23 23 23 24 24 24 23 23 23 24 24 24 23 22 22 22 21
28 29 30 31 30 30 30 32 32 33 33 34 35 35 35 34 34 34 33 31 30 29 28 27 26 25 24 23 23 23 23 22 22 23 23 23 24 24 23 24 24 23 23 24 23 23 21 22 21
31 30 30 29 27 29 31 32 33 34 34 34 35 35 34 34 33 33 33 32 31 30 29 28 27 26 25 24 24 23 23 23 23 23 23 23 23 24 24 24 24 23 22 23 23 23 22 22 21

GFSSGP_925_temp_024.txt.gz
Temp
20 22 22 22 24 27 29 30 32 32 32 32 30 31 31 25 28 26 22 20 21 20 20 21 21 21 21 21 21 21 21 21 21 22 21 21 22 22 22 21 21 21 21 21 20 20 20 20 21
24 23 24 27 26 29 30 32 32 32 32 32 30 30 29 24 26 24 23 22 22 22 22 23 22 21 21 21 21 21 21 21 21 21 21 22 21 22 21 21 21 21 21 20 21 20 20 20 21
24 24 27 27 32 31 31 32 32 32 32 32 30 31 30 27 26 25 24 23 24 23 24 22 21 21 21 21 21 21 21 21 21 21 21 22 21 21 21 22 21 22 21 21 21 21 21 21 22
24 24 26 28 33 33 33 33 32 32 32 32 31 29 27 26 25 24 23 24 24 24 25 21 21 21 21 21 21 21 21 21 21 21 21 21 21 21 22 21 21 21 21 21 21 22 21 22 22
26 27 28 31 34 33 34 33 32 33 32 31 31 28 25 25 25 24 24 25 25 25 24 22 21 21 21 21 21 21 21 21 21 21 21 21 21 21 21 22 21 21 22 22 22 22 22 22 22
28 31 32 35 35 34 34 34 33 33 32 30 30 28 25 25 25 24 25 26 26 26 25 23 21 21 22 22 21 21 21 21 21 21 21 21 21 21 21 21 21 21 22 22 22 22 22 22 22
29 33 34 35 35 34 34 34 34 33 32 31 31 29 26 26 25 25 26 26 26 26 26 24 23 22 21 21 21 21 21 21 21 21 21 22 22 22 21 21 21 21 22 22 23 22 23 23 22
31 32 34 35 35 34 34 34 34 33 32 32 31 28 26 26 26 26 26 25 26 26 26 25 24 23 23 22 21 21 21 21 21 21 22 22 23 22 22 23 22 22 23 23 23 23 23 23 23
30 33 35 35 35 35 34 34 33 33 32 32 31 32 29 26 26 26 26 25 25 26 26 25 25 24 24 24 22 21 21 21 22 22 23 23 25 24 24 23 23 22 23 23 23 24 24 24 24
31 34 35 36 36 35 35 35 33 33 32 32 31 31 28 26 26 27 26 26 25 26 26 26 25 25 24 25 23 23 24 24 25 25 24 25 24 24 24 23 23 23 23 23 24 24 24 25 27
32 34 36 36 36 36 36 34 35 34 32 33 31 29 28 27 27 27 27 27 27 26 26 26 25 24 24 25 24 24 25 25 24 23 23 24 24 24 25 25 25 24 24 24 24 24 25 25 26
32 34 35 36 36 36 35 36 34 34 35 34 32 30 29 29 29 28 28 27 27 26 26 26 25 24 24 25 24 25 25 25 25 25 23 23 24 24 24 25 24 24 25 25 25 24 24 24 23
32 34 35 35 35 36 36 35 35 35 34 35 32 30 30 29 29 28 28 28 27 26 26 26 25 23 24 24 25 25 25 25 26 25 24 24 25 24 24 24 25 25 25 26 24 24 24 23 24
35 34 35 36 37 37 36 36 35 35 35 33 32 31 31 30 29 29 28 28 27 27 26 25 24 23 23 23 24 24 24 25 25 25 25 23 24 24 25 25 25 25 25 25 23 23 24 23 25
34 33 35 36 37 36 37 36 35 36 34 33 32 31 31 31 30 29 28 28 27 27 26 26 24 24 23 23 23 23 25 25 25 25 24 23 23 23 23 25 25 25 23 23 23 23 25 24 25
33 34 34 37 37 37 36 36 37 36 34 33 33 32 31 31 30 29 28 28 28 27 26 25 25 25 23 23 23 24 25 25 25 25 25 23 23 23 23 24 24 25 23 24 24 24 24 26 26
34 34 35 36 37 37 36 37 38 36 35 34 33 32 32 31 30 29 29 28 28 27 26 25 25 25 24 23 24 24 24 24 25 25 25 24 23 23 23 23 24 24 24 23 24 23 24 25 25
33 34 36 36 37 37 37 37 38 37 36 35 34 33 32 31 31 30 29 28 28 27 26 25 25 25 24 24 23 24 25 24 25 25 25 24 23 23 23 25 24 24 25 24 23 23 24 25 25
35 35 35 36 37 36 37 37 37 37 36 36 34 33 33 32 32 30 29 28 28 27 26 25 24 24 24 24 24 25 25 25 25 25 25 24 24 24 23 25 24 24 24 23 23 23 23 25 24
33 33 35 36 37 36 36 37 38 37 36 36 35 34 33 33 33 31 30 29 28 27 26 25 24 24 23 24 25 26 26 26 26 26 25 24 24 24 24 24 24 24 24 23 23 23 25 25 25
32 32 34 35 36 36 36 36 36 38 37 36 36 35 35 34 33 32 31 30 29 28 27 26 24 24 23 25 24 24 25 25 26 26 25 25 24 24 24 25 24 23 24 23 23 23 24 26 24
31 33 34 34 34 34 37 35 37 38 37 37 37 36 35 35 34 33 32 30 30 29 27 26 25 24 24 24 25 25 26 26 27 26 26 26 24 24 24 24 24 24 25 25 23 24 24 23 26
32 34 34 33 34 34 35 35 36 38 37 37 37 37 36 36 35 34 33 31 30 29 28 27 25 24 25 24 25 25 25 27 27 27 27 25 25 24 25 24 24 24 24 24 24 23 22 24 25
33 33 33 33 33 33 34 35 36 37 37 38 38 37 36 36 35 35 33 32 31 30 29 27 26 24 24 24 23 25 25 26 27 27 27 26 26 26 25 25 24 24 24 24 24 23 22 23 24
32 32 31 31 32 33 36 35 35 38 39 38 39 39 37 36 35 35 34 33 31 30 29 28 26 25 24 24 24 24 24 25 26 26 26 27 27 27 26 24 24 24 24 24 24 23 23 22 23
31 33 33 31 33 34 35 34 36 38 39 39 39 40 39 37 36 36 35 33 32 31 29 28 27 25 25 25 24 24 24 25 25 26 27 27 28 27 27 25 24 24 24 24 24 23 23 23 23
32 33 35 35 35 34 37 36 38 38 38 38 39 39 40 38 37 36 36 34 32 31 30 29 28 26 26 25 25 24 24 24 26 26 26 27 27 28 26 25 24 24 24 24 24 24 23 23 22
34 34 33 34 32 32 35 35 36 37 36 38 38 39 40 39 37 37 36 36 34 32 31 29 28 27 26 26 25 25 25 24 25 26 25 26 27 26 27 25 25 25 24 24 24 24 24 23 23
33 33 33 35 35 34 34 36 38 37 37 37 38 39 40 39 39 38 38 36 35 34 32 30 29 28 27 27 26 26 26 25 25 25 25 25 26 26 25 25 25 25 25 24 24 24 25 23 23
34 33 33 33 32 34 35 37 38 38 38 38 39 39 40 40 40 39 39 38 36 34 33 32 31 29 28 28 26 26 26 26 26 25 25 25 25 25 25 25 25 25 25 25 24 24 25 24 23

GFSSGP_925_temp_027.txt.gz
Temp
20 22 22 23 24 27 27 29 33 34 33 34 34 31 29 30 29 25 22 20 21 21 20 21 21 21 21 21 21 21 21 21 21 21 22 22 22 21 21 21 21 21 21 21 21 21 21 21 21
24 24 23 25 25 25 31 32 32 33 34 34 34 33 31 27 29 25 22 20 21 20 22 23 21 21 21 21 22 21 21 21 21 21 22 22 22 22 21 21 21 21 21 21 21 21 21 21 21
25 25 25 28 27 30 33 29 32 35 35 33 33 33 29 27 27 26 23 22 22 22 24 23 22 22 21 21 21 21 21 21 21 22 21 21 21 22 21 21 21 21 21 21 21 21 21 21 21
26 26 28 29 28 36 34 33 35 35 35 35 34 30 30 28 27 26 24 24 24 24 26 22 22 21 21 21 21 21 21 21 21 22 21 21 21 21 21 21 21 21 21 21 21 21 21 21 21
25 29 30 29 31 37 36 35 34 34 35 34 34 31 27 27 27 25 25 25 26 24 25 23 21 22 21 21 21 21 21 21 21 22 21 21 21 21 21 21 21 21 21 21 21 21 21 21 21
28 31 25 30 36 37 37 37 32 32 35 34 31 29 26 27 27 26 26 26 25 25 25 23 22 22 22 21 21 21 21 21 21 21 21 21 21 21 21 21 21 21 22 22 22 22 22 23 23
31 29 26 28 36 36 37 38 35 35 35 34 33 29 27 27 27 26 26 26 26 26 26 24 23 22 21 21 21 21 21 21 21 21 21 21 21 21 22 21 21 22 22 22 22 22 23 23 23
34 35 34 28 29 35 37 38 38 35 35 35 34 29 27 27 27 27 26 26 26 27 27 25 24 24 23 22 21 21 21 21 21 21 22 23 23 23 23 23 23 22 23 23 23 23 24 24 25
35 33 34 37 34 37 38 37 37 37 35 35 35 32 30 28 28 27 26 26 26 28 27 27 26 25 25 24 22 21 21 21 21 23 24 24 23 24 23 23 24 23 23 24 24 24 24 24 24
34 30 26 38 39 38 38 37 36 36 35 34 34 33 29 29 28 27 27 26 27 27 28 28 27 26 26 26 23 23 24 24 25 25 25 22 25 25 24 24 24 24 24 24 24 25 24 23 23
36 33 26 38 39 39 38 37 38 37 35 35 33 32 31 30 29 29 28 27 27 28 29 28 28 26 27 27 25 25 26 27 26 26 25 25 26 25 25 24 24 24 23 24 23 24 25 26 25
35 36 28 39 39 38 38 38 37 37 37 36 34 33 32 31 32 31 30 29 29 30 30 29 28 26 27 27 26 27 27 28 27 26 24 25 25 26 26 26 26 26 25 24 23 25 25 24 25
36 37 38 38 38 39 39 38 36 37 38 37 34 33 32 32 32 31 31 31 30 30 30 29 27 26 26 26 27 28 28 27 28 27 25 26 26 25 26 26 26 26 26 23 25 25 25 25 24
37 37 38 38 39 39 38 38 38 38 38 36 34 33 33 33 32 32 31 31 30 30 29 29 27 26 25 26 26 27 27 28 28 28 27 25 26 26 25 26 26 26 25 25 25 25 24 25 25
37 36 37 37 38 39 39 38 37 39 37 36 35 34 33 33 32 32 31 31 30 29 29 28 27 26 25 25 25 26 27 27 28 28 26 25 25 25 25 26 27 25 25 24 25 25 24 25 27
36 36 36 38 39 39 39 37 39 39 37 36 35 34 34 33 33 32 31 31 30 30 29 28 28 26 25 25 25 26 27 27 28 28 27 25 25 25 25 26 26 25 25 26 25 25 27 27 27
36 35 36 37 39 39 39 38 38 40 38 37 36 35 34 34 33 32 32 31 31 30 29 28 27 27 26 25 25 25 26 27 27 28 27 25 25 25 25 26 26 25 24 26 26 26 26 27 27
35 36 38 37 39 39 39 38 38 39 39 38 37 36 35 35 34 33 32 31 31 29 28 28 27 27 26 26 25 26 27 26 27 27 28 25 25 24 24 26 25 25 24 25 25 24 26 26 27
37 37 37 39 40 39 38 38 39 39 39 39 38 37 36 35 35 33 32 31 31 30 29 28 27 27 26 26 26 27 27 27 27 27 27 26 25 25 25 26 25 25 26 25 24 25 25 27 26
36 36 38 39 40 39 38 38 40 40 39 39 38 37 37 36 35 34 32 32 31 30 29 28 27 26 25 26 26 27 27 28 27 27 27 26 25 25 25 24 26 26 25 24 24 24 25 27 26
35 36 37 38 39 39 38 38 38 40 40 39 39 38 38 37 36 34 33 32 31 30 29 28 26 26 25 26 26 26 27 27 27 27 27 26 25 26 26 25 25 26 25 24 24 24 25 26 26
35 37 37 37 37 37 38 36 37 39 39 39 39 39 38 38 37 35 34 33 32 31 29 28 26 25 25 25 27 27 27 28 28 28 28 27 26 26 26 25 25 25 26 24 24 25 25 26 27
35 37 36 36 36 37 37 37 39 39 39 39 40 39 39 39 38 36 35 33 33 32 30 28 26 25 26 25 26 27 27 28 28 29 28 27 26 26 26 26 25 25 24 26 24 25 24 26 26
36 36 36 36 36 35 36 37 38 40 40 40 40 40 40 39 38 37 35 34 33 32 31 29 27 25 25 25 25 26 27 28 29 28 29 28 28 26 26 26 25 25 25 26 25 24 24 24 26
35 34 33 33 34 34 37 37 37 40 41 41 41 41 41 40 39 37 36 35 33 33 31 30 28 26 25 25 25 25 26 26 28 28 28 29 29 28 27 26 25 25 25 26 25 24 25 24 24
34 35 34 32 34 35 37 36 38 40 41 42 42 42 41 40 40 39 37 36 34 33 32 31 29 27 26 25 25 25 25 27 27 27 29 28 29 29 29 26 26 25 25 25 25 25 25 25 24
34 35 37 37 38 38 38 38 40 41 41 41 41 41 41 41 40 39 38 36 35 33 32 31 30 27 26 26 26 25 25 26 27 27 27 28 28 30 29 27 26 25 25 25 25 25 25 25 24
36 36 35 36 34 35 38 38 38 39 39 40 40 40 41 42 40 40 39 37 36 34 33 31 30 28 27 27 26 26 25 25 26 27 27 27 28 28 29 28 27 25 25 25 25 26 26 25 25
35 35 36 37 37 36 36 38 41 40 40 39 40 41 41 42 41 40 39 38 36 35 34 32 31 30 28 27 27 27 26 26 25 26 27 27 27 28 27 27 26 26 25 25 25 25 27 25 25
37 35 36 35 34 37 38 39 41 41 41 40 40 41 41 42 41 40 40 39 38 36 35 34 32 31 29 28 28 27 27 27 26 26 26 27 27 27 27 27 26 26 26 26 25 25 26 26 25

GFSSGP_925_temp_030.txt.gz
Temp
21 22 23 23 24 23 27 26 27 31 33 33 33 30 31 30 29 26 20 21 21 20 20 20 21 21 21 22 22 21 21 22 22 21 21 21 21 21 21 21 21 21 21 21 21 21 21 21 21
23 24 23 23 24 24 26 30 29 32 34 35 33 33 30 27 27 24 22 21 21 21 22 22 21 21 21 22 22 21 21 21 21 21 21 21 21 21 21 21 21 21 21 21 21 21 21 21 21
26 25 23 25 25 26 28 27 31 34 35 34 32 32 29 26 27 25 23 20 21 22 24 22 21 21 22 22 21 21 21 22 21 21 21 21 21 21 21 21 21 21 21 21 21 21 21 21 21
24 24 25 25 27 29 33 33 33 35 34 34 32 29 27 27 26 25 22 23 23 24 25 23 22 21 22 22 21 21 21 21 21 21 21 21 21 21 21 21 21 21 21 21 21 21 21 21 21
26 28 26 27 29 32 36 35 33 32 35 32 31 28 25 27 26 24 24 24 24 25 23 23 23 22 22 21 21 21 21 21 21 21 21 21 21 21 21 21 21 21 21 21 21 22 22 22 22
26 23 26 29 31 36 37 36 36 33 34 32 29 28 26 26 25 25 24 25 25 25 24 22 22 21 22 21 21 21 21 21 21 21 21 21 21 21 21 21 21 22 22 22 23 23 24 24 24
24 22 24 27 28 36 36 36 36 34 36 32 31 27 26 26 26 25 25 25 27 26 25 23 22 21 21 21 21 21 21 21 21 21 21 22 22 22 22 22 22 22 23 23 24 24 23 23 24
31 22 25 26 30 29 38 37 36 35 34 35 31 27 25 26 26 26 25 26 26 27 25 24 23 22 22 21 21 21 21 21 21 22 22 22 22 23 23 23 23 23 23 24 23 23 23 22 23
33 29 28 28 32 31 37 36 36 36 36 35 33 30 28 27 27 26 25 26 26 27 26 25 24 23 23 22 21 21 21 22 23 23 22 22 22 23 23 23 24 24 24 24 23 24 24 24 23
33 23 26 31 31 33 37 37 37 36 35 34 31 30 28 27 27 27 26 26 27 27 27 26 25 25 24 24 23 22 22 23 23 23 24 23 22 24 24 24 24 24 24 24 24 23 23 25 25
35 28 31 32 33 38 36 37 38 37 35 33 30 30 30 28 28 27 27 26 27 28 28 27 26 26 25 25 24 24 24 25 25 24 25 21 23 24 24 24 24 24 24 24 24 25 24 25 25
35 29 27 31 34 39 35 30 37 35 35 35 32 31 30 29 29 28 27 27 28 28 29 28 27 27 27 25 25 25 26 27 26 26 25 23 25 24 25 25 24 24 24 23 24 24 25 25 25
36 32 33 27 31 39 35 29 31 32 37 36 33 32 32 31 30 29 28 28 29 28 30 28 27 27 27 26 27 27 28 28 28 26 26 24 25 26 26 25 25 23 24 24 24 25 25 24 26
37 38 35 33 34 39 39 35 33 33 37 35 33 32 32 32 32 31 29 29 30 29 30 29 27 27 26 27 27 27 28 28 28 28 27 26 24 25 26 26 24 25 25 24 24 25 26 24 25
38 36 38 38 39 39 40 38 37 34 37 35 34 33 33 33 33 32 31 31 31 31 30 28 27 26 26 26 26 26 27 28 28 27 26 26 25 25 26 25 25 25 25 25 25 25 25 25 26
36 37 35 38 39 39 39 37 38 34 37 35 34 33 33 33 33 33 33 32 31 31 30 28 28 26 26 25 25 26 26 27 28 28 27 25 25 25 25 26 25 26 25 26 26 25 25 25 26
35 35 36 37 39 39 39 38 39 37 38 36 35 34 34 33 33 33 32 32 31 30 29 29 29 26 25 25 25 25 26 27 28 28 27 26 25 25 25 26 26 25 25 25 26 26 26 27 27
34 35 36 36 39 39 39 38 38 38 31 36 36 35 34 34 34 33 33 32 31 30 29 28 28 27 26 25 25 25 26 27 27 28 28 26 25 25 25 25 26 25 25 25 25 25 26 27 27
36 36 36 38 39 39 38 38 38 35 27 32 36 36 35 35 35 33 33 32 31 30 28 28 28 27 25 25 25 26 26 27 27 27 28 26 25 25 24 24 25 25 25 25 25 25 25 26 26
35 36 37 38 40 40 39 39 39 35 28 29 35 31 36 35 35 34 33 33 32 30 28 27 27 27 26 26 25 26 27 27 27 27 27 26 26 25 24 24 25 25 25 24 24 24 25 26 26
35 35 36 38 39 40 39 38 39 38 39 37 38 35 37 36 36 34 33 33 32 30 29 27 27 27 26 26 26 26 27 27 27 27 27 27 26 25 25 24 25 25 25 25 24 24 25 25 26
34 36 37 37 38 37 40 36 38 39 39 39 39 38 38 37 36 35 34 33 32 31 29 27 27 26 25 26 26 26 27 27 28 27 27 27 26 25 25 25 25 25 25 24 25 25 25 25 26
35 37 36 37 37 37 38 37 38 39 39 39 39 39 35 38 37 35 34 33 33 31 30 28 27 26 25 25 26 26 26 27 28 28 28 27 26 26 26 25 25 25 25 25 25 25 25 25 26
37 37 37 37 37 35 37 37 38 39 39 40 40 40 39 38 38 36 35 33 33 32 30 29 26 26 26 25 26 26 26 27 28 28 28 27 26 26 26 26 25 25 25 24 25 25 25 25 25
36 35 34 33 34 33 37 37 38 40 40 41 41 40 40 39 39 37 34 34 33 32 31 29 26 25 25 25 25 25 26 27 27 28 28 28 27 26 26 26 26 25 25 25 25 24 24 25 25
35 35 34 31 33 34 36 36 37 40 41 41 42 42 41 41 40 38 35 34 33 33 31 30 27 26 25 25 25 25 25 26 27 27 28 28 28 28 28 27 26 25 25 25 25 25 25 24 24
35 34 37 36 36 36 37 37 39 40 40 41 42 42 41 41 41 38 37 35 33 33 31 30 28 26 25 25 25 25 25 26 26 27 28 28 29 29 29 28 26 26 25 25 25 25 25 25 24
37 37 34 36 33 34 37 38 37 38 39 40 41 42 42 41 41 39 38 36 34 33 32 31 29 27 26 26 25 25 25 25 26 27 27 28 28 29 29 28 26 25 25 25 25 25 25 25 25
36 36 35 36 36 35 36 38 42 39 39 40 41 41 42 41 40 40 39 37 35 34 33 31 30 28 27 26 26 26 25 25 25 26 27 27 28 28 29 27 26 26 25 25 25 25 25 25 25
37 36 36 34 34 36 37 38 41 42 41 41 41 41 42 41 40 40 39 38 37 35 34 32 31 30 28 27 26 26 26 26 25 25 26 27 27 28 27 28 27 26 25 25 25 25 25 26 25

GFSSGP_925_temp_033.txt.gz
Temp
21 22 22 22 23 23 25 27 26 28 29 30 30 29 26 26 28 24 19 21 21 21 21 21 21 21 21 22 22 21 22 21 22 21 21 21 21 21 21 21 21 21 21 21 21 21 21 21 21
22 22 22 22 24 24 25 27 25 28 30 30 31 29 27 25 23 20 19 21 21 21 21 21 21 22 21 22 22 21 21 21 21 21 21 21 21 21 21 21 21 21 21 21 21 21 21 21 22
23 23 22 23 24 24 26 27 27 31 33 31 30 29 27 23 22 21 20 21 21 22 21 21 22 22 21 22 22 21 21 21 21 21 21 21 21 21 21 21 21 21 21 21 21 21 21 21 22
24 23 23 24 26 27 29 29 30 33 31 29 28 26 26 25 25 22 20 21 22 22 22 21 22 21 21 22 21 22 22 21 22 21 21 21 21 21 21 21 21 21 21 21 22 22 21 22 23
24 23 24 25 26 25 29 30 31 30 31 29 28 25 24 22 22 21 22 23 24 22 23 22 22 22 22 22 21 21 21 21 21 21 22 21 21 21 21 21 21 21 21 22 22 22 21 22 23
24 24 24 25 27 27 29 32 32 32 30 27 26 25 24 22 22 22 23 24 24 23 23 22 22 22 22 21 21 21 21 21 21 22 21 21 21 22 21 21 21 22 22 22 22 22 22 22 22
25 23 22 24 24 28 33 34 32 30 29 28 28 25 24 23 23 24 24 24 24 23 22 22 22 21 22 21 21 21 22 21 22 21 21 21 22 22 22 22 22 22 22 22 23 23 23 22 23
23 22 22 25 26 27 26 35 32 31 29 30 28 24 23 24 24 24 24 25 25 23 23 22 21 22 22 21 21 21 22 21 21 22 22 21 21 22 23 23 23 23 23 23 24 24 24 24 23
29 23 22 25 28 30 29 32 33 33 30 29 30 26 25 25 25 25 25 25 25 23 23 22 22 22 22 21 21 22 23 22 23 23 23 23 22 22 23 23 24 24 24 24 24 25 24 24 24
26 24 25 30 31 29 28 29 34 31 29 27 26 26 26 25 25 25 24 25 25 23 23 23 23 22 22 22 22 23 24 24 23 23 24 24 23 23 23 24 24 24 24 24 24 25 24 24 24
29 28 30 30 32 28 30 30 28 30 27 26 25 26 26 26 25 25 25 25 25 24 24 24 23 23 23 23 24 24 24 24 23 24 25 24 23 23 23 24 24 24 25 24 24 24 24 25 25
30 31 30 30 31 32 32 31 28 32 29 28 27 27 27 26 26 25 26 26 26 25 25 25 24 24 24 24 25 25 25 24 23 24 25 24 24 24 24 23 24 24 24 25 24 24 24 25 25
32 30 31 33 32 30 32 31 30 31 30 29 28 27 27 27 27 26 26 26 27 26 26 25 25 25 25 25 26 26 25 25 25 25 25 25 25 24 24 23 24 24 24 25 24 24 25 25 26
33 32 31 32 33 31 31 31 29 31 30 29 28 27 27 27 26 26 27 27 27 27 27 26 26 25 26 26 26 26 26 26 26 25 26 25 25 24 24 24 24 24 25 24 25 24 25 26 26
34 34 33 32 33 34 31 30 27 32 31 30 28 27 27 27 27 26 27 27 27 27 27 26 27 26 26 26 26 26 27 27 27 26 25 25 25 25 25 25 24 24 24 24 25 26 25 25 25
32 33 32 32 32 34 34 30 34 33 31 30 30 29 28 28 28 27 27 27 27 28 26 26 26 27 27 27 26 26 27 27 27 27 26 26 25 25 25 25 25 25 25 24 24 25 25 25 26
31 30 31 33 36 37 35 32 33 33 32 31 30 30 30 29 29 28 27 28 28 28 26 26 26 26 26 26 26 26 27 27 27 26 27 26 26 25 25 25 25 25 25 25 25 25 26 26 26
29 30 31 33 35 35 34 33 31 33 32 26 25 30 31 30 30 30 28 29 29 28 27 26 26 27 26 26 26 25 26 26 26 26 27 27 26 25 25 24 25 25 25 25 25 25 26 26 26
31 31 32 34 36 35 34 34 33 28 26 27 24 24 30 31 31 31 31 30 29 28 27 27 26 26 26 25 25 25 25 26 26 27 26 27 26 26 25 25 24 25 25 25 25 25 25 26 26
32 31 32 34 36 35 36 35 32 27 26 25 25 26 28 31 31 31 31 31 29 28 28 28 27 26 25 25 25 25 25 26 26 27 26 27 26 25 25 25 25 25 24 24 25 25 25 26 26
31 31 32 32 35 36 35 35 29 30 29 28 27 27 28 32 31 30 31 31 29 27 27 28 28 26 26 25 25 25 25 26 26 27 27 26 26 25 25 24 25 25 25 24 24 24 25 26 26
30 32 33 34 33 31 36 32 32 31 29 27 27 26 29 30 32 31 31 31 29 27 27 27 27 27 26 25 25 25 25 25 26 27 27 26 26 26 25 25 25 24 24 25 25 24 25 25 26
31 33 33 33 32 30 33 31 34 33 30 28 27 29 27 27 31 31 31 31 30 28 26 26 27 26 25 25 25 25 25 26 26 27 27 27 26 26 25 25 25 25 24 24 25 24 24 25 25
34 32 31 32 31 30 31 31 30 34 34 32 31 30 29 32 33 30 31 31 31 28 27 26 26 26 26 26 25 26 25 26 26 27 27 27 27 26 26 25 25 25 25 25 25 25 24 25 25
32 30 28 28 29 29 30 30 31 34 35 36 34 31 30 28 31 30 31 31 31 28 27 26 25 25 25 25 26 26 26 26 26 27 27 27 26 26 26 25 25 25 25 25 24 24 24 25 25
31 31 26 26 28 29 31 31 32 34 35 36 37 33 30 28 30 32 31 31 31 30 28 26 25 25 24 24 25 26 25 26 26 27 27 27 27 27 27 26 25 25 25 25 24 24 24 24 25
31 30 31 29 30 28 30 31 33 35 35 36 36 37 34 33 34 33 32 31 31 30 29 27 25 25 24 24 24 25 25 25 26 27 27 27 27 27 27 27 26 26 25 25 25 24 25 24 24
32 32 30 30 27 28 30 31 32 33 34 35 34 36 36 34 33 33 32 32 31 31 29 28 25 25 24 24 24 24 25 25 25 26 27 26 28 28 27 27 27 26 26 25 25 24 24 24 24
32 31 32 29 27 26 27 30 35 34 34 34 35 34 38 36 35 33 33 32 31 31 30 28 27 25 24 24 24 24 24 24 24 25 26 27 27 28 28 28 27 26 25 25 25 25 25 24 24
33 32 31 30 28 29 29 31 33 34 36 35 36 34 35 37 35 34 33 33 31 31 30 29 28 26 25 24 24 24 24 24 24 24 25 27 27 27 28 27 27 26 26 26 25 25 25 25 25

GFSSGP_925_temp_036.txt.gz
Temp
21 21 20 21 23 22 24 26 25 26 26 29 29 28 27 24 26 23 19 20 21 20 21 21 21 21 22 22 21 21 21 21 21 21 21 21 21 21 21 21 21 21 21 21 20 20 20 20 20
22 21 21 22 23 23 25 24 25 28 28 28 28 28 26 22 22 20 19 21 21 21 21 21 21 21 22 22 21 21 21 21 21 21 21 21 21 21 21 21 21 21 21 21 21 21 21 20 20
22 22 22 23 24 24 25 24 26 30 29 30 27 27 25 21 21 20 20 20 21 21 21 21 21 22 22 22 21 21 21 21 21 21 21 21 21 21 21 21 21 21 21 21 21 21 21 21 21
22 22 22 24 25 26 27 27 28 28 28 28 27 24 24 22 21 20 20 21 21 21 21 21 21 21 21 22 21 21 21 21 21 21 21 21 21 21 21 21 21 21 21 21 21 21 21 21 22
23 22 24 24 25 26 27 29 28 28 27 27 27 24 22 21 23 20 20 21 21 21 21 21 21 21 21 21 21 21 21 21 21 21 21 21 21 21 21 21 21 21 21 21 21 21 21 21 22
22 22 24 24 25 27 27 27 25 26 26 25 25 24 20 20 21 20 21 21 21 21 22 21 21 21 22 21 21 21 21 21 21 21 21 21 21 21 21 21 21 21 22 22 22 22 22 23 22
24 22 23 24 24 26 27 27 26 26 27 26 27 23 20 20 21 21 22 22 22 22 22 21 21 21 21 21 21 21 21 21 22 21 21 21 21 21 22 22 21 22 22 22 23 23 23 23 22
24 21 24 25 25 24 26 26 28 28 27 28 27 22 20 21 22 22 22 22 22 22 22 22 21 21 21 21 21 21 21 22 22 22 22 22 22 22 23 23 22 23 23 23 23 23 23 23 23
22 22 23 24 24 23 24 27 28 27 27 28 28 25 23 22 23 23 22 21 21 21 22 22 21 22 22 21 21 21 23 22 22 22 23 23 23 23 22 23 23 24 24 24 23 23 23 24 24
25 22 24 26 27 27 23 25 25 27 27 26 24 24 23 23 23 23 23 21 21 21 21 22 22 22 22 22 22 23 23 23 23 23 23 23 23 23 23 23 23 23 24 24 24 24 23 24 24
25 24 26 28 28 31 29 28 28 26 25 25 23 23 24 24 24 24 24 22 21 22 21 22 22 22 23 23 24 24 24 24 23 23 24 23 23 23 23 23 23 24 24 24 24 24 24 24 24
26 28 28 29 31 32 31 29 28 29 26 26 25 24 25 24 24 24 24 23 22 21 22 23 23 23 23 24 25 25 24 24 24 23 24 24 24 24 23 24 24 24 24 24 24 24 24 24 25
28 28 30 31 32 31 31 29 30 29 27 27 26 25 25 25 25 24 24 24 23 22 23 23 23 23 23 25 26 25 24 24 24 23 24 24 24 24 23 24 24 24 24 24 24 25 24 24 25
29 29 31 32 31 30 31 30 29 27 27 26 26 25 25 25 25 25 25 25 24 23 23 24 24 24 24 25 26 26 25 24 24 24 24 25 25 24 24 24 24 24 24 24 24 24 25 25 25
30 29 31 31 31 31 31 31 29 27 26 26 25 26 25 26 25 25 25 25 25 24 24 24 24 24 25 25 26 26 25 25 25 25 25 25 25 25 24 24 24 24 24 24 24 25 25 25 26
29 29 28 31 33 32 31 30 29 27 26 26 26 26 26 26 25 26 26 26 25 25 25 25 24 24 25 25 25 26 25 26 26 25 25 25 25 25 24 24 24 24 24 24 24 24 25 26 25
27 27 28 31 32 33 31 31 29 27 26 26 26 26 26 26 26 26 26 26 26 26 25 25 24 25 25 25 25 26 26 25 26 26 25 25 25 25 25 24 24 24 24 25 25 25 25 25 25
26 26 28 29 32 32 31 31 28 28 27 26 25 26 26 26 26 26 26 26 26 26 26 25 25 25 26 25 26 26 26 26 26 26 26 25 26 25 25 25 25 24 25 25 25 25 26 26 26
28 28 28 30 33 33 32 31 28 28 28 27 25 26 26 26 27 27 26 26 26 26 26 25 25 25 25 26 26 26 26 26 26 26 25 25 26 26 24 24 24 24 25 25 25 25 25 24 25
28 28 28 31 32 31 31 30 29 29 28 28 27 27 27 27 27 28 27 27 27 26 25 25 25 25 26 26 26 26 26 26 26 26 26 26 26 26 25 24 24 24 24 25 24 25 25 25 25
28 27 28 29 31 32 33 29 31 30 29 28 28 28 28 29 29 28 28 27 27 25 25 24 25 25 25 26 26 25 26 26 26 25 26 26 25 26 25 25 25 24 24 24 24 25 25 25 25
26 29 30 30 29 28 32 29 27 28 27 27 28 28 27 28 30 29 28 28 28 26 25 25 25 25 25 25 25 25 24 24 25 25 26 26 25 25 25 25 25 24 24 24 24 24 25 25 25
29 30 30 30 28 28 30 28 26 27 26 26 27 27 28 28 30 29 29 29 28 26 25 24 24 25 25 25 25 25 24 24 25 25 26 26 25 25 25 25 25 24 24 24 24 24 24 24 25
30 29 29 29 27 26 29 28 27 27 28 28 29 28 29 28 30 31 30 30 28 27 26 25 24 24 24 25 25 25 24 24 25 25 25 26 25 25 25 25 25 24 24 24 24 24 24 24 24
29 26 25 25 26 26 30 26 29 30 30 30 29 29 29 29 30 31 30 30 29 27 26 25 24 23 24 24 24 25 25 25 25 25 26 26 25 25 25 25 25 24 24 24 24 24 24 24 24
28 27 24 24 24 27 27 26 28 30 32 33 30 30 30 30 29 30 30 30 29 27 26 26 25 24 24 24 24 24 25 25 25 25 26 26 26 26 26 25 25 25 25 24 24 24 24 24 24
27 27 26 24 25 24 28 29 31 31 31 31 30 30 30 30 29 31 30 30 30 27 26 26 25 25 24 24 24 23 24 25 25 26 26 26 26 26 27 26 26 25 25 25 24 24 24 24 24
30 28 27 22 25 25 26 27 30 31 31 29 31 30 30 30 30 31 30 30 30 28 27 26 25 25 24 24 24 24 24 25 25 25 26 26 26 26 26 26 26 26 25 25 25 24 24 24 24
28 29 28 27 23 25 25 29 29 29 29 31 31 32 31 30 31 30 31 31 30 29 28 26 25 25 24 24 24 24 24 24 24 25 25 26 26 26 26 27 26 26 25 25 25 25 24 24 24
30 28 27 28 25 23 24 29 32 32 32 32 31 31 31 31 31 31 31 31 30 30 28 27 25 25 24 24 24 23 23 23 23 24 25 25 26 26 26 26 27 26 26 25 25 25 24 24 24

GFSSGP_925_temp_039.txt.gz
Temp
20 20 20 20 22 22 24 26 26 25 25 28 28 28 26 22 25 22 19 20 21 21 21 21 21 21 21 21 21 21 21 21 21 21 21 21 21 21 21 20 20 20 20 20 20 20 20 20 20
20 20 20 21 23 23 25 24 25 26 26 26 27 26 24 22 22 19 19 20 21 21 21 21 21 21 21 21 21 21 21 21 20 21 21 21 21 21 21 21 21 21 21 22 21 21 20 20 20
20 21 22 23 23 24 24 25 25 27 27 29 26 26 23 21 21 20 19 20 21 21 21 21 21 21 21 21 21 21 21 21 21 21 21 21 21 21 21 21 21 20 21 20 21 20 20 20 21
21 21 22 23 25 26 27 27 25 27 26 26 25 23 22 22 21 19 20 20 21 21 21 21 21 21 21 21 21 21 21 21 21 21 21 21 21 21 21 21 21 21 21 20 20 20 20 21 21
22 22 23 24 25 27 27 26 27 25 25 26 26 22 20 21 20 19 19 20 21 20 21 21 21 21 21 21 21 21 21 21 22 21 21 21 21 21 21 21 21 21 21 21 20 20 21 21 22
22 21 24 24 24 26 26 26 26 28 25 24 23 22 20 19 19 19 20 21 21 21 21 21 21 21 21 21 21 21 21 21 21 21 21 21 21 21 21 21 21 21 21 21 21 21 22 22 22
22 22 23 24 25 26 26 26 26 25 24 25 26 21 19 19 20 20 20 21 21 21 21 21 21 21 21 21 21 21 21 21 21 21 21 21 21 21 21 21 21 21 21 21 22 23 22 22 22
22 22 24 25 24 25 26 24 25 26 26 27 24 20 20 20 20 20 21 21 21 21 21 21 21 21 21 21 21 21 21 21 21 21 21 21 21 21 22 22 21 22 22 23 23 23 23 22 22
25 22 23 24 25 24 25 24 27 26 26 28 27 22 22 20 20 21 20 20 20 20 21 21 21 21 21 21 21 21 21 21 21 21 21 22 21 22 22 23 22 22 23 23 23 23 23 23 23
24 21 24 26 25 26 25 24 27 25 27 24 23 22 21 21 21 21 20 20 20 20 20 21 21 22 21 22 21 21 21 22 23 22 22 23 22 22 23 23 23 22 23 23 23 23 23 23 23
25 22 26 27 28 27 25 25 26 26 25 24 22 21 22 22 22 21 20 20 20 20 20 21 22 22 22 23 22 22 22 23 23 23 23 23 23 23 23 23 23 24 24 24 24 24 24 24 24
24 26 27 28 29 27 26 27 27 27 26 26 23 23 23 22 22 22 21 20 20 20 21 21 22 22 22 23 23 24 24 23 23 23 23 23 23 23 24 24 23 23 24 24 24 24 24 24 24
25 26 28 28 28 30 30 28 28 27 26 25 24 24 23 23 23 23 22 21 20 20 21 21 22 22 23 23 24 24 24 24 23 23 24 24 24 24 24 24 24 23 24 24 24 24 24 25 25
27 27 27 28 29 29 30 28 28 27 25 24 24 24 24 23 23 23 22 21 21 21 22 22 23 23 24 24 24 25 24 24 24 24 23 23 24 24 24 24 24 24 24 24 24 24 24 25 25
27 26 28 29 29 30 31 29 28 26 25 24 24 24 24 24 24 24 23 22 22 22 23 23 23 24 24 25 25 25 25 24 24 24 24 24 24 24 25 24 24 24 24 24 24 24 24 24 24
27 26 25 29 29 31 31 28 26 25 25 24 24 24 24 24 24 24 24 23 22 23 23 23 23 24 24 25 25 25 25 24 24 25 25 24 24 24 25 24 24 24 24 24 24 24 24 24 24
24 24 26 28 30 30 30 28 25 25 25 24 24 25 24 24 24 24 24 24 23 23 23 23 23 24 25 25 25 25 25 25 25 25 25 25 24 24 24 24 24 24 24 24 24 24 25 26 25
23 25 26 27 29 31 29 29 25 25 25 24 24 25 25 25 25 24 25 25 24 24 24 24 24 24 24 25 25 24 25 25 25 26 25 25 24 24 24 24 24 24 24 25 24 25 25 25 25
26 27 27 28 30 29 29 30 25 25 25 24 24 24 25 25 25 25 25 25 25 24 24 24 24 24 24 24 24 24 24 25 25 25 25 25 24 24 24 25 24 24 24 24 24 24 25 25 25
25 25 26 28 30 29 29 30 27 25 25 25 24 24 25 25 25 25 25 25 25 24 25 24 25 24 24 24 24 24 25 25 26 25 25 25 24 24 24 25 25 24 24 24 24 24 24 24 25
24 25 26 27 28 29 29 28 29 26 26 26 25 25 25 25 25 25 25 25 25 25 24 24 25 24 25 24 24 24 25 26 25 25 25 25 25 25 24 25 25 24 24 24 24 24 25 25 24
23 26 27 28 28 25 29 26 26 26 26 26 25 25 26 26 26 26 26 26 26 25 24 25 25 24 24 24 24 24 25 25 26 26 25 25 25 25 25 25 24 24 24 24 24 24 24 25 25
26 27 27 27 26 26 28 27 25 27 25 26 27 26 27 26 27 26 26 26 26 26 24 24 25 24 24 24 24 24 24 25 25 25 25 25 26 25 25 25 24 24 24 24 24 24 24 24 25
28 27 26 26 24 25 27 26 25 27 27 27 27 27 28 28 28 28 27 27 27 26 25 24 24 24 24 24 24 24 24 24 25 25 25 25 25 25 25 25 24 24 24 24 24 24 24 24 24
27 24 21 22 22 25 27 25 28 27 29 28 28 28 28 28 28 29 27 27 27 27 25 24 23 23 23 24 24 24 25 25 26 25 25 25 25 25 25 25 24 24 24 24 24 24 24 24 24
25 25 21 21 23 26 25 24 26 28 30 30 29 29 29 27 28 29 28 28 27 27 25 24 23 23 23 23 23 24 25 25 25 26 25 25 25 25 25 25 25 24 24 24 24 24 24 24 24
25 25 25 22 22 23 27 25 28 28 29 29 30 30 30 29 28 28 29 29 28 27 25 25 23 23 23 23 23 23 24 24 24 25 25 25 25 25 26 26 25 25 25 24 24 24 24 24 24
26 25 24 21 23 23 24 26 27 27 27 27 29 29 30 30 29 29 30 29 29 27 26 25 24 24 23 23 23 23 23 24 25 25 25 25 25 25 26 26 25 25 25 25 24 24 24 24 24
26 26 26 25 22 25 23 28 26 28 28 28 29 31 30 30 29 29 29 30 29 29 26 25 25 24 23 23 23 23 23 24 24 24 25 25 25 25 25 26 26 26 26 25 25 24 24 24 24
28 25 23 27 23 21 22 27 30 28 27 30 31 30 29 29 30 30 29 30 29 29 27 26 25 25 24 23 23 23 23 24 23 24 25 25 25 25 25 26 26 26 26 25 25 24 24 24 24

GFSSGP_925_temp_042.txt.gz
Temp
20 20 20 20 22 22 23 24 25 24 23 26 27 26 25 22 24 22 19 21 22 21 21 21 21 21 21 21 21 21 21 21 21 21 21 21 21 21 20 20 20 20 20 20 21 20 20 20 20
20 19 20 21 23 23 24 25 25 25 26 25 27 26 24 21 21 19 18 21 21 21 21 21 21 21 21 21 21 21 21 21 21 21 21 21 21 21 20 20 20 21 21 20 20 20 20 20 20
20 20 21 23 23 24 24 23 24 25 26 27 25 24 23 21 20 19 19 21 21 21 21 21 21 21 20 21 21 21 20 21 21 21 20 21 21 21 21 20 20 20 20 20 20 20 20 21 21
20 20 21 24 25 25 26 25 25 24 24 24 23 21 21 21 21 19 19 21 21 21 21 21 21 21 21 21 21 21 21 21 21 21 20 21 21 21 21 21 21 20 20 20 20 20 20 21 21
21 22 23 24 25 26 26 24 24 26 24 24 23 21 20 20 20 19 19 20 21 20 21 21 21 21 21 21 21 21 21 21 21 21 20 21 21 21 21 21 21 21 20 20 20 20 21 21 21
22 21 23 24 24 26 26 25 24 26 24 23 22 21 20 19 19 19 19 20 21 21 21 21 21 21 21 21 21 21 21 21 21 21 21 21 21 21 21 21 21 21 21 20 21 22 22 22 22
22 22 23 23 24 25 26 25 25 24 24 24 23 21 19 19 19 19 20 20 20 21 21 21 21 21 21 21 21 21 21 21 21 21 21 21 21 21 21 21 21 21 21 21 22 22 22 22 22
22 21 23 23 24 25 25 25 25 25 25 25 23 20 20 20 19 19 20 20 20 21 21 21 21 21 21 21 21 21 21 21 21 21 21 21 21 22 21 21 21 21 21 22 22 22 22 22 22
25 22 22 24 24 25 24 26 26 26 26 26 24 22 21 19 19 19 19 20 20 21 21 21 21 21 21 21 21 21 21 21 21 21 21 21 21 21 22 22 21 21 22 22 23 23 23 23 22
23 21 23 26 25 26 26 26 27 26 26 23 21 21 20 20 20 19 20 20 20 20 20 21 21 21 21 21 21 21 21 21 21 22 22 22 22 22 22 22 22 22 22 23 23 23 23 23 23
23 22 25 27 26 28 26 26 26 26 25 23 21 20 20 20 20 20 20 20 19 20 20 21 21 21 21 21 21 21 21 21 22 22 22 22 23 23 22 23 23 23 23 23 23 23 23 23 23
23 24 26 28 28 27 26 27 26 26 26 25 22 21 20 20 20 20 20 20 19 19 20 20 21 21 22 22 22 22 22 22 22 22 23 23 23 23 23 23 23 23 23 23 23 24 24 24 23
24 25 26 27 27 27 27 27 27 26 25 24 22 21 21 21 21 20 20 19 19 19 19 21 21 22 22 22 22 22 22 23 23 23 23 23 23 23 23 23 23 23 23 23 23 24 24 24 25
26 26 26 27 27 27 28 27 27 26 24 23 22 21 21 21 21 21 20 20 19 20 20 21 21 22 22 23 23 23 23 23 23 23 23 23 23 24 24 23 24 23 23 24 23 24 24 24 25
26 26 26 27 27 27 29 27 26 24 24 22 22 22 22 22 22 22 21 20 20 21 21 21 22 22 23 24 24 23 24 23 24 24 23 23 23 24 24 24 24 24 23 23 23 24 24 25 24
24 26 24 27 27 29 28 26 26 24 23 22 22 22 22 22 22 22 21 21 21 21 21 22 22 23 23 24 24 24 24 24 24 24 24 23 24 24 24 24 24 24 24 24 24 24 24 24 24
22 23 24 27 28 29 28 27 24 23 23 22 23 23 23 23 23 23 22 21 21 22 22 22 22 23 24 24 24 24 24 24 24 24 24 24 24 23 24 24 24 24 24 24 24 24 23 24 24
22 23 25 26 29 28 27 27 24 23 23 23 23 23 23 23 23 23 23 22 22 22 23 23 23 24 24 23 24 24 24 24 24 25 25 25 24 24 23 24 24 24 24 24 24 24 24 24 24
24 25 25 27 29 28 27 27 24 24 23 23 23 23 23 23 24 24 23 23 22 22 22 23 23 24 23 23 22 23 23 24 24 25 25 25 24 24 23 24 24 24 24 24 24 24 24 24 24
23 24 24 26 29 27 27 27 24 24 24 23 23 23 23 24 24 24 24 23 23 22 23 22 23 24 24 24 23 23 24 24 25 25 25 25 24 24 23 23 24 25 24 24 24 24 24 23 23
22 22 24 26 28 29 27 26 24 24 24 24 24 24 24 24 24 24 24 24 24 22 23 23 24 24 24 24 24 23 23 23 24 24 25 25 24 24 24 23 24 24 24 24 24 24 24 24 23
19 23 25 25 26 25 27 25 24 24 24 24 24 24 24 24 25 25 24 24 24 24 23 24 24 24 25 25 24 23 23 23 24 25 25 25 25 25 24 24 23 24 24 24 24 24 24 24 24
23 24 24 25 24 25 27 25 25 24 23 24 24 24 24 25 25 25 25 24 24 24 23 23 24 24 24 25 25 24 23 24 24 25 25 25 25 25 25 24 24 24 24 24 24 24 24 24 24
25 25 23 24 22 23 25 26 24 23 25 25 25 25 25 25 25 25 25 25 25 25 24 23 23 24 24 24 24 24 24 24 24 24 25 25 25 25 25 25 24 24 23 24 24 23 23 24 24
24 23 19 20 20 23 25 26 25 25 27 27 26 26 26 25 26 26 25 25 25 25 24 23 23 23 23 23 24 24 24 24 24 25 25 25 25 25 25 25 24 24 24 24 24 23 23 24 23
23 22 19 19 20 24 23 23 25 29 28 28 28 28 27 27 26 26 26 26 25 25 25 23 23 23 23 23 23 24 24 24 24 25 25 25 25 25 25 25 25 24 24 24 23 23 24 23 23
23 23 22 21 20 20 26 24 27 27 29 27 28 28 28 27 27 27 27 27 26 26 25 24 23 23 23 23 23 23 23 23 24 25 25 25 25 25 25 25 25 25 24 24 24 23 24 23 23
24 24 22 19 22 21 22 23 27 25 25 27 27 28 28 28 27 27 27 27 27 26 25 24 24 23 23 23 23 23 23 24 24 25 25 25 25 25 25 25 25 25 25 24 24 24 24 23 23
23 24 24 23 20 23 21 23 25 25 27 26 28 27 28 28 28 27 28 28 27 27 26 24 24 23 23 22 22 22 23 23 24 24 25 25 25 25 25 25 25 25 25 25 24 24 24 24 24
16 22 22 24 22 19 20 25 27 26 26 27 28 27 28 28 29 28 29 28 28 27 26 25 24 23 23 23 23 23 23 23 23 23 24 25 25 25 25 25 25 25 25 25 24 24 24 24 24

GFSSGP_925_temp_045.txt.gz
Temp
20 20 20 21 23 23 25 27 26 26 26 26 28 27 27 26 26 25 21 21 21 21 21 21 21 21 21 21 21 21 22 22 21 21 21 21 21 21 21 21 21 21 21 20 21 20 20 20 20
20 19 20 21 23 25 27 27 27 26 27 28 28 26 25 24 23 20 21 21 21 21 21 22 21 21 21 21 21 21 21 21 21 21 21 21 20 21 22 21 20 20 20 20 20 20 20 20 21
20 20 21 22 23 25 27 25 25 27 27 28 26 26 24 22 22 22 22 21 21 21 21 21 21 21 21 21 21 21 21 21 21 21 21 21 21 20 20 20 20 20 20 20 20 20 21 21 21
20 21 21 23 26 26 26 24 24 26 24 25 25 24 23 22 22 21 21 21 22 21 22 21 21 21 21 21 21 21 21 21 21 21 21 21 21 21 21 21 21 20 20 20 20 20 20 21 21
22 23 23 26 27 27 27 26 25 26 25 23 25 22 21 21 20 21 21 22 22 22 22 21 21 21 21 21 21 21 21 21 20 21 21 21 21 21 21 21 21 21 20 20 20 21 21 21 21
23 23 24 26 27 27 27 27 27 27 24 24 23 22 21 20 20 21 21 22 22 22 22 21 21 21 21 21 21 21 21 21 21 21 21 22 21 21 21 21 21 21 20 21 21 22 22 22 22
24 24 26 26 26 26 27 27 27 26 25 25 24 23 20 20 20 21 22 22 22 22 22 22 22 21 21 21 21 21 21 21 21 22 22 21 21 21 21 21 21 21 21 21 22 22 22 22 22
23 25 26 26 27 27 27 26 24 25 26 25 26 23 21 21 20 21 21 22 22 22 22 22 22 22 21 21 21 21 21 21 21 21 21 21 21 21 21 21 21 21 21 22 22 22 22 22 22
25 25 26 27 27 28 26 27 26 27 25 27 25 25 23 20 20 21 21 22 22 22 22 22 22 21 21 21 21 21 21 21 21 21 21 21 21 21 22 22 21 21 21 22 22 22 22 22 22
25 25 27 29 29 29 26 28 27 26 27 24 24 25 22 20 20 21 21 22 22 22 22 22 21 21 21 22 21 21 22 22 22 21 21 21 22 21 22 22 21 22 22 23 22 23 23 23 23
26 26 27 29 29 29 27 28 28 27 27 26 24 23 21 21 22 22 22 22 23 22 22 21 21 21 21 21 21 21 21 21 21 22 22 22 22 22 22 22 22 22 22 22 22 22 23 22 23
26 27 27 28 29 29 28 28 28 28 29 28 25 24 22 23 23 23 23 22 22 21 21 21 21 20 21 21 21 21 21 21 21 21 22 22 22 23 22 22 22 22 22 23 23 22 23 23 23
26 27 28 28 29 29 30 29 29 28 28 27 25 23 23 24 23 23 23 23 22 21 21 21 21 20 20 20 21 21 21 21 21 22 22 23 23 23 23 23 22 22 23 23 23 23 23 23 23
28 27 28 29 29 30 29 30 29 28 26 25 24 23 24 24 23 23 23 23 22 22 22 21 21 20 20 21 21 21 21 21 21 22 23 23 23 23 23 23 23 23 23 23 23 24 23 23 23
27 27 28 29 30 29 30 30 29 27 26 25 24 24 24 24 24 23 23 23 22 22 22 21 21 20 20 21 22 21 21 22 22 22 23 23 23 23 23 23 23 23 23 23 24 24 24 23 23
27 28 26 29 29 30 31 30 30 27 26 25 24 24 24 24 24 23 23 23 22 22 21 21 22 21 21 21 23 22 22 22 22 22 23 23 23 23 24 24 23 23 23 23 23 23 24 24 24
26 29 27 30 30 31 31 31 29 27 27 25 25 24 24 24 24 24 23 23 23 22 21 21 21 21 21 22 22 23 23 23 22 23 23 24 23 23 24 24 24 24 23 22 23 24 23 24 24
27 28 28 30 31 31 31 31 28 27 27 26 25 25 25 25 25 24 24 23 23 22 21 21 21 21 21 21 22 22 22 23 23 23 24 24 24 24 24 24 24 24 23 23 23 24 24 23 23
27 27 29 29 31 31 32 32 29 27 26 26 25 25 25 25 25 24 24 24 23 22 22 21 21 21 21 21 22 22 23 22 23 24 25 25 24 24 24 24 24 24 23 24 23 23 22 22 22
26 26 27 29 29 31 31 31 32 27 27 26 26 26 26 26 26 25 24 24 24 23 22 21 21 21 22 21 22 22 23 23 23 24 25 25 25 24 24 23 24 24 23 24 24 24 23 22 22
25 26 27 27 29 30 31 31 31 28 28 27 27 27 27 27 26 26 25 25 24 23 22 22 21 21 22 22 21 22 22 23 23 23 24 25 25 24 24 23 24 24 24 24 24 23 24 24 22
25 26 26 27 27 29 31 30 31 31 28 27 27 27 27 27 27 27 26 25 25 24 23 22 22 21 22 22 22 22 24 24 24 24 24 25 25 25 24 24 24 23 23 24 23 24 24 24 24
25 26 26 27 27 27 29 29 32 30 29 28 28 28 28 27 27 27 26 25 25 24 23 23 22 22 22 22 22 23 23 24 23 23 24 25 25 25 24 24 24 24 23 23 24 24 23 24 24
26 26 26 27 27 26 27 28 30 31 30 30 30 29 28 28 28 27 26 26 25 25 24 23 22 22 22 22 22 23 23 23 23 23 24 24 24 24 24 24 24 24 23 23 23 24 23 23 23
26 25 25 25 25 26 30 28 29 32 31 32 31 29 29 28 28 28 27 26 25 25 24 23 22 22 22 22 22 22 23 23 23 23 24 24 24 24 24 25 24 23 24 24 23 23 23 23 23
25 26 25 24 26 28 29 28 29 32 32 32 33 32 30 29 29 28 28 27 26 25 25 24 23 23 22 22 22 23 23 23 24 23 24 24 24 24 24 25 25 25 24 24 24 22 22 22 22
26 25 28 27 25 27 30 29 30 31 32 33 32 32 30 29 29 29 28 27 26 26 25 24 23 23 22 23 22 22 23 23 23 24 24 23 23 24 23 25 25 25 25 24 24 23 22 23 22
23 27 25 26 24 25 28 29 30 31 31 32 33 32 31 31 30 30 29 28 27 26 26 25 24 23 23 23 22 22 22 23 23 23 23 24 24 25 24 25 25 25 25 24 23 23 22 22 23
25 24 26 27 27 27 27 29 31 31 32 32 32 33 33 32 31 30 30 29 28 27 26 25 25 24 23 23 23 23 22 23 22 22 23 23 25 26 25 25 25 25 25 24 23 23 23 22 22
19 18 25 26 25 27 27 29 31 32 33 34 34 33 33 32 32 31 31 29 29 28 27 26 26 25 24 24 23 23 23 23 22 22 22 22 24 26 25 25 25 25 25 24 23 23 23 23 23

GFSSGP_925_temp_048.txt.gz
Temp
20 22 24 25 25 28 29 30 31 29 30 30 32 31 31 31 30 26 25 24 22 23 23 22 21 22 21 21 21 21 21 21 21 21 21 21 21 21 22 22 21 21 21 21 21 20 20 20 20
22 23 23 25 24 26 31 31 29 31 31 31 30 29 31 27 27 26 26 24 24 25 25 23 21 21 21 21 21 21 21 21 21 21 21 21 21 21 21 21 21 20 21 21 21 20 20 20 20
22 21 23 22 25 27 29 30 30 30 31 31 29 30 29 25 26 26 25 25 25 25 25 22 21 21 21 21 21 21 21 21 21 21 21 21 21 21 21 20 21 20 21 20 20 20 20 21 21
22 24 21 24 27 29 29 29 26 29 28 28 30 28 27 25 26 27 25 25 26 25 26 21 21 21 21 21 21 21 21 21 21 21 21 21 21 21 21 21 21 20 21 21 20 21 21 21 21
25 24 23 26 28 30 29 27 29 28 27 27 27 27 22 24 25 25 25 26 26 26 25 22 21 21 21 21 21 21 21 21 21 21 21 21 21 21 21 21 21 21 21 21 21 21 21 22 22
24 23 27 28 28 31 31 30 28 28 25 25 28 25 22 23 24 25 26 26 26 27 25 23 21 21 21 21 21 21 21 21 21 22 21 21 22 21 21 21 21 21 21 21 22 22 22 22 22
26 29 30 32 29 28 30 30 29 27 27 27 27 27 23 24 25 25 26 26 27 27 26 24 23 21 21 21 21 21 21 21 22 21 22 22 21 21 21 21 21 21 21 21 22 22 22 22 22
28 30 30 31 30 30 31 29 25 26 29 28 28 28 23 24 24 25 26 26 26 27 26 25 25 24 23 22 21 21 21 21 21 21 22 22 21 22 22 22 21 21 21 21 22 22 22 22 22
28 29 30 32 32 31 30 28 27 27 27 29 29 29 28 23 24 25 26 27 26 26 26 25 25 24 23 23 22 21 21 21 21 22 22 22 24 24 24 22 21 22 22 22 22 22 22 23 22
29 31 32 33 33 33 31 28 30 30 30 28 28 28 24 23 24 25 27 27 26 26 26 26 25 24 23 25 23 23 23 24 25 24 23 24 24 24 24 23 22 23 23 23 23 23 23 23 24
31 31 32 33 33 33 31 30 32 32 30 30 28 25 24 24 25 26 27 27 27 26 27 26 25 24 24 24 24 24 25 24 24 23 23 23 24 24 25 24 24 24 24 25 25 24 25 25 26
30 31 32 32 32 32 32 33 32 30 32 32 30 27 26 26 27 27 28 27 27 26 26 25 24 24 25 24 25 25 25 25 24 24 22 23 25 24 25 25 24 24 25 25 25 25 24 25 25
30 32 31 30 32 33 31 31 30 31 32 32 30 28 27 28 27 27 27 27 27 26 26 25 24 23 24 24 25 25 25 25 25 23 23 24 25 24 25 24 25 25 25 25 25 25 25 24 25
33 32 31 31 33 33 31 33 32 33 32 31 29 28 28 28 28 27 27 27 26 26 26 25 24 23 23 24 24 24 25 25 25 25 24 23 24 23 24 24 24 24 25 25 25 25 26 26 25
32 31 32 32 31 33 34 33 33 32 31 30 29 28 29 29 28 27 27 27 26 26 25 25 24 23 23 23 23 24 24 25 25 25 23 23 23 23 23 24 23 24 24 24 24 25 25 26 26
31 32 32 34 33 34 33 33 34 32 31 30 29 29 28 29 28 27 27 27 26 26 25 25 25 24 23 23 23 24 25 25 25 25 24 23 23 23 23 23 24 24 25 25 26 27 25 25 26
32 32 32 34 34 34 34 35 33 32 32 31 30 29 29 29 28 27 27 27 26 26 25 25 25 25 24 23 23 24 24 24 25 25 25 23 23 23 24 25 24 23 24 25 26 26 25 26 27
32 32 34 33 34 34 34 35 33 32 33 31 30 29 29 29 29 27 27 27 27 26 25 24 24 24 24 23 23 24 25 24 25 25 25 24 24 23 24 25 23 24 24 24 26 25 25 27 27
31 33 33 34 35 33 34 35 35 32 33 31 31 30 29 29 29 28 27 27 27 26 25 24 24 24 23 24 24 25 25 25 25 25 24 24 24 24 23 24 24 23 25 25 24 25 24 26 26
30 30 32 34 34 34 35 35 36 34 33 32 31 30 30 30 30 28 27 27 27 26 25 24 24 24 23 24 25 26 26 26 26 26 25 24 24 24 24 24 24 24 24 24 24 24 26 26 26
29 30 31 32 32 33 34 34 35 36 34 33 32 32 31 31 30 29 28 28 27 27 25 25 24 23 23 24 24 24 25 25 25 25 25 25 24 24 24 24 24 23 24 25 24 24 25 27 26
29 31 30 31 31 31 34 33 35 36 34 33 33 32 32 31 31 30 29 28 28 27 26 25 24 23 23 23 25 24 26 26 27 27 27 26 24 24 24 24 24 23 24 24 24 24 25 25 27
29 31 30 30 30 31 32 32 35 36 35 34 34 34 33 32 31 31 30 28 28 27 26 25 24 23 24 23 25 24 25 27 27 27 26 26 24 24 25 24 24 24 24 24 24 24 24 26 27
29 29 29 30 30 30 32 33 34 36 36 36 35 35 34 33 32 32 30 29 28 28 27 26 24 23 23 23 23 24 25 27 27 26 26 26 26 25 24 24 24 24 24 24 24 24 24 25 25
29 29 28 28 29 30 33 32 33 36 37 37 37 36 35 34 33 32 31 30 29 28 27 27 25 24 23 24 23 24 24 25 26 25 26 27 27 27 26 24 24 24 24 24 24 23 23 24 25
28 29 30 28 31 32 33 32 34 35 36 37 37 38 36 35 34 33 32 30 29 28 27 27 26 24 24 24 24 23 24 25 25 25 27 27 27 27 27 25 25 24 24 24 24 24 24 25 24
28 28 31 31 32 33 34 33 35 36 35 36 36 37 37 35 35 33 33 31 30 29 28 27 26 25 25 25 24 24 24 24 26 26 26 26 26 27 26 25 25 25 25 24 24 25 24 25 24
26 31 29 29 27 29 32 33 33 34 34 35 36 36 37 36 35 34 33 32 30 29 28 27 26 25 25 25 25 25 25 24 25 25 25 26 26 25 26 25 25 25 25 24 24 25 25 24 25
27 26 27 30 30 29 30 32 35 35 35 34 36 37 37 36 35 35 34 33 31 30 29 28 27 26 26 26 25 25 25 25 25 25 25 25 25 25 25 25 25 25 25 25 24 25 26 25 25
24 24 27 28 27 30 31 33 36 35 35 36 36 37 38 38 36 36 35 33 32 31 30 29 28 27 26 26 25 25 26 25 26 25 25 25 24 25 25 25 25 25 25 25 25 24 26 25 25

GFSSGP_925_temp_051.txt.gz
Temp
21 23 26 28 25 29 32 31 33 33 33 35 35 33 31 30 28 26 26 24 22 23 22 22 21 21 21 21 22 22 21 21 21 21 21 21 21 21 21 21 21 21 21 21 21 21 21 21 20
26 27 26 24 26 28 31 31 31 32 33 34 33 33 31 29 31 29 27 25 23 25 25 23 21 21 21 22 21 21 21 21 21 22 21 21 21 21 21 21 21 21 21 21 21 21 20 21 21
26 24 22 24 28 30 29 30 32 33 34 32 32 33 31 29 31 29 26 24 27 27 27 22 22 21 21 21 21 21 21 21 22 21 21 21 21 21 21 21 21 21 21 21 21 21 21 21 20
25 25 23 24 28 31 32 31 32 32 32 33 33 28 28 29 29 28 26 27 29 28 26 22 21 21 21 21 21 21 21 21 21 21 21 21 21 22 21 21 21 21 21 21 21 21 21 21 20
27 26 26 26 29 30 32 31 31 29 31 32 32 28 27 28 28 28 28 29 29 29 25 23 21 21 21 21 21 21 21 21 21 21 21 21 21 21 21 21 21 21 21 21 21 21 21 21 21
25 28 28 30 30 31 30 31 29 24 25 30 31 26 24 27 28 28 29 29 30 28 26 23 21 21 21 21 21 21 21 21 21 21 21 21 21 21 21 21 21 21 21 21 21 21 21 21 21
26 28 30 31 31 32 30 32 28 24 26 29 28 27 26 27 27 28 29 29 29 29 27 24 23 22 21 21 21 21 21 21 21 21 21 22 21 21 21 21 21 21 21 21 21 21 21 22 22
29 31 31 34 30 29 32 31 28 27 27 29 29 28 25 27 27 28 29 30 30 29 27 26 25 24 24 22 21 21 21 21 21 21 22 22 22 22 22 23 21 21 21 21 21 21 22 22 22
32 30 31 33 32 33 33 30 29 28 28 30 31 32 29 27 27 28 29 30 29 29 28 28 27 25 24 24 21 21 21 21 22 23 23 24 25 24 23 23 21 22 22 23 23 23 22 23 24
31 33 32 33 36 31 34 33 31 29 31 32 32 32 28 27 27 28 29 30 30 29 29 29 28 26 24 26 23 24 23 24 25 25 24 24 26 25 25 23 24 24 24 24 24 23 22 22 24
34 33 35 35 36 36 34 32 33 31 32 33 31 29 27 26 27 29 30 30 30 30 30 29 27 26 25 26 25 26 25 26 25 25 24 25 25 25 25 25 25 25 23 24 25 24 24 21 25
34 35 35 33 36 34 30 30 33 33 25 34 31 29 27 28 29 29 31 30 30 30 29 29 27 25 25 26 25 26 26 27 27 26 25 25 25 26 25 25 26 25 25 26 25 26 26 25 25
34 35 34 34 35 34 34 31 32 32 35 34 31 29 29 30 29 30 31 30 30 30 29 29 27 25 25 26 27 28 28 28 27 25 25 25 25 25 25 26 24 25 26 26 26 27 26 26 27
36 35 34 34 33 33 33 32 33 32 35 33 30 29 30 31 31 31 31 30 30 29 29 28 27 26 25 26 27 27 27 27 27 27 25 25 24 25 25 25 25 25 24 25 25 26 27 27 27
35 34 35 34 35 30 32 30 31 35 35 33 31 31 31 31 31 31 31 30 30 29 29 27 26 26 25 25 26 25 26 28 27 27 24 25 24 24 25 25 26 24 25 25 26 26 26 27 26
34 34 34 36 35 34 35 33 36 36 35 33 32 31 31 31 31 31 30 30 30 29 28 27 27 26 25 25 25 26 27 27 26 26 25 25 24 24 24 26 26 26 26 24 27 26 27 27 27
34 34 34 36 36 35 36 31 24 36 35 33 33 32 32 32 31 30 30 30 29 28 27 27 27 26 25 25 25 26 27 26 26 26 26 25 25 25 23 25 25 25 26 26 27 26 27 27 27
34 34 37 36 37 37 36 32 27 36 36 34 33 32 32 32 32 30 30 30 29 28 27 27 27 26 25 25 25 26 26 27 27 27 26 25 26 25 25 25 24 25 26 25 25 27 25 27 27
36 37 36 38 38 36 35 32 25 36 36 34 33 33 32 32 32 31 30 30 29 28 27 26 26 26 25 25 25 27 27 27 27 27 26 25 26 25 25 25 24 25 26 25 26 26 26 28 27
34 34 36 38 38 36 35 34 35 36 36 35 34 33 33 33 32 31 30 30 30 28 27 26 26 25 25 25 26 27 28 28 28 28 26 26 26 25 26 25 25 24 25 25 25 26 27 28 27
33 33 35 35 36 36 34 33 35 35 37 36 36 35 34 33 33 32 30 30 30 29 27 26 25 25 24 26 26 26 27 28 27 28 27 26 26 25 26 25 25 25 25 25 25 25 26 27 28
32 34 34 35 34 34 35 32 33 35 36 36 36 35 35 34 33 32 31 30 30 29 28 26 25 25 24 25 26 26 27 28 28 28 28 27 26 26 26 25 25 24 26 25 26 25 27 26 28
32 34 34 34 34 34 35 34 35 37 31 36 36 36 36 35 34 33 32 30 30 30 28 27 25 25 25 24 26 26 26 28 28 29 28 28 26 26 26 25 25 25 25 25 25 25 25 27 27
33 33 33 33 34 32 34 35 36 36 36 36 38 37 36 35 35 34 32 31 30 30 29 28 26 24 24 24 24 26 26 28 29 28 28 28 27 26 26 26 25 25 25 25 25 25 25 25 27
31 31 30 30 31 31 35 35 36 39 37 38 39 38 37 36 35 34 33 32 31 30 29 28 26 25 24 24 24 25 26 26 27 28 28 28 29 29 27 26 25 25 25 25 25 24 25 25 26
31 31 32 30 32 34 35 35 36 38 40 30 32 37 38 37 36 35 34 32 31 31 30 29 27 25 24 24 24 24 25 26 26 27 28 28 29 29 27 25 26 25 25 25 25 25 25 26 25
31 31 33 33 35 35 37 36 38 39 38 39 38 38 36 38 37 36 35 33 32 31 30 29 28 26 25 25 24 24 24 25 27 27 27 28 28 29 28 27 26 26 26 26 26 26 25 26 25
28 32 31 31 30 31 35 36 36 37 37 38 38 38 38 38 38 38 36 34 33 31 30 29 28 27 26 26 25 25 25 24 26 27 27 27 28 28 28 27 27 26 26 26 25 26 26 26 26
29 28 29 31 32 31 32 35 39 38 37 37 38 38 39 39 39 38 37 35 33 32 31 30 29 28 26 26 26 26 25 25 25 26 26 26 27 27 27 27 26 26 26 26 25 26 27 26 26
30 29 30 29 29 32 33 34 39 39 38 38 38 38 39 39 39 38 38 36 35 33 32 31 30 29 27 27 26 26 26 26 26 25 26 26 26 26 26 26 26 26 26 26 25 25 27 26 26

GFSSGP_925_temp_054.txt.gz
Temp
23 22 24 25 24 27 29 29 28 32 33 31 34 32 30 31 30 26 23 23 23 23 22 21 21 21 22 22 22 22 21 21 21 21 21 21 21 21 21 21 21 21 21 21 21 21 21 20 20
25 26 26 26 25 27 30 32 31 31 33 34 34 33 31 30 29 26 24 23 24 24 23 22 21 21 21 21 22 21 21 21 21 21 21 21 21 21 21 21 21 21 21 21 21 21 21 20 20
25 27 23 24 28 29 29 28 32 29 34 33 31 29 30 28 28 27 24 24 24 25 24 22 22 21 21 21 21 21 21 21 21 21 21 21 21 21 21 21 21 21 21 21 21 21 21 21 20
27 27 25 25 29 29 30 27 25 32 33 33 32 29 30 29 29 27 26 26 27 26 23 22 21 21 21 21 21 21 21 21 21 21 21 21 21 21 21 21 21 21 21 21 21 21 21 20 21
28 25 26 27 28 25 31 26 30 31 31 31 31 28 27 28 28 27 26 27 29 25 23 22 22 22 21 21 21 21 21 21 21 21 21 21 21 21 21 21 21 21 21 21 21 21 21 21 22
25 27 27 26 28 28 30 32 30 26 25 28 29 28 26 28 28 28 28 28 27 25 24 22 21 21 21 21 21 21 21 21 21 21 21 21 21 21 21 21 21 21 21 21 21 21 21 21 23
28 26 28 26 28 29 28 28 29 25 24 27 26 26 27 28 28 29 30 28 28 27 24 22 22 21 21 21 21 21 21 21 21 21 21 21 21 21 21 21 21 21 21 21 21 21 22 23 23
30 27 29 27 29 29 29 28 27 26 25 26 28 26 26 28 28 29 30 28 28 27 25 24 23 23 22 21 21 21 21 21 22 22 22 23 22 22 22 22 21 21 21 21 21 21 23 24 24
33 28 29 28 31 25 28 29 28 30 27 28 29 30 29 28 29 29 30 29 28 27 27 26 25 24 23 22 21 21 21 22 22 22 24 23 23 23 22 23 23 23 22 22 22 22 22 22 24
31 30 31 30 31 31 28 32 31 30 30 30 31 30 29 28 29 30 30 29 29 29 28 28 26 24 24 24 22 22 22 22 24 23 24 23 24 25 24 24 24 24 22 23 23 24 24 22 23
33 31 33 31 33 31 32 34 33 30 31 32 29 29 29 28 29 30 30 29 30 30 30 28 25 26 25 24 23 23 23 24 25 24 25 24 25 25 25 24 23 24 23 23 22 23 22 21 23
34 35 36 35 33 34 28 27 30 24 24 26 31 29 29 29 30 30 31 30 31 30 29 27 26 26 25 25 25 24 25 25 26 25 25 25 25 25 25 25 23 25 25 24 24 22 24 22 25
35 36 36 36 32 34 31 27 25 26 28 29 31 29 28 29 29 30 31 31 31 30 29 27 25 26 25 25 26 25 26 27 26 25 25 25 24 25 25 25 26 25 24 26 26 26 25 23 25
36 36 36 36 36 34 33 26 27 28 29 32 30 28 28 30 30 30 32 31 31 30 28 27 26 25 24 26 25 26 27 27 27 26 25 24 24 25 26 25 25 25 26 26 26 26 26 25 26
36 35 36 36 35 34 35 32 32 30 28 31 30 29 30 30 30 31 32 31 31 30 29 27 26 26 25 26 26 27 27 27 27 26 26 24 25 25 25 25 24 25 25 25 26 27 27 27 26
34 35 34 37 35 35 34 31 33 27 23 30 30 31 30 30 31 32 32 31 31 30 28 27 28 26 25 26 26 26 26 26 27 25 25 25 25 24 25 25 25 25 26 26 26 26 27 26 27
34 33 34 35 37 36 35 33 29 24 22 31 31 31 31 30 32 32 32 31 30 29 27 27 28 26 26 25 26 25 26 26 26 26 26 25 25 24 24 25 25 26 25 24 25 26 27 26 27
33 34 35 36 37 37 35 31 28 25 23 33 32 32 32 30 31 32 32 31 30 29 28 27 27 26 26 25 26 26 27 26 25 26 26 25 25 24 24 24 24 25 25 26 25 26 27 26 27
35 35 36 37 39 37 34 27 28 27 26 31 33 33 32 31 32 32 32 31 30 29 28 27 27 26 25 25 25 26 26 26 26 26 26 25 25 25 24 24 25 25 24 26 26 27 27 27 27
34 34 36 38 39 39 32 27 27 27 26 29 34 33 33 33 32 32 32 31 30 28 27 27 27 25 25 25 25 26 27 27 27 26 26 26 26 25 25 25 25 25 25 25 26 25 26 27 27
34 34 35 36 38 39 38 27 25 27 29 24 35 34 34 33 33 32 32 31 31 28 27 26 26 25 25 25 26 26 27 28 27 26 26 26 26 26 25 25 25 25 24 25 25 25 26 26 27
33 35 35 35 36 35 37 34 27 28 28 22 23 35 34 34 34 32 32 31 31 29 27 26 26 25 25 25 26 26 27 27 28 27 27 27 26 26 25 25 25 25 25 25 25 26 26 27 27
33 35 35 34 34 35 36 35 36 32 27 22 24 35 35 34 34 33 32 31 31 29 27 26 26 25 25 25 26 26 26 27 28 28 27 26 26 26 26 25 25 25 25 25 25 25 26 26 27
35 34 34 34 34 33 34 35 35 36 30 26 24 28 32 35 34 33 32 31 31 30 28 27 25 25 25 25 25 26 26 27 28 28 27 26 26 26 26 25 25 25 25 25 25 25 25 26 26
33 32 30 30 31 32 35 34 35 38 36 28 27 23 25 36 35 34 32 31 31 30 29 27 25 24 24 24 25 25 26 27 27 28 28 27 27 26 26 25 25 24 25 24 25 25 25 25 25
32 32 31 29 31 32 35 33 35 38 39 34 29 27 27 36 36 35 33 32 31 31 30 28 26 24 24 24 24 24 26 26 26 27 28 28 28 28 27 26 26 25 25 25 24 24 25 25 25
31 32 33 32 34 33 35 36 37 39 39 38 31 32 26 28 34 35 34 33 31 31 30 29 27 25 25 24 24 24 25 26 26 27 28 28 28 28 28 27 26 26 25 25 25 25 25 25 25
31 32 31 32 29 30 33 35 36 37 38 38 32 30 28 26 23 31 35 33 32 31 30 29 28 25 25 24 24 24 24 25 26 27 27 27 28 28 27 26 26 26 26 25 25 25 26 25 25
29 29 29 30 31 31 31 33 38 38 38 38 32 30 32 30 26 24 22 34 33 31 31 30 29 26 25 25 25 25 24 25 25 26 27 27 28 27 28 27 26 26 26 26 25 26 26 26 26
29 29 30 29 28 30 31 33 38 38 39 39 39 39 33 32 26 23 21 22 34 32 32 31 30 28 26 25 25 25 25 24 25 26 26 27 27 27 27 27 26 26 26 26 25 25 26 26 26

GFSSGP_925_temp_057.txt.gz
Temp
23 23 23 24 23 23 25 27 26 29 31 31 32 31 29 29 28 24 21 22 22 22 22 21 21 21 21 21 21 21 21 21 21 21 21 21 21 21 21 21 21 20 20 21 21 21 20 20 20
24 22 24 23 23 25 26 25 26 27 31 32 30 30 29 25 25 22 22 22 22 22 22 21 21 22 21 21 21 21 21 21 21 21 21 21 21 21 20 21 21 21 20 21 21 21 20 20 20
23 25 24 23 24 25 27 24 24 26 32 31 29 29 29 24 23 23 22 23 23 23 22 22 22 22 22 21 22 21 21 22 21 21 21 21 21 21 21 21 21 20 21 21 21 21 20 20 21
23 24 23 23 25 28 27 26 27 24 29 30 29 27 27 26 25 23 23 24 23 23 22 22 21 22 21 21 21 21 21 21 21 21 21 21 21 21 21 21 21 21 21 21 21 21 21 21 22
25 24 23 24 26 25 26 26 26 25 25 28 28 26 26 26 26 24 24 24 23 23 23 21 22 21 21 21 21 21 21 21 21 21 21 21 21 21 21 21 21 21 21 21 21 21 21 22 22
24 25 24 24 26 28 25 25 28 26 27 28 27 26 25 26 24 25 25 24 24 23 22 21 22 21 21 21 22 21 21 21 21 21 21 21 21 21 21 21 21 21 21 21 21 21 23 23 23
24 25 25 26 26 28 26 24 28 26 27 28 27 25 26 26 26 25 26 24 23 22 22 22 21 21 21 21 22 21 21 21 21 21 22 21 21 21 21 21 21 21 21 21 22 22 23 24 23
26 26 27 27 27 27 28 28 25 26 25 26 28 25 25 27 27 26 26 25 23 22 22 22 21 21 21 21 21 21 21 21 21 22 21 22 21 21 21 22 21 21 21 22 23 23 22 23 23
28 27 26 28 28 25 26 27 27 28 25 27 28 27 27 27 28 27 26 25 24 23 22 22 22 22 22 21 21 21 21 21 21 22 23 22 22 22 22 22 22 21 21 21 23 24 24 23 23
29 27 28 31 30 27 24 26 28 28 27 27 28 28 28 28 28 27 27 25 25 24 24 23 23 22 23 22 22 22 22 23 23 23 22 22 23 23 23 23 22 22 22 22 23 24 24 24 23
30 28 30 31 31 30 24 23 30 29 28 28 27 27 28 28 29 28 27 27 26 25 24 24 24 24 23 24 23 23 23 23 23 23 23 23 23 24 24 24 23 23 23 24 23 24 25 25 25
29 31 32 33 30 26 24 23 25 26 24 25 27 28 28 27 28 28 28 28 27 26 26 25 25 24 24 24 24 23 23 23 24 24 24 24 24 24 24 24 24 23 23 24 24 24 26 24 24
31 32 34 34 29 27 25 27 26 25 24 25 28 28 28 28 28 28 29 29 28 26 25 25 25 25 25 24 24 24 24 24 25 25 25 24 25 25 24 24 24 24 23 24 23 24 25 25 24
33 33 34 35 31 28 28 27 27 26 26 24 28 27 28 28 28 29 29 29 27 25 25 26 26 26 25 24 25 25 25 24 25 25 26 25 25 24 24 24 24 25 25 24 24 24 23 25 25
32 32 33 34 33 30 28 25 26 27 27 27 27 28 28 28 29 29 29 29 28 25 26 26 26 27 25 24 26 25 25 25 26 25 25 25 24 24 24 25 25 25 25 25 26 24 24 25 25
31 31 29 33 33 34 32 26 25 24 25 28 27 27 28 28 28 29 29 29 26 25 26 26 26 26 25 25 25 25 26 25 25 25 25 24 24 24 24 25 25 25 25 25 26 26 26 25 26
28 27 30 31 34 34 31 26 24 24 25 27 27 27 28 28 28 29 30 30 27 26 26 26 26 25 25 25 26 26 26 26 25 26 25 25 25 25 25 24 24 25 26 26 26 26 26 26 26
26 28 29 31 33 33 31 25 24 24 25 27 28 28 28 28 28 29 30 30 27 27 27 26 26 26 25 25 26 26 26 26 26 25 25 25 25 25 24 25 24 25 25 25 25 26 26 26 27
30 30 30 32 34 33 31 26 24 23 25 25 24 27 28 28 29 30 30 29 27 27 27 27 26 26 26 25 25 25 25 26 26 25 25 25 25 25 25 25 24 25 25 25 26 26 26 26 26
29 30 30 32 34 33 29 28 26 25 25 24 22 27 28 29 29 30 30 28 26 26 27 27 27 26 25 25 25 25 26 26 26 26 26 25 25 25 25 25 24 25 25 25 25 25 26 26 27
30 28 30 30 33 31 28 26 26 27 27 24 23 24 27 29 29 30 29 28 27 26 27 27 26 26 25 25 26 25 26 26 26 25 25 25 25 25 25 25 25 25 25 25 25 26 26 26 27
27 31 32 33 30 28 29 25 25 25 25 25 23 22 23 28 30 29 29 28 27 26 26 27 26 25 25 26 25 25 26 26 26 26 25 25 26 26 25 25 25 25 25 25 25 25 26 26 26
30 31 31 31 30 29 30 29 25 27 23 24 24 23 24 23 30 30 30 30 27 26 26 26 26 25 25 25 26 25 26 27 27 26 25 26 26 26 25 25 24 25 25 25 25 25 25 25 25
32 31 29 29 27 26 29 29 29 26 25 23 24 24 25 25 30 30 30 30 28 26 26 25 25 25 25 25 25 26 26 27 27 27 26 26 26 26 25 25 25 25 24 25 25 25 25 26 26
30 28 24 24 25 26 29 28 28 28 28 25 25 24 26 28 30 30 29 30 28 26 25 25 25 24 25 25 25 25 26 26 27 27 27 26 26 26 26 25 25 25 25 24 25 25 25 25 26
28 27 23 24 24 27 29 27 28 33 30 27 27 26 26 27 24 30 30 30 29 27 25 25 24 24 24 25 25 25 26 26 27 26 26 27 26 26 26 26 25 25 25 24 24 25 25 25 25
28 26 28 26 27 25 28 30 31 32 31 28 28 28 26 25 24 23 30 30 30 28 26 25 24 24 23 24 25 25 25 26 26 27 27 27 27 27 26 26 26 25 25 25 24 25 25 25 25
27 29 24 25 24 24 26 27 28 31 32 29 28 27 26 25 24 23 22 26 29 29 27 26 24 24 23 23 24 24 25 25 26 27 27 27 28 28 27 26 26 25 25 25 25 25 25 25 25
27 25 26 24 24 24 24 26 30 31 30 29 28 28 27 26 24 21 23 24 23 29 29 27 25 24 23 23 23 23 24 25 25 26 27 27 27 27 28 26 26 25 25 25 25 25 25 25 25
26 26 25 22 23 24 24 26 30 29 28 30 30 30 27 25 24 23 24 23 22 26 30 28 26 24 24 23 24 23 23 24 24 25 27 27 27 27 26 27 26 26 25 25 25 25 25 25 25

GFSSGP_925_temp_060.txt.gz
Temp
21 23 22 22 22 23 24 26 25 25 29 31 31 30 27 25 26 24 20 22 22 22 22 21 21 21 22 22 21 21 21 21 21 21 21 21 21 21 21 20 20 21 21 20 20 20 20 20 21
23 22 22 22 23 24 25 25 24 27 30 30 30 29 26 24 23 20 20 22 22 22 21 21 22 21 21 21 21 21 21 21 21 21 21 21 21 21 21 21 20 20 20 21 21 21 21 20 21
23 23 22 23 23 24 25 24 24 26 28 29 28 28 26 22 22 21 21 22 22 22 22 22 21 21 21 21 21 21 21 21 21 21 21 21 21 20 21 21 21 20 20 20 21 20 20 20 21
22 23 23 23 24 26 26 26 25 25 26 27 27 25 25 23 23 22 21 22 22 22 22 21 21 21 21 21 21 21 21 21 21 21 21 21 21 21 20 21 21 21 21 20 20 20 20 21 21
23 23 23 24 25 26 25 24 25 24 23 23 27 25 22 23 23 22 22 22 22 22 22 21 21 21 21 21 21 21 21 21 21 21 21 21 20 21 20 21 21 20 21 21 21 20 21 21 22
22 24 24 24 24 26 24 24 27 26 24 26 26 25 23 22 22 22 22 22 22 22 22 21 21 21 21 21 21 21 21 21 21 21 21 21 21 21 21 21 21 21 21 21 20 21 21 22 21
23 24 24 26 27 26 24 24 26 24 26 27 26 24 22 22 23 23 22 23 22 23 22 21 21 21 21 21 21 21 21 21 21 21 21 21 21 21 21 21 21 21 21 21 21 21 21 22 22
24 24 26 27 26 25 24 24 25 26 26 28 27 24 22 23 24 23 22 21 22 21 22 22 21 21 21 21 21 21 21 21 21 21 21 21 21 21 21 21 21 21 21 21 21 22 22 22 22
27 23 25 27 29 26 25 25 25 26 26 28 28 26 26 24 24 22 22 21 21 21 21 22 21 22 21 21 21 21 21 21 21 21 21 21 21 22 21 21 21 21 22 21 22 22 22 22 22
25 23 25 28 28 27 26 25 27 27 25 27 26 27 26 25 24 23 22 21 21 21 21 22 22 22 21 21 21 21 22 22 23 22 22 22 22 22 22 22 21 22 23 23 23 23 23 23 23
27 26 28 30 28 26 25 25 26 27 25 27 26 26 26 26 25 24 23 22 22 22 22 22 22 22 22 22 22 23 23 23 23 23 22 22 22 23 23 23 23 23 24 24 24 24 24 23 23
25 29 30 30 27 25 24 25 26 26 26 27 26 27 27 26 25 24 24 23 22 22 22 22 23 23 23 23 23 23 23 23 23 23 23 23 23 23 23 24 24 24 23 24 24 24 24 24 23
27 29 30 32 27 26 26 24 25 26 25 26 26 27 27 26 26 26 25 24 23 23 23 23 23 23 23 24 24 23 23 23 23 23 23 23 23 23 24 23 23 24 24 24 24 24 24 24 24
29 30 30 28 26 24 24 26 25 26 25 25 25 27 27 26 26 26 26 26 24 24 24 24 23 24 24 24 24 23 23 23 23 23 24 24 24 24 24 24 24 24 24 24 24 25 24 24 24
29 29 30 30 27 26 27 25 26 25 25 24 25 27 27 26 27 27 27 26 25 24 25 24 24 24 24 24 23 24 24 24 24 24 24 25 24 24 24 24 24 24 24 24 24 25 25 24 24
28 28 28 30 27 28 28 26 25 25 25 25 27 27 27 26 27 27 28 25 25 24 25 24 24 24 24 24 24 24 24 24 24 24 25 25 24 24 24 24 24 25 24 24 24 24 25 25 25
24 25 27 29 30 26 26 24 25 26 26 26 27 27 27 26 26 28 28 25 24 25 25 24 25 24 25 25 24 25 25 25 25 25 25 24 24 24 24 25 25 25 25 25 25 25 25 25 25
25 26 27 28 31 29 26 25 24 25 25 26 26 27 27 27 26 28 27 25 24 25 26 26 25 25 25 25 25 25 25 25 25 25 24 24 24 24 24 25 25 25 25 26 26 26 25 25 25
27 26 26 28 30 30 26 25 24 24 25 25 25 25 26 27 27 28 28 25 24 25 25 26 25 25 25 25 24 25 25 25 25 24 25 25 24 24 24 25 24 25 25 25 25 25 25 25 25
26 26 26 28 30 29 24 24 24 24 25 26 25 25 26 27 27 28 27 25 24 24 25 25 26 25 25 25 25 25 26 25 25 25 25 25 25 25 24 25 25 25 25 25 25 25 25 26 26
25 25 26 27 29 27 25 24 23 23 24 26 26 26 24 27 27 27 27 26 25 24 25 25 25 25 25 26 25 25 25 25 25 25 25 25 25 25 24 25 25 24 25 25 25 25 26 26 26
24 26 29 29 28 26 27 24 23 23 23 23 22 24 23 25 28 27 27 26 25 25 25 25 26 26 26 26 26 25 25 24 25 25 25 25 25 25 25 24 24 25 24 25 25 25 25 26 26
26 28 28 29 28 27 28 26 24 24 24 23 23 24 24 26 28 28 27 26 25 25 24 25 26 26 26 26 26 25 24 25 26 25 25 25 25 25 25 25 25 25 24 25 25 25 25 25 25
29 28 27 24 24 23 26 26 22 24 24 24 24 24 24 26 27 28 28 26 25 25 25 25 25 25 26 26 26 26 25 25 25 26 25 25 25 25 25 25 25 25 24 24 25 25 25 25 25
28 23 22 23 23 23 25 25 25 26 28 25 24 25 26 27 27 26 28 27 25 25 24 24 24 24 25 25 26 26 25 25 25 26 25 25 25 25 25 25 25 25 25 25 24 24 25 25 25
27 23 21 23 23 23 25 26 28 27 28 27 26 27 26 26 24 26 28 27 26 25 24 23 23 24 24 25 25 26 26 25 25 25 26 25 25 26 25 25 25 25 25 25 24 24 24 25 25
26 25 23 22 23 23 24 25 29 28 28 26 26 25 24 25 25 26 29 29 26 25 25 24 23 23 24 25 25 25 26 25 25 25 26 26 26 26 25 25 25 25 24 25 25 24 24 25 25
27 26 24 19 22 24 23 25 25 24 25 26 25 25 26 25 25 25 28 29 26 25 25 24 24 23 24 24 24 25 25 25 26 26 25 25 26 26 26 25 25 25 25 24 24 25 25 24 24
20 20 22 20 20 20 22 23 27 24 25 25 26 26 27 25 24 23 26 27 26 25 25 24 24 24 23 23 23 24 24 25 25 26 26 26 26 26 26 26 26 25 25 24 24 24 25 25 25
22 18 17 19 23 19 20 22 26 25 26 26 25 27 25 24 24 25 25 24 27 27 25 25 24 24 23 23 23 23 24 25 25 25 26 26 26 26 26 27 26 25 25 25 24 24 24 24 24

GFSSGP_925_temp_066.txt.gz
Temp
20 20 21 21 22 22 23 25 25 25 27 27 27 26 25 24 24 23 19 21 23 21 21 21 22 21 21 20 20 21 21 20 21 21 21 21 21 20 20 20 20 20 20 20 21 21 21 21 21
20 20 21 21 23 24 25 25 25 24 25 26 26 26 24 22 21 18 19 21 22 22 21 21 21 21 21 20 20 21 21 20 21 21 21 21 20 21 20 20 20 20 20 20 20 21 21 21 21
21 21 21 22 23 23 24 24 23 23 23 25 25 23 23 21 20 19 20 22 22 21 21 22 22 21 21 21 20 21 21 20 21 21 20 21 21 20 20 20 20 20 20 20 21 20 20 20 21
21 21 21 23 24 25 24 24 23 23 24 23 24 23 22 20 21 20 20 22 22 21 21 22 22 21 21 21 21 21 21 21 21 21 21 21 20 20 20 21 20 20 20 21 21 21 20 21 22
21 22 23 24 24 25 23 24 22 23 23 23 25 21 20 20 21 20 20 22 22 21 21 21 21 21 21 21 21 21 21 21 21 21 21 20 20 20 20 20 21 20 20 20 20 20 20 22 22
22 22 23 25 25 25 23 24 23 23 23 23 22 22 20 20 19 20 21 21 21 21 21 21 21 21 21 21 21 21 21 21 20 21 20 21 21 21 21 21 21 20 20 20 20 20 21 21 21
23 23 24 25 26 25 24 22 24 24 24 25 24 22 20 20 20 20 21 21 21 21 21 21 21 21 21 21 21 21 21 20 21 21 21 21 21 21 20 21 21 21 21 20 20 20 20 21 21
23 23 24 25 25 25 24 24 22 25 25 25 24 21 21 20 20 20 21 21 20 20 21 21 21 21 21 21 21 21 20 21 21 21 20 21 21 21 21 21 21 21 20 20 21 21 21 22 21
25 23 23 25 26 25 25 25 23 24 25 27 26 23 22 20 20 20 20 20 20 20 21 21 21 21 21 21 21 21 21 20 20 21 20 21 21 21 21 21 21 21 20 21 21 22 22 22 22
23 23 24 26 26 25 25 25 24 26 26 23 22 22 21 20 20 20 20 20 20 20 20 21 21 21 21 21 21 21 21 21 21 21 21 21 21 21 21 21 21 21 20 21 22 22 22 22 22
23 23 26 27 26 26 25 25 25 25 25 24 21 21 21 20 21 21 21 21 20 20 20 20 21 21 21 21 21 21 21 21 21 21 21 22 22 22 22 21 21 21 22 22 23 23 23 22 22
23 25 26 26 26 26 25 26 25 25 26 24 23 22 21 21 21 21 20 20 19 20 20 21 21 21 21 21 21 22 22 22 22 22 22 22 23 22 22 22 22 22 22 23 23 22 22 23 22
24 25 26 27 26 26 25 25 25 26 26 24 23 22 21 21 21 21 20 20 20 20 20 21 21 21 21 21 22 22 22 22 22 22 22 23 23 23 23 22 22 22 22 23 23 22 22 22 23
26 26 26 26 26 26 25 25 26 25 25 24 22 22 22 22 21 21 21 20 20 20 21 21 21 21 21 22 22 23 23 22 22 23 23 23 23 23 23 23 23 23 23 22 23 23 23 23 23
25 25 26 26 24 25 25 24 24 25 24 23 23 23 23 23 22 21 21 21 21 21 21 21 22 21 22 23 22 23 22 23 23 23 23 23 23 23 23 23 23 23 23 23 23 23 23 23 23
25 25 25 25 24 25 26 25 24 24 23 23 23 24 23 23 23 22 22 22 21 22 22 22 21 21 22 23 23 23 23 23 23 23 23 23 23 23 23 24 24 24 24 24 24 24 24 23 23
22 24 26 26 24 24 25 25 24 24 23 24 24 24 24 23 24 23 22 22 23 23 22 22 22 22 22 23 23 23 23 23 23 23 23 23 23 23 24 24 24 24 24 24 24 24 24 24 23
24 25 25 26 24 25 24 23 24 24 24 24 24 25 24 24 24 24 23 23 23 23 23 23 23 23 22 23 23 23 23 24 23 23 23 24 23 23 24 24 24 24 24 25 25 25 24 24 24
25 25 25 25 27 26 25 23 23 23 24 24 24 24 25 24 25 24 24 23 23 23 23 22 23 23 23 23 22 23 23 24 24 24 24 23 23 23 24 24 24 24 24 24 24 24 24 24 24
24 25 24 25 26 25 25 24 23 23 24 24 24 24 25 24 24 24 24 24 23 23 24 23 23 23 23 23 23 23 24 24 24 24 24 24 23 24 24 23 23 24 24 24 24 24 24 24 24
24 23 24 25 26 25 24 23 24 24 23 24 24 24 24 25 23 24 24 24 23 22 23 24 24 24 23 23 23 23 24 24 24 24 24 24 24 24 23 23 23 24 24 24 24 25 25 25 24
23 23 25 26 25 23 25 23 23 23 22 23 23 23 23 24 25 24 25 23 23 23 23 24 24 24 23 23 23 24 25 24 24 24 24 24 24 24 24 23 24 24 24 24 25 24 25 25 25
23 24 25 25 24 24 24 23 23 21 22 22 23 23 24 24 25 24 24 23 23 22 23 23 24 24 24 23 24 24 24 24 25 24 24 24 24 24 24 24 24 24 24 24 24 24 24 25 25
25 24 20 19 20 21 23 23 23 22 22 24 24 24 24 24 25 25 24 24 23 23 22 22 23 24 24 23 23 24 25 25 24 24 24 24 24 24 24 24 24 24 24 24 24 24 24 25 25
23 21 20 21 20 21 22 23 24 22 23 23 23 24 24 25 25 25 24 23 23 23 22 22 23 23 23 24 23 24 25 25 25 25 25 25 24 24 24 24 24 24 24 24 24 24 24 24 25
21 21 19 22 19 22 22 24 24 23 22 22 23 24 24 24 25 25 24 24 23 23 23 22 22 22 23 24 24 24 24 25 25 25 25 25 25 25 25 24 24 24 24 24 24 24 24 24 24
23 22 21 18 18 20 21 23 25 23 23 23 22 23 23 24 24 24 25 24 24 23 23 22 22 23 23 24 24 24 24 24 25 25 25 25 25 25 25 25 24 24 24 24 23 24 24 24 24
21 20 21 18 21 23 21 21 20 20 21 21 21 21 22 23 23 24 25 24 24 24 23 23 23 23 23 24 24 25 25 25 25 25 25 25 25 25 25 25 24 25 24 24 24 24 23 23 24
17 16 15 16 17 19 19 19 22 19 20 20 21 21 21 23 23 23 22 25 24 24 23 22 22 22 22 22 23 23 25 25 25 25 25 25 25 25 25 24 24 25 25 25 24 24 24 23 23
16 16 13 17 20 15 17 19 20 18 19 19 20 20 19 19 20 21 21 21 23 24 24 23 22 22 22 23 23 23 25 25 25 25 26 25 25 25 25 24 24 24 25 25 24 24 24 24 23

GFSSGP_925_temp_069.txt.gz
Temp
20 20 20 22 25 25 26 26 26 26 27 28 28 27 27 27 26 26 21 21 22 21 21 21 21 21 20 21 21 21 20 21 22 22 21 20 20 20 20 20 20 20 21 21 21 21 21 21 21
20 20 21 24 26 27 27 24 23 23 25 28 27 27 26 25 23 21 22 21 22 22 22 22 22 21 21 22 21 21 21 21 21 22 21 21 21 20 20 20 20 20 20 21 21 20 20 21 21
21 21 24 25 26 26 25 23 23 23 26 25 25 25 24 22 21 22 22 22 22 22 22 21 22 21 21 21 21 21 21 21 21 21 21 21 20 20 21 20 20 20 20 21 20 20 21 21 21
21 22 22 25 26 26 24 22 22 22 23 25 26 24 23 21 22 21 21 22 22 22 22 21 21 21 21 21 21 21 21 21 21 21 20 20 20 20 21 20 20 20 20 21 20 20 21 21 21
22 24 25 26 26 25 24 22 22 23 23 24 26 23 21 22 21 21 21 22 22 22 22 22 21 21 21 21 21 21 21 21 21 21 20 20 20 20 20 20 21 20 20 20 20 20 21 21 21
22 22 25 27 27 26 24 23 22 23 23 23 23 23 22 21 21 21 22 22 22 22 22 22 21 21 21 21 21 21 21 21 21 20 21 20 21 20 20 20 21 21 20 20 20 21 22 22 22
24 25 27 27 27 26 24 24 24 24 25 25 24 23 21 22 21 21 22 22 22 22 22 22 22 21 21 21 21 21 21 20 21 21 20 20 21 21 21 21 21 21 20 20 21 21 22 22 21
24 26 26 28 28 25 24 23 23 27 26 26 26 24 22 21 21 21 21 22 22 22 22 21 21 21 21 21 21 21 20 21 21 20 21 20 20 20 21 21 21 20 20 20 21 22 22 22 22
26 26 27 28 28 26 25 24 23 26 25 26 26 25 25 22 21 22 22 21 22 21 22 22 22 21 21 21 21 21 21 20 21 21 21 21 21 21 22 21 21 21 21 21 22 22 22 22 21
25 25 28 28 29 27 26 24 24 26 26 24 24 24 22 22 22 22 22 22 22 22 21 22 21 21 21 22 21 21 21 21 21 21 20 20 20 21 21 21 21 21 21 21 22 22 22 22 22
26 27 28 29 29 28 27 26 25 27 25 24 23 23 23 23 23 23 23 23 23 22 21 21 21 21 21 21 21 21 21 21 21 21 21 21 20 21 21 21 21 21 22 22 22 22 21 21 21
25 27 27 28 29 28 28 27 27 27 26 24 25 24 24 24 24 24 23 23 22 21 20 21 21 20 21 21 21 21 21 21 21 21 22 22 21 21 21 21 21 22 21 22 23 22 21 22 22
26 27 28 29 28 28 27 27 27 27 26 25 24 24 24 24 24 24 23 22 21 20 20 21 20 20 20 20 20 21 21 21 21 21 22 22 21 21 21 22 22 22 22 22 22 22 22 22 22
27 28 29 29 29 28 28 27 27 27 25 24 24 24 25 24 24 23 22 22 22 21 21 21 20 20 20 21 21 21 21 21 21 22 23 23 23 23 22 22 22 22 22 22 22 22 22 22 22
28 28 30 28 28 27 28 26 27 25 24 23 24 25 25 24 24 23 23 23 22 22 21 21 20 20 20 20 21 21 21 22 22 22 23 23 23 23 23 22 22 23 23 23 23 23 23 23 23
28 28 30 28 28 27 28 28 27 25 23 22 22 25 25 24 23 24 23 23 22 22 21 21 21 21 20 20 21 21 22 22 22 22 23 23 23 23 23 23 23 23 23 23 23 22 23 23 23
27 29 29 29 27 27 28 28 25 24 24 23 23 25 25 25 24 23 22 23 23 22 21 21 21 21 21 21 21 22 22 22 22 23 23 23 23 23 24 23 23 23 23 23 23 23 23 24 24
27 28 28 29 28 28 28 28 26 26 24 25 23 25 26 26 25 24 23 23 23 22 21 21 21 21 21 21 21 21 21 23 23 23 23 23 23 23 23 23 23 23 23 23 23 24 24 24 24
27 28 28 28 29 29 29 29 27 26 26 25 25 25 26 26 26 25 23 24 23 22 22 21 21 21 21 21 22 22 22 22 23 23 23 23 23 23 23 23 24 24 24 24 24 24 23 24 24
27 27 28 28 28 29 29 29 27 27 27 26 26 26 27 27 27 25 24 25 24 23 22 21 21 22 21 21 21 22 22 22 23 24 24 23 23 23 23 23 24 24 24 24 24 25 24 23 23
27 27 27 28 29 28 27 28 27 26 26 26 26 27 27 27 27 27 26 25 24 24 22 22 22 22 22 21 21 22 22 23 23 23 24 23 23 23 23 23 24 24 23 23 24 24 24 25 23
27 27 28 28 28 29 28 29 27 27 25 25 26 26 27 27 27 27 26 25 25 24 23 22 22 22 22 23 22 22 24 24 24 24 23 23 23 23 23 23 23 24 23 23 24 23 24 25 25
27 27 28 28 28 28 28 30 28 26 26 25 26 27 27 28 28 28 27 26 25 25 24 23 22 22 22 23 22 22 23 24 24 23 24 23 24 24 23 23 23 23 23 24 24 24 25 24 24
28 27 26 26 28 28 29 30 28 28 26 27 27 27 27 28 28 28 27 26 25 25 24 23 22 23 22 23 23 22 23 23 24 24 23 23 23 24 24 24 24 24 23 24 23 24 24 24 24
27 28 26 27 27 28 26 29 26 26 26 25 25 28 27 28 28 28 27 27 26 25 24 23 22 22 22 22 22 23 22 23 24 24 24 24 24 23 24 24 24 24 24 23 24 24 24 24 24
27 28 28 26 27 29 26 29 26 26 26 25 25 26 28 27 28 28 27 27 26 25 24 23 22 22 22 22 22 23 22 23 24 24 24 24 24 24 24 24 24 24 24 23 24 23 23 24 24
25 26 28 26 24 29 28 27 26 26 25 24 24 26 27 27 28 28 27 27 26 25 24 24 23 22 22 22 22 22 22 22 23 24 24 24 25 24 24 25 24 24 24 24 24 23 23 24 23
25 24 27 26 26 27 25 25 25 23 22 22 22 23 25 27 27 28 28 26 26 26 25 24 23 23 23 23 22 22 22 22 22 23 24 24 25 25 24 24 24 24 24 24 24 23 23 24 23
24 24 23 26 25 28 26 25 23 21 20 19 19 20 22 25 26 27 27 26 26 26 25 24 24 23 23 22 23 23 22 22 22 22 24 24 25 25 25 25 24 24 24 23 24 23 23 23 23
21 20 21 27 24 23 27 23 22 21 20 19 17 18 19 20 21 22 24 24 25 24 25 25 25 24 23 23 22 22 23 23 22 22 23 24 25 25 25 25 24 23 24 23 23 24 23 22 23

GFSSGP_925_temp_075.txt.gz
Temp
22 24 27 29 28 32 29 27 29 31 31 35 35 34 33 32 30 29 29 28 27 26 23 22 21 21 21 22 22 21 21 21 21 21 21 21 21 21 21 21 21 21 21 21 21 21 21 21 21
27 27 27 28 30 31 28 27 24 25 33 34 33 33 32 30 31 31 30 28 28 26 25 23 21 21 21 21 21 21 21 21 21 21 21 21 21 21 21 21 21 21 21 21 21 21 21 21 21
25 27 26 28 32 28 27 25 23 24 33 33 33 32 30 29 31 31 28 28 29 28 27 22 21 21 22 21 21 21 21 21 21 21 21 21 20 21 21 21 21 21 21 21 21 21 21 21 21
28 28 28 28 29 30 29 24 24 26 29 32 33 30 29 31 31 30 28 29 29 28 26 22 21 21 21 21 21 21 21 21 21 21 20 21 21 21 21 21 21 21 21 21 21 21 21 21 21
28 26 27 29 29 28 27 24 24 27 28 31 32 29 29 31 30 29 29 30 29 27 25 23 21 21 21 21 21 21 21 21 21 21 21 21 21 21 21 21 21 21 21 21 21 21 21 21 20
25 30 28 29 28 27 25 23 23 26 29 31 30 28 28 29 29 29 30 30 29 28 27 23 21 21 21 21 21 21 21 21 20 21 21 21 21 21 21 21 21 21 21 21 21 21 22 21 21
29 29 29 30 27 27 26 25 25 28 30 31 31 28 29 29 29 30 30 30 30 28 27 25 24 22 21 21 21 21 21 21 21 21 21 21 21 21 21 21 21 21 21 21 21 22 21 20 21
32 30 31 32 30 27 27 28 28 30 30 32 32 29 29 30 30 30 31 30 30 28 27 27 26 25 24 22 21 21 21 21 21 21 22 23 22 22 21 22 21 21 21 21 21 22 22 22 23
33 28 30 31 32 29 28 29 31 30 32 31 32 32 31 29 30 31 31 30 30 28 29 28 28 26 23 23 22 22 21 22 23 22 23 22 25 24 22 22 22 21 21 21 22 23 23 24 24
32 28 32 34 33 28 29 29 31 31 31 31 32 32 30 30 30 31 31 31 30 28 29 29 27 26 25 25 23 24 23 24 25 25 24 23 24 25 24 22 22 23 23 23 24 24 23 24 25
33 30 33 33 34 31 29 26 28 30 31 32 32 31 30 30 31 31 31 31 31 30 30 28 27 26 24 26 27 27 26 26 25 24 25 25 25 25 25 23 24 23 23 25 24 24 24 25 28
31 33 34 35 35 33 30 31 30 30 29 32 32 32 31 31 32 31 31 31 31 30 29 29 27 25 26 27 27 27 27 26 25 24 25 25 27 26 26 25 26 25 26 26 25 26 25 26 27
33 34 35 35 35 35 33 32 30 27 27 30 32 31 31 32 31 31 31 31 30 29 29 28 27 24 25 26 27 26 27 26 26 24 25 26 25 26 26 26 26 26 26 27 27 25 26 26 27
34 35 35 36 36 35 33 32 31 29 30 31 32 31 32 32 32 31 31 31 30 29 29 28 26 24 24 26 26 26 24 27 26 26 25 25 26 26 26 26 26 26 26 26 26 24 26 26 27
35 34 35 36 36 33 34 31 31 31 32 31 31 32 32 32 32 31 31 30 29 28 27 27 27 25 25 24 25 25 26 26 26 25 25 25 24 25 26 26 26 26 25 25 26 26 27 27 27
34 35 35 36 36 35 34 29 31 32 31 31 31 32 32 32 32 31 31 30 29 28 27 27 28 26 25 25 25 26 25 25 25 26 25 25 24 24 24 26 27 26 26 26 26 26 27 27 26
34 35 36 35 37 36 34 31 32 32 31 30 30 32 32 32 31 31 31 30 29 28 27 27 27 27 26 25 26 26 26 24 25 26 25 25 25 24 25 26 26 25 26 27 27 27 27 27 27
34 35 37 36 36 36 34 25 32 31 29 29 29 29 30 31 31 30 30 30 29 28 27 26 27 26 25 25 25 26 26 25 25 25 25 25 24 24 24 26 25 25 27 26 26 26 26 27 28
37 36 36 37 37 37 36 32 33 32 31 30 26 25 30 30 31 30 30 29 29 28 27 26 26 25 25 25 26 27 26 26 26 25 25 24 24 24 24 26 25 25 27 26 26 26 27 28 28
36 37 37 36 36 37 36 36 34 33 33 31 27 25 29 30 31 31 30 29 28 28 27 26 26 25 25 26 27 28 27 27 26 26 26 25 25 24 25 25 26 26 26 26 26 26 27 28 28
35 36 37 35 35 36 36 36 34 34 34 31 28 29 29 30 30 31 30 29 29 28 27 26 25 25 24 26 26 26 27 26 26 26 27 26 24 25 25 25 26 26 26 26 26 26 27 27 28
34 36 37 36 35 34 36 35 35 34 34 30 28 30 30 30 31 31 30 29 28 29 27 26 25 25 24 25 26 26 26 27 27 27 27 26 25 25 25 25 25 25 26 27 26 27 26 27 29
34 36 35 36 35 36 36 35 30 34 33 31 30 31 31 31 31 30 30 30 29 29 28 26 25 25 25 25 25 26 26 27 27 26 25 26 25 25 25 25 25 25 25 26 26 26 26 28 28
35 34 34 35 35 34 36 36 32 33 28 32 31 28 31 32 31 29 30 29 29 30 29 27 25 25 25 25 24 25 26 26 27 25 26 26 26 26 25 25 24 24 24 25 26 25 25 26 27
34 33 32 32 33 34 36 36 33 33 33 34 32 31 32 30 32 30 28 30 29 30 30 29 26 25 25 25 25 25 25 26 26 26 27 27 26 27 25 25 24 24 24 25 25 25 26 25 27
33 34 34 31 33 35 37 35 32 32 32 32 33 34 33 33 32 32 32 29 29 30 30 30 27 26 25 25 25 25 25 26 26 26 27 27 25 24 26 25 24 25 24 25 25 25 25 26 26
32 32 36 36 37 36 36 32 32 32 31 28 28 33 34 33 31 32 32 31 29 30 30 30 28 27 26 26 25 25 25 25 27 27 26 27 27 26 26 26 25 25 26 25 25 25 26 26 26
32 34 33 34 33 33 35 32 32 30 29 27 25 26 26 23 21 20 24 29 30 30 30 30 29 27 27 27 26 26 25 25 25 26 26 27 27 27 25 26 26 26 25 25 25 26 25 26 26
31 32 33 35 35 34 34 31 31 28 27 25 21 22 23 20 20 20 18 18 21 22 29 30 29 29 27 27 27 27 26 26 25 26 26 26 26 26 26 26 26 26 26 25 25 25 27 25 25
31 33 33 32 32 34 35 28 29 26 24 22 19 19 20 19 16 17 16 16 15 17 18 23 30 30 29 28 28 27 27 27 27 26 26 25 25 26 26 26 25 26 26 26 25 25 27 26 26

GFSSGP_925_temp_078.txt.gz
Temp
23 23 25 27 27 29 26 27 26 28 33 35 35 32 31 31 31 26 28 26 26 24 22 21 21 21 22 22 21 21 21 21 21 21 21 21 21 21 21 21 21 21 21 21 21 21 21 21 21
25 28 28 29 27 27 25 26 24 26 30 35 33 33 31 30 31 29 28 27 26 24 24 22 22 21 22 21 21 21 21 21 21 21 21 21 21 21 21 21 21 21 21 21 21 21 21 21 21
24 28 27 27 30 25 25 26 25 27 31 34 31 31 31 30 31 29 27 28 27 26 24 21 22 21 22 21 21 21 21 21 21 21 21 21 21 21 21 21 21 21 21 21 21 21 21 21 22
27 27 27 25 29 28 28 25 24 28 31 31 32 30 32 32 30 29 29 29 28 26 23 22 22 21 21 21 21 21 21 21 21 21 21 21 21 21 21 21 21 21 21 21 21 21 21 21 23
28 27 25 28 28 28 27 23 23 28 30 29 31 30 31 31 30 30 30 29 27 25 23 21 21 21 21 21 21 21 21 21 21 21 21 21 21 21 21 21 21 21 21 21 21 21 21 22 23
25 26 27 28 27 27 25 24 25 28 27 30 31 31 30 31 30 31 29 28 27 26 24 22 21 21 21 21 21 21 21 21 21 21 21 21 21 21 21 21 21 21 21 21 21 21 21 23 24
27 27 28 28 28 27 25 25 28 30 30 30 31 29 31 31 31 31 28 29 28 27 24 23 22 21 21 21 21 21 21 21 21 21 22 21 21 21 21 21 21 21 21 21 21 21 22 24 24
29 27 28 29 30 27 26 27 29 31 29 32 33 29 30 31 31 31 30 28 28 27 26 25 24 23 22 21 21 21 21 22 22 21 22 21 21 21 22 21 21 21 21 21 22 23 24 25 24
33 29 30 30 31 29 28 29 30 31 29 29 32 32 32 31 32 31 30 27 27 27 27 27 25 24 22 22 21 22 22 23 23 22 22 22 23 22 22 22 21 21 22 23 23 23 24 24 25
26 27 32 33 31 29 29 30 31 31 30 31 29 32 32 32 32 32 31 26 27 28 28 27 25 24 24 24 23 23 22 22 24 23 21 23 24 23 22 22 23 23 23 23 23 24 24 24 25
23 29 33 34 33 32 31 30 30 27 29 31 30 31 32 32 33 33 32 31 30 29 27 26 26 25 25 26 24 24 23 25 25 24 24 25 25 24 23 24 23 24 23 23 23 23 23 24 25
31 33 35 34 33 32 30 30 32 27 28 31 32 32 32 33 32 33 32 32 31 28 27 25 25 26 26 26 26 26 25 25 25 25 25 25 25 25 23 24 24 25 23 24 24 24 26 27 27
26 30 35 37 34 33 31 32 29 27 29 32 32 32 32 33 32 33 32 32 31 29 27 25 26 25 26 26 27 26 26 25 25 25 25 25 26 25 24 25 25 25 24 25 24 26 26 27 26
34 30 36 37 36 36 34 29 30 25 30 32 32 32 32 33 32 32 32 31 31 30 27 26 26 26 26 26 27 25 26 26 25 25 25 25 26 26 26 25 25 25 24 25 25 26 26 26 27
36 33 36 37 37 35 33 31 30 28 31 32 31 32 33 33 32 32 32 31 30 30 28 26 25 25 25 26 25 25 25 25 25 25 24 25 25 24 25 26 26 26 26 25 25 25 26 26 26
35 36 34 37 37 35 33 29 31 31 32 32 32 32 32 32 32 32 32 31 30 29 28 28 27 25 25 26 26 25 25 24 25 25 25 25 24 25 26 24 26 26 26 25 25 25 26 26 27
35 34 35 34 38 35 35 29 30 32 32 32 32 32 32 32 30 31 31 30 29 28 28 28 27 27 26 25 26 25 25 25 24 24 25 25 24 24 25 26 26 26 25 25 26 27 27 26 26
34 34 36 33 36 37 32 25 23 31 32 32 31 32 31 32 29 31 31 31 29 28 27 27 27 26 26 25 25 26 25 24 25 25 24 24 25 24 24 25 26 26 25 26 26 26 27 26 26
36 36 36 35 35 37 32 26 26 32 32 30 30 28 30 31 31 31 31 30 29 28 27 27 27 26 25 25 26 26 25 25 25 25 24 24 25 24 25 25 26 25 25 26 26 27 27 27 27
35 36 37 33 33 33 29 28 27 30 31 30 31 27 27 30 29 30 30 30 29 28 27 26 26 25 25 25 26 26 26 25 25 25 25 25 24 24 24 25 26 25 25 26 26 26 26 27 28
35 36 37 34 29 32 33 30 27 31 32 32 30 28 28 29 29 30 30 28 28 28 27 26 26 25 25 26 26 26 25 25 25 24 25 25 25 25 24 25 25 26 25 26 26 26 25 27 28
34 37 37 35 34 34 37 33 34 33 30 30 29 29 28 30 29 28 29 28 28 26 27 26 25 24 25 25 26 27 26 25 26 26 26 25 25 25 25 25 25 25 25 26 26 26 27 27 27
35 37 37 35 35 36 36 35 34 32 29 29 29 29 30 30 30 30 31 29 27 27 27 26 25 24 25 25 25 26 26 26 27 26 25 25 25 26 25 26 25 25 24 26 26 26 26 26 27
36 36 36 36 35 34 36 36 32 28 25 26 30 30 28 31 31 31 30 29 28 27 28 26 25 25 25 25 25 25 26 25 24 24 26 25 25 25 25 25 25 24 25 25 27 26 26 26 26
35 34 33 32 33 33 37 36 32 27 24 22 32 31 26 27 29 31 30 29 29 28 28 26 25 25 24 24 25 24 25 25 24 24 26 26 26 26 25 25 25 24 24 24 25 26 25 26 26
34 34 33 31 32 34 36 35 32 31 25 25 34 33 32 31 30 26 31 29 29 28 28 27 25 24 24 24 25 25 25 25 25 24 25 27 27 26 25 25 24 24 24 25 25 24 25 26 27
34 33 36 35 36 35 35 32 32 32 30 31 29 27 24 22 21 23 29 30 27 28 29 28 25 25 25 25 25 25 25 25 27 27 27 26 26 25 24 24 24 25 25 25 24 25 25 26 26
32 35 33 34 31 31 33 31 31 30 29 28 27 24 22 20 19 19 20 23 25 27 29 29 26 26 25 25 25 25 24 25 26 26 27 27 25 24 24 24 24 25 25 25 24 25 26 25 25
32 31 32 34 34 33 31 28 32 29 28 25 24 22 19 18 17 17 16 17 19 22 24 22 27 26 26 26 26 26 25 25 25 25 26 27 26 26 23 25 25 25 26 25 25 25 25 25 26
33 33 33 33 32 34 26 24 28 27 25 23 22 21 19 16 16 16 15 14 14 16 18 19 20 22 27 27 27 26 26 26 25 25 26 26 26 26 25 25 25 25 25 25 25 25 25 25 25

GFSSGP_925_temp_081.txt.gz
Temp
25 24 23 24 24 24 24 24 23 27 27 32 31 30 30 30 28 24 24 23 23 22 21 22 22 21 21 21 21 21 21 21 21 21 21 21 21 21 21 21 21 21 21 21 21 21 21 21 21
25 24 24 25 24 25 24 26 25 26 28 30 31 29 28 26 27 26 24 23 22 21 21 22 21 21 22 22 21 21 21 21 21 21 21 21 21 21 21 21 21 21 21 21 21 21 21 21 21
24 24 25 24 25 24 24 26 26 27 30 31 30 30 28 25 27 26 24 23 23 22 22 21 22 21 21 22 21 21 21 21 21 21 21 21 21 21 21 21 21 21 21 21 21 21 22 21 22
24 25 25 24 25 24 27 25 24 27 28 29 30 28 29 28 27 26 25 24 23 23 22 22 21 21 22 21 21 21 21 21 21 21 21 21 21 21 21 21 21 21 21 21 21 22 23 22 22
26 25 24 26 26 25 25 23 23 26 24 29 30 27 28 28 27 27 26 24 23 23 22 21 22 22 21 21 21 21 21 21 21 21 21 21 21 21 21 21 21 21 21 21 21 23 22 22 23
24 24 25 26 25 24 24 23 25 27 28 30 28 27 27 29 28 27 25 24 24 23 22 21 21 21 21 21 21 21 21 21 21 20 20 21 21 21 21 21 21 21 21 21 22 23 23 23 23
25 24 25 26 26 25 24 24 26 28 29 29 29 27 28 29 28 27 25 25 23 23 22 21 21 21 21 21 21 21 21 21 20 20 20 21 21 21 21 21 21 21 21 21 23 24 24 23 23
26 24 27 27 27 25 26 25 26 27 29 31 30 27 27 27 27 27 26 24 24 23 23 22 22 22 22 22 22 22 21 21 21 21 21 21 21 21 21 21 21 21 21 21 23 24 24 24 23
29 24 27 28 27 26 26 26 27 25 29 28 31 29 30 27 27 27 26 25 24 23 23 23 22 23 23 23 22 21 22 23 22 22 21 22 22 22 22 22 22 21 21 23 23 24 24 24 24
22 23 27 29 29 26 27 28 27 23 27 29 30 30 30 28 27 26 26 26 26 24 24 23 23 23 24 23 24 23 22 22 23 23 22 22 22 23 23 23 22 22 23 23 24 25 24 24 24
22 23 29 30 29 29 29 29 26 26 27 30 29 30 30 28 27 26 26 27 26 25 24 24 25 24 24 24 24 24 23 23 23 24 23 23 22 23 24 23 23 23 23 23 23 25 25 25 25
26 26 28 29 31 31 30 27 24 24 27 30 31 30 30 29 28 26 27 27 26 25 24 25 25 25 24 25 24 24 24 24 24 24 24 23 23 24 24 23 23 24 24 24 24 25 24 24 25
26 29 31 33 32 31 30 28 26 26 25 31 31 31 30 29 31 30 29 28 25 25 25 25 26 25 25 25 24 24 24 24 25 24 24 23 24 24 24 24 24 24 25 25 25 25 25 26 26
27 29 29 30 31 31 29 27 28 28 30 31 31 30 30 29 31 30 29 27 26 25 25 26 26 25 26 26 25 25 25 25 25 25 25 24 24 25 25 24 24 25 25 25 25 26 26 26 27
29 29 29 31 31 29 28 26 28 28 29 30 31 30 31 31 31 30 30 27 25 25 26 26 25 25 26 25 26 26 25 25 25 25 25 25 24 24 25 25 24 25 25 25 25 25 25 26 26
30 29 28 34 34 31 30 27 24 26 28 29 30 30 30 31 31 30 29 28 26 25 26 26 25 25 25 25 26 25 25 25 24 24 25 25 25 25 25 25 25 25 25 25 26 26 26 26 26
31 29 31 31 34 32 31 26 23 27 27 28 30 30 30 30 29 30 29 29 26 26 26 25 26 26 25 25 25 25 25 25 24 24 24 24 25 25 25 25 25 25 26 26 25 25 25 25 26
29 30 31 31 34 32 24 23 22 22 25 29 30 30 29 30 28 30 29 29 29 27 28 26 26 25 26 25 25 25 25 25 24 25 24 24 24 24 25 25 25 25 26 26 26 26 26 26 26
31 31 32 34 32 26 24 23 25 25 24 29 30 30 29 28 30 29 29 28 28 27 28 26 25 25 26 26 25 25 25 25 24 24 23 25 25 24 25 25 25 25 25 26 26 26 26 26 27
31 31 32 32 31 26 25 24 24 26 25 30 29 28 29 28 28 28 29 28 27 27 27 26 26 26 26 26 25 25 25 25 24 24 24 24 25 24 24 25 25 26 25 25 26 26 26 26 27
31 30 31 30 29 29 28 26 24 24 29 29 28 28 29 28 27 27 28 28 26 27 27 26 26 25 25 26 25 25 25 25 24 24 24 24 25 24 25 25 25 25 25 26 26 26 27 26 28
29 32 34 31 29 27 27 24 25 27 28 28 28 26 27 27 28 27 28 27 26 26 27 26 25 25 26 25 25 25 25 24 24 25 25 24 25 25 25 25 25 25 25 25 26 26 26 26 26
31 33 34 31 29 30 27 27 26 27 27 25 27 26 28 28 28 28 27 27 26 26 26 26 25 25 26 25 25 25 25 25 24 25 24 25 25 25 25 25 24 25 26 26 26 26 26 26 26
34 33 32 31 30 29 29 29 26 26 27 27 22 23 27 27 26 26 28 27 26 26 26 26 25 25 25 25 25 25 25 25 25 24 25 25 25 26 26 25 25 25 25 26 26 25 26 26 26
32 29 26 28 26 29 30 31 26 25 25 24 23 23 24 28 26 27 27 27 26 25 26 25 25 24 25 25 25 25 25 25 26 25 25 25 25 25 25 25 25 25 25 25 25 25 25 26 26
29 28 25 28 27 28 31 26 24 26 25 25 26 25 24 25 23 25 27 27 26 26 25 25 25 24 24 24 25 25 25 25 25 25 25 24 25 25 25 25 25 24 25 25 25 25 25 26 27
29 28 30 29 28 28 26 26 25 24 24 24 22 22 20 21 20 22 22 24 26 26 26 25 24 24 24 24 24 25 25 24 25 25 26 26 26 25 25 25 24 24 24 24 24 25 25 25 26
29 31 28 27 28 29 27 26 23 23 24 21 19 19 18 18 19 19 18 18 21 23 25 25 24 24 24 24 24 25 25 25 25 25 25 25 25 25 25 25 24 24 24 25 24 24 25 25 26
29 28 28 27 27 26 25 23 22 22 21 19 18 17 17 16 16 16 16 17 19 19 20 22 23 24 25 25 25 25 25 25 25 25 26 26 26 25 26 25 25 24 24 25 25 25 24 25 25
30 29 27 24 26 23 23 22 22 21 21 19 17 17 16 16 15 15 14 14 16 17 18 19 19 20 20 22 25 26 25 25 25 25 26 26 26 25 25 26 25 24 25 25 25 25 25 25 25

GFSSGP_925_temp_084.txt.gz
Temp
22 23 23 22 23 22 24 23 24 26 27 30 29 29 27 28 27 23 23 21 22 22 21 21 21 21 22 21 21 20 21 20 20 21 20 20 21 21 21 21 21 21 21 21 21 21 21 21 21
23 23 22 22 24 24 23 25 23 25 29 27 29 28 26 24 25 22 21 22 22 22 21 21 22 22 22 21 21 21 20 20 21 21 21 21 21 21 21 21 21 21 21 21 21 21 21 21 21
23 23 22 23 24 23 23 25 25 24 29 29 28 27 26 24 24 23 21 22 22 21 21 22 21 21 21 21 21 21 21 21 21 21 21 21 21 21 21 21 21 21 21 21 21 21 21 22 22
23 23 23 23 25 23 23 25 23 26 28 28 28 25 26 26 25 22 22 22 22 21 21 21 21 21 21 21 21 20 21 20 21 20 21 21 21 21 21 21 21 21 21 21 21 21 22 22 22
24 23 23 25 25 25 24 24 22 25 26 27 27 25 25 25 24 22 22 22 22 21 21 21 21 21 21 21 21 21 21 20 20 20 21 21 21 21 21 21 21 21 21 21 21 21 22 22 22
23 23 24 25 24 24 24 23 23 26 27 27 26 25 24 25 23 23 23 23 23 22 21 21 21 22 21 21 21 21 21 20 20 20 20 21 21 21 21 21 21 21 21 21 22 23 22 22 22
24 24 25 26 25 25 25 23 25 27 27 27 28 24 24 25 24 23 23 23 23 22 22 21 21 21 21 21 20 21 21 20 20 20 20 21 21 21 21 21 21 21 21 22 22 23 23 23 22
25 24 26 26 25 24 25 25 26 28 28 29 28 25 24 26 23 23 23 23 22 22 22 22 22 22 21 21 21 21 20 20 20 20 20 21 21 21 21 21 21 21 21 21 22 23 23 23 23
25 24 25 25 26 25 25 26 26 25 29 29 29 27 27 24 23 23 22 22 22 22 22 22 22 22 22 21 21 21 21 21 21 21 21 21 21 21 21 21 21 21 21 22 23 23 23 23 23
24 22 26 27 27 26 25 25 25 27 28 29 28 27 26 25 24 23 22 21 21 21 22 23 23 23 22 22 23 22 22 22 22 22 22 22 22 22 22 21 21 23 23 24 24 24 23 23 23
22 24 27 28 28 28 27 25 25 24 24 28 27 26 27 26 25 24 23 22 22 23 22 22 23 24 24 23 23 23 23 23 22 22 22 22 23 22 23 23 23 23 24 24 24 24 24 24 24
25 25 26 29 29 28 27 24 23 24 26 29 28 27 27 26 26 25 24 23 23 23 23 23 23 24 24 24 23 23 23 23 23 23 23 23 23 23 23 23 23 23 24 25 24 24 25 25 24
25 28 27 30 30 30 27 26 25 24 26 29 29 28 27 26 26 26 25 24 23 23 24 23 24 24 24 24 23 23 23 23 23 23 23 24 24 24 24 24 24 23 24 24 23 24 25 26 26
28 28 24 27 30 29 26 26 27 25 26 30 30 27 27 27 27 26 25 24 24 24 24 24 24 24 24 24 24 24 24 23 24 24 24 24 24 24 24 24 24 24 24 24 24 25 25 25 25
31 29 27 29 28 27 27 26 26 26 27 29 30 28 29 28 27 27 25 24 24 24 24 24 24 25 25 25 25 24 24 24 24 24 24 24 24 24 24 24 24 25 25 25 25 25 26 26 25
28 28 28 28 29 27 27 25 27 25 29 29 30 29 29 28 28 26 25 24 25 25 24 25 25 25 25 25 24 24 25 25 25 25 24 24 24 24 25 24 24 25 25 25 25 26 25 26 26
27 26 28 29 30 28 26 23 23 25 27 28 29 28 29 28 28 26 25 24 25 25 25 25 25 25 25 25 25 25 25 25 25 25 24 25 24 25 24 24 24 25 25 25 25 26 25 25 26
26 28 29 30 29 27 24 23 23 24 26 28 29 28 29 27 27 26 25 25 25 26 25 25 25 25 25 25 25 25 24 24 25 24 24 24 24 24 25 25 25 25 25 25 25 26 25 26 26
27 29 30 30 28 24 24 23 23 25 25 27 28 28 28 28 27 27 25 25 24 25 25 25 25 25 25 24 24 24 25 25 24 24 24 24 24 24 24 24 25 25 25 25 25 25 25 26 26
27 28 29 30 28 25 24 24 24 24 24 26 28 28 27 27 27 27 25 25 25 25 26 26 26 25 25 25 24 24 24 24 24 24 24 24 24 24 24 24 25 25 25 25 25 25 26 26 26
27 27 29 28 27 26 25 25 24 25 24 25 27 28 27 28 26 26 26 26 26 25 26 26 25 25 26 25 25 24 24 24 24 24 24 24 24 24 24 25 25 24 25 25 25 26 26 26 26
25 28 31 28 26 25 27 24 24 24 25 25 25 27 26 28 25 25 26 25 26 26 26 26 25 25 25 25 25 25 25 24 24 24 24 24 24 24 24 24 25 25 25 25 25 25 26 26 26
28 29 30 29 26 25 26 25 24 24 24 24 23 24 24 27 25 25 26 25 25 26 26 26 25 25 25 24 25 25 25 24 24 24 24 24 24 24 24 24 25 25 25 25 25 25 26 26 26
31 31 30 27 26 25 27 25 24 25 25 26 24 24 25 25 25 25 25 25 25 26 25 26 25 25 25 25 25 24 25 25 25 25 24 24 24 25 25 24 25 25 25 25 25 25 25 26 26
30 25 24 25 25 25 26 26 26 26 26 26 25 26 26 26 24 25 25 25 24 25 25 25 25 25 25 25 25 24 24 24 25 25 25 24 24 25 25 25 25 25 25 25 25 25 25 25 26
27 25 23 27 24 27 28 26 24 22 25 23 23 23 25 24 23 23 24 25 24 24 24 24 25 25 25 25 24 24 24 24 25 25 25 25 24 25 25 25 25 24 24 25 25 25 25 25 26
28 26 26 27 25 26 23 23 23 21 20 20 20 19 19 20 20 21 20 22 24 24 24 25 25 25 25 25 24 24 24 24 25 25 25 25 25 25 25 25 25 25 24 24 25 25 25 25 25
27 28 27 22 26 27 23 22 21 21 18 18 18 18 17 17 17 18 18 19 21 23 23 23 24 25 25 24 24 24 24 25 25 25 25 24 25 25 25 25 24 24 24 24 24 24 24 24 25
26 26 24 23 22 24 22 21 22 19 18 16 16 16 16 16 16 16 17 18 20 20 21 22 22 23 24 24 24 24 24 24 25 25 25 25 25 25 24 25 24 24 24 24 24 24 24 24 25
27 27 23 24 26 22 20 21 21 18 17 16 16 16 16 15 15 15 14 16 18 18 19 20 19 21 22 23 23 24 25 25 24 24 24 25 25 25 25 24 24 25 24 24 24 24 24 24 24

GFSSGP_925_temp_087.txt.gz
Temp
21 22 22 22 23 23 23 24 23 26 26 27 26 27 26 26 25 23 21 21 22 21 21 21 21 21 21 21 21 20 21 20 20 21 21 21 21 21 21 21 21 21 21 21 21 21 21 21 21
21 21 22 22 23 23 24 24 25 26 27 27 27 27 26 23 23 20 20 21 22 22 21 21 22 21 21 21 21 21 21 21 21 20 20 21 21 21 21 21 21 21 21 21 21 21 21 21 21
22 23 21 22 22 24 23 23 23 24 27 28 26 26 25 22 21 21 21 21 22 22 22 22 21 21 21 21 21 21 21 20 21 20 20 21 21 21 21 21 21 21 21 21 21 21 21 21 21
22 22 22 23 24 24 24 23 24 24 28 27 25 23 24 23 23 21 21 22 22 21 22 21 21 21 21 21 20 21 21 20 20 20 21 20 21 21 21 21 21 21 21 21 21 21 21 21 21
23 23 23 24 24 24 24 23 22 23 26 27 26 24 23 23 22 21 21 22 22 21 21 21 21 21 21 21 21 20 20 20 21 21 21 21 21 21 21 21 21 21 21 21 21 21 21 22 22
23 23 24 24 24 24 23 23 23 25 26 25 25 24 22 21 21 21 22 22 22 21 21 21 21 21 21 21 21 20 21 20 20 20 21 21 21 21 21 21 21 21 21 21 21 22 22 22 22
24 24 25 25 24 24 25 23 23 26 26 25 26 22 21 22 21 21 22 22 21 21 21 21 21 21 21 21 20 20 20 20 20 21 20 21 21 21 21 21 22 21 21 22 22 22 22 22 22
24 23 25 26 25 25 24 25 27 26 26 27 26 22 21 22 21 21 21 21 21 21 21 21 21 21 21 21 20 20 20 20 20 20 20 21 21 21 21 22 21 21 21 21 22 22 22 22 22
25 24 24 25 25 25 25 26 26 26 27 27 27 25 24 22 21 20 20 21 21 21 21 21 21 21 21 20 21 21 21 20 20 21 21 21 21 22 21 21 21 21 21 22 22 22 22 22 22
23 22 25 27 26 25 25 26 26 27 26 25 25 25 23 22 21 21 20 20 20 21 21 21 21 21 21 21 22 21 21 21 21 21 21 21 21 21 21 21 21 21 21 22 22 23 23 22 22
23 25 26 27 27 26 25 24 24 26 26 25 24 23 23 23 22 21 21 21 22 22 21 21 21 21 22 22 22 22 22 22 22 21 21 21 22 22 22 22 23 23 22 23 23 23 23 23 23
26 26 27 28 28 27 25 25 26 23 26 26 25 24 24 23 22 22 21 21 22 22 22 22 21 22 22 22 22 22 23 22 22 22 22 22 22 23 23 23 24 23 23 23 23 23 24 23 23
26 27 28 29 27 27 25 25 25 25 26 27 26 25 24 24 23 23 22 22 22 23 22 23 22 23 23 23 23 22 23 23 23 23 23 23 23 23 23 23 24 24 24 24 24 24 24 25 25
24 27 26 28 28 27 27 26 25 25 27 26 26 25 25 24 24 23 23 22 22 23 23 23 23 23 23 23 23 23 23 23 23 24 24 24 23 24 24 24 23 24 24 24 24 25 25 25 26
28 25 26 26 29 26 27 24 26 26 28 26 26 26 25 26 25 24 23 23 24 24 24 23 24 24 23 24 23 23 23 23 23 24 24 24 23 23 24 24 24 24 24 25 24 24 24 25 25
27 25 24 28 27 26 25 25 24 26 26 26 26 26 26 26 25 24 24 23 23 24 24 24 23 24 24 24 24 23 24 23 24 24 24 24 24 24 24 24 24 24 24 24 25 25 25 25 24
24 24 27 26 25 26 25 23 24 26 26 27 27 27 27 26 26 25 24 23 24 25 24 24 23 24 24 25 24 24 24 24 24 24 24 24 24 24 24 24 24 25 24 25 25 25 25 25 25
25 24 27 28 26 25 25 24 25 25 26 27 28 28 27 26 26 24 24 24 24 25 24 24 24 24 24 25 24 24 24 24 24 24 24 24 24 24 24 24 24 24 25 25 24 25 25 25 26
26 27 27 29 28 26 26 24 24 24 25 27 28 27 27 27 25 25 24 24 23 24 24 24 24 24 24 24 24 24 24 24 24 24 24 24 24 24 24 24 24 25 25 25 25 25 25 25 25
27 27 28 25 25 25 24 25 24 24 24 26 27 27 26 26 25 24 24 24 23 24 24 24 24 24 24 25 25 24 24 24 24 24 24 24 24 24 24 24 25 25 25 25 25 25 25 25 25
26 26 28 26 24 24 24 24 24 24 23 24 25 26 26 26 25 24 24 23 23 24 24 24 25 25 24 24 24 24 23 24 24 24 24 24 24 24 24 24 25 25 25 25 25 25 25 26 26
25 26 29 26 25 25 24 24 23 24 23 23 24 25 26 25 25 24 24 24 24 24 24 24 25 25 25 24 24 25 25 24 24 24 24 24 24 23 24 24 24 24 24 25 25 25 25 25 25
25 28 29 27 24 24 25 24 24 23 23 23 23 24 25 25 25 25 25 24 24 24 24 25 25 25 25 25 25 25 24 24 24 24 24 24 24 23 24 24 24 24 24 25 25 25 25 25 25
28 29 25 23 22 24 24 25 23 23 25 24 24 25 25 26 25 25 25 24 23 23 23 25 25 25 25 25 25 25 25 24 24 24 24 24 24 23 24 24 25 25 25 25 25 25 25 25 25
26 24 23 23 23 24 23 24 24 21 25 25 24 24 25 23 23 24 23 23 23 24 23 24 25 24 24 24 24 25 25 24 24 25 24 24 24 24 23 24 24 25 25 24 25 25 25 25 25
24 24 22 25 22 25 24 25 22 20 22 23 22 22 23 22 22 23 23 23 22 23 23 24 24 24 24 24 24 24 25 24 25 25 24 25 24 24 24 24 24 24 24 24 24 25 25 25 25
26 25 24 23 23 23 22 21 22 21 18 19 20 20 19 19 20 21 22 23 22 23 23 24 24 24 24 24 24 24 24 24 24 25 24 24 25 25 24 24 24 24 24 24 24 24 24 25 25
26 25 25 21 25 25 22 22 21 21 19 18 18 18 18 18 17 18 19 21 22 22 23 23 23 23 24 24 24 24 24 24 24 24 24 24 25 24 24 24 24 24 24 24 24 24 24 24 24
25 25 21 21 21 22 21 21 21 19 18 16 17 17 17 17 17 17 17 19 19 21 23 22 22 22 23 24 23 23 23 24 24 24 24 24 24 24 24 25 24 24 24 24 24 24 24 24 24
23 24 22 23 24 19 19 20 19 17 16 16 15 16 16 16 15 15 16 16 18 19 21 21 21 20 20 21 23 22 23 23 24 24 24 24 24 25 24 24 24 24 24 24 24 24 24 23 24

GFSSGP_925_temp_090.txt.gz
Temp
21 22 22 22 23 23 23 23 23 24 25 25 25 25 24 24 24 22 20 20 22 21 21 21 21 22 21 21 21 20 21 21 21 21 21 21 21 21 21 21 21 21 21 21 21 21 20 20 20
22 22 21 21 23 23 23 23 25 25 26 25 25 26 25 22 22 19 19 21 21 21 21 22 22 21 21 21 21 21 20 20 20 21 21 21 21 21 21 21 21 21 21 21 21 21 21 21 20
22 22 21 22 22 23 23 23 23 24 26 26 24 25 24 22 20 20 20 21 21 21 22 22 21 21 21 21 21 21 21 20 20 20 20 21 21 21 21 21 21 21 21 21 21 21 21 21 20
22 21 22 23 23 24 24 23 24 24 26 26 24 22 23 22 21 20 20 21 21 21 22 21 21 20 21 21 21 20 20 21 21 20 21 21 21 21 21 21 21 21 21 21 21 21 21 21 20
22 22 23 23 22 24 23 23 23 23 26 26 25 22 22 20 21 20 21 21 21 21 21 21 21 21 21 21 20 21 20 20 20 20 21 21 21 21 21 21 21 21 21 21 21 21 21 21 20
22 22 24 24 24 23 23 23 23 23 25 24 23 22 21 20 20 20 21 21 21 21 21 21 21 21 21 20 21 20 20 20 21 21 21 20 21 21 21 21 21 21 21 21 21 22 21 21 20
23 23 25 25 24 23 24 23 23 24 25 24 24 22 21 20 20 20 21 21 21 21 21 21 21 21 21 21 21 20 20 20 21 20 21 21 21 21 22 22 21 21 21 21 21 22 22 21 21
23 23 25 25 24 24 23 23 26 25 24 25 24 22 21 20 20 20 20 21 21 21 20 20 20 21 21 21 21 21 20 20 20 20 21 21 21 21 21 21 21 21 21 21 22 22 22 22 21
24 23 24 25 25 25 24 25 26 26 25 26 25 23 22 20 20 20 20 20 20 20 20 20 20 20 20 20 21 20 20 20 20 20 21 21 21 21 21 21 21 21 21 22 22 22 22 22 22
23 22 25 26 25 25 25 26 26 25 25 24 22 22 21 20 20 19 19 20 20 20 20 20 20 21 21 20 21 20 20 21 21 21 21 21 21 21 21 21 21 20 22 22 22 22 22 23 23
23 23 26 26 26 26 25 25 25 25 23 24 21 21 21 20 20 20 19 20 21 21 20 21 21 21 21 21 21 21 21 21 21 21 21 21 22 21 21 22 22 22 23 23 23 23 23 22 23
24 25 27 26 27 26 26 24 26 26 25 25 23 22 21 21 21 20 20 20 21 21 21 21 21 21 21 21 21 21 22 22 22 22 22 22 22 22 22 22 22 23 23 23 23 23 23 23 23
24 25 27 27 27 26 25 25 26 24 25 24 23 23 22 22 21 21 21 21 21 21 22 22 22 22 22 22 22 22 22 22 22 22 23 23 23 23 23 23 23 23 23 23 24 23 24 24 24
26 25 27 26 26 26 26 25 24 25 23 24 23 23 22 22 22 21 21 22 22 22 22 22 23 22 22 22 22 22 22 23 23 23 23 23 23 23 23 23 24 24 23 23 24 24 24 25 25
26 24 27 27 25 26 27 24 25 25 23 24 24 23 23 23 22 22 22 22 22 23 23 23 23 23 23 23 23 23 23 23 23 23 23 23 23 23 23 23 24 24 24 24 24 25 24 25 25
25 24 24 26 26 25 25 24 25 25 24 24 24 24 24 23 23 23 23 23 23 23 23 23 23 23 23 23 23 23 23 23 23 24 23 23 23 23 24 24 24 24 24 24 24 24 24 24 24
22 23 25 25 26 25 25 24 25 24 25 24 24 25 24 25 23 23 23 23 23 23 24 23 23 23 23 23 23 23 23 23 23 24 24 23 24 24 24 24 24 24 24 24 24 24 24 25 25
22 23 24 25 25 24 25 24 24 25 25 25 24 25 25 24 23 24 24 24 24 23 24 24 23 23 23 23 23 23 23 23 23 23 23 24 24 24 24 24 24 24 24 24 24 25 25 25 25
24 24 24 28 25 25 24 23 24 24 25 25 26 25 25 25 25 24 24 24 23 23 24 23 23 23 23 23 23 23 23 23 23 23 23 23 23 24 24 24 24 24 24 25 25 25 25 25 25
26 26 24 23 25 24 21 23 24 24 24 26 26 26 26 25 24 23 23 23 23 24 24 23 23 23 24 24 24 24 23 23 23 23 23 23 23 24 24 24 24 24 24 25 25 25 25 25 25
25 25 26 25 23 23 23 23 23 23 24 23 25 26 26 25 23 23 22 22 23 23 23 23 24 24 24 24 24 24 23 23 23 23 23 23 23 23 24 24 24 24 24 25 25 25 25 25 25
25 25 28 24 24 24 24 24 22 23 23 23 23 25 25 25 24 23 23 22 22 23 24 23 24 24 24 24 24 24 24 24 24 24 24 23 23 23 24 24 24 24 24 24 25 25 25 25 25
25 26 28 25 23 23 23 24 24 23 23 23 23 24 25 24 24 23 24 23 23 23 23 23 24 24 23 24 24 24 24 24 24 24 24 23 23 23 23 24 24 24 24 24 24 25 25 25 25
25 27 23 22 21 23 23 24 23 21 23 24 24 24 24 24 23 24 24 24 23 23 23 23 24 24 24 24 24 24 24 24 24 24 23 24 23 23 23 23 24 24 24 24 24 24 25 25 25
25 22 23 22 22 22 21 24 24 21 21 23 24 23 24 24 23 23 23 22 22 23 23 23 24 24 24 24 24 24 24 24 24 24 24 24 23 24 24 24 24 24 24 24 24 24 24 25 25
22 22 21 23 21 23 22 24 23 20 20 22 23 22 22 20 21 22 22 22 22 23 23 23 23 24 24 24 24 24 24 24 24 24 24 24 24 24 24 24 24 24 24 24 24 24 24 25 25
24 23 23 21 21 22 21 22 21 20 20 20 19 19 19 20 21 21 21 22 21 22 22 23 23 23 24 24 23 23 24 24 24 24 24 24 24 24 24 24 24 24 24 23 24 24 24 24 24
24 23 23 20 23 24 21 21 21 20 19 19 19 19 18 18 18 19 19 21 21 21 22 22 23 22 22 23 23 23 23 24 24 24 24 24 24 23 24 24 24 24 24 23 23 23 23 23 24
24 23 19 19 20 20 21 21 20 20 19 18 18 18 17 17 17 17 17 19 20 21 21 22 22 22 23 21 22 23 23 23 23 23 24 24 23 23 23 24 23 24 24 23 23 23 23 23 23
23 22 20 21 22 18 19 22 18 17 16 17 17 17 16 16 16 16 16 17 19 20 20 21 22 22 21 21 22 23 22 22 22 22 23 23 24 24 24 24 23 23 23 23 23 23 24 23 23

GFSSGP_925_temp_093.txt.gz
Temp
21 21 22 23 25 27 25 25 25 25 26 27 27 27 27 25 26 26 22 21 21 22 21 21 21 21 21 21 21 20 21 21 21 21 21 21 21 21 21 21 21 21 21 21 21 21 20 20 20
21 22 22 25 25 27 26 26 26 27 27 27 27 28 27 25 23 22 22 21 22 22 22 22 21 21 21 21 21 21 20 21 21 21 21 21 21 21 21 21 21 21 21 21 21 21 21 20 20
22 22 24 24 23 26 26 25 26 27 28 27 27 27 26 23 22 22 22 21 21 21 22 21 21 21 21 21 21 21 21 20 21 21 21 20 21 21 21 21 21 21 21 21 21 21 21 20 20
23 23 24 23 24 25 26 26 26 27 28 27 27 25 24 23 23 21 21 21 22 21 22 21 21 21 21 21 20 20 20 20 20 21 21 21 21 21 21 21 21 21 21 22 22 22 21 20 20
23 23 22 23 24 25 25 25 26 27 28 27 27 24 23 22 21 21 21 22 22 22 22 22 21 21 21 21 21 21 21 21 21 21 21 21 21 21 21 21 21 21 21 21 21 22 21 20 20
22 23 24 23 25 24 24 24 26 27 27 26 26 25 23 21 22 21 22 22 22 22 22 22 21 21 20 21 21 20 20 21 20 21 21 20 21 21 21 21 21 21 21 21 21 21 21 20 20
23 24 25 25 24 24 25 25 26 27 26 26 26 25 23 22 22 21 21 21 22 22 22 21 21 21 21 21 21 20 20 20 20 20 21 21 21 21 21 21 21 21 21 21 22 22 21 21 21
24 24 25 26 24 25 25 24 27 27 26 27 27 25 22 22 21 21 21 21 21 21 22 21 21 20 21 21 20 20 21 20 20 20 21 21 21 21 21 21 21 21 21 22 21 22 22 21 21
25 24 25 26 26 25 25 26 27 27 27 27 26 26 25 22 21 22 21 21 21 21 21 21 21 20 20 21 21 20 20 20 20 21 21 21 21 21 22 21 21 21 22 22 22 22 22 22 21
26 25 26 27 29 26 26 27 27 27 26 24 24 24 22 22 22 22 22 21 22 21 21 21 21 21 21 21 20 20 20 20 20 21 21 21 21 21 22 21 21 22 22 22 22 23 22 22 22
25 26 27 28 29 28 27 27 28 27 27 26 24 24 23 23 23 23 23 22 22 21 21 21 20 20 21 20 21 20 21 20 20 21 21 21 21 21 21 21 21 22 23 22 22 22 22 22 22
26 27 27 28 28 27 26 27 27 28 27 27 26 25 24 24 24 24 24 23 22 21 21 21 20 20 20 20 21 20 21 21 21 21 22 21 21 21 21 21 22 23 23 23 23 23 23 23 23
26 27 28 28 28 27 26 27 27 26 26 26 25 24 25 25 24 24 24 23 22 22 21 21 21 21 21 21 21 21 21 21 21 22 23 22 22 22 23 23 22 23 24 24 24 24 23 24 24
27 28 28 28 27 27 26 26 27 24 26 25 25 25 26 25 24 24 23 23 22 22 22 21 21 22 22 22 22 21 21 22 22 22 23 23 23 23 23 23 23 23 24 24 24 24 24 24 24
28 27 28 28 27 26 26 25 24 24 26 26 26 26 26 25 24 24 24 24 23 23 22 22 21 21 22 22 22 22 22 22 23 23 23 23 23 23 23 23 23 24 24 24 24 24 24 24 24
27 28 27 27 28 23 24 26 25 23 24 26 26 26 25 26 25 25 24 24 23 23 22 22 22 21 22 23 23 22 23 22 23 23 23 23 23 23 23 23 23 24 24 24 24 24 24 24 24
25 28 27 27 27 24 24 23 25 23 26 27 26 26 26 26 25 25 25 24 23 23 22 22 22 21 21 23 22 23 23 23 23 23 23 23 23 24 24 23 24 24 24 24 24 24 24 24 24
26 27 28 28 27 26 24 24 23 22 25 26 27 27 27 26 26 25 25 24 24 23 22 22 22 22 22 22 22 22 22 23 23 23 23 23 24 24 24 24 24 24 23 24 24 25 25 24 24
28 28 27 28 27 27 26 24 24 24 26 25 27 27 26 25 27 26 25 25 24 23 22 22 22 23 23 22 21 22 22 22 23 23 23 23 23 24 24 24 24 24 23 24 24 24 24 25 25
29 29 29 27 27 26 24 24 23 25 26 27 27 27 27 28 27 26 25 25 24 24 23 22 22 23 23 22 22 22 22 22 22 23 23 23 24 24 24 24 24 24 24 24 25 25 25 25 25
29 29 28 29 24 24 23 22 24 25 26 27 27 28 28 28 28 27 26 25 25 24 23 22 23 24 23 22 22 23 23 22 22 23 23 23 23 23 24 24 24 24 24 24 24 25 25 26 24
29 29 29 27 28 26 26 23 24 26 25 25 27 28 29 29 28 27 26 25 25 24 23 23 24 24 23 23 22 23 23 24 23 23 22 23 23 23 23 23 24 24 24 24 24 24 24 25 25
29 28 30 28 27 27 25 24 26 25 25 25 26 28 29 29 29 28 26 26 26 24 24 23 23 23 23 23 23 23 24 23 23 23 23 23 23 23 23 23 24 24 24 24 25 25 25 24 24
29 28 28 27 29 28 28 28 28 26 27 27 27 27 27 28 29 27 24 25 24 24 23 23 22 23 23 23 23 23 23 24 23 23 23 22 23 22 23 23 24 24 24 24 24 25 25 24 24
29 28 26 28 28 29 27 28 31 27 25 26 27 27 27 27 27 27 25 24 24 24 23 24 22 22 23 22 22 23 23 23 24 24 23 23 23 23 23 24 24 23 24 24 24 24 25 25 24
28 30 28 27 27 29 26 29 30 23 22 23 25 28 27 27 27 27 26 23 22 23 23 24 23 22 22 22 22 23 23 22 23 24 23 23 23 24 24 24 23 24 24 24 24 23 23 24 24
27 28 31 28 26 30 29 28 24 23 22 23 25 27 27 26 25 26 26 24 23 23 23 23 22 22 22 22 22 23 23 23 23 24 24 23 24 23 24 24 24 24 24 24 24 23 23 24 24
29 30 29 28 27 28 27 27 30 24 21 21 22 21 21 23 24 23 24 24 24 21 22 22 22 22 22 21 22 23 23 24 23 23 23 24 23 23 23 23 24 24 24 24 23 23 23 23 23
28 28 27 30 28 30 29 29 24 25 23 21 19 20 19 19 20 20 20 21 21 21 22 21 21 22 21 22 22 23 23 23 23 23 23 23 23 23 23 23 23 23 24 24 23 23 23 23 22
27 27 28 30 27 27 29 30 21 22 23 21 20 20 20 19 18 18 18 20 20 20 21 21 21 21 21 22 22 23 21 22 23 23 23 23 23 23 23 23 23 24 23 23 23 23 22 22 23

GFSSGP_925_temp_096.txt.gz
Temp
23 24 25 27 30 32 30 29 30 29 29 31 31 31 30 30 30 28 27 25 25 25 24 22 21 21 21 21 21 21 21 21 21 21 21 21 21 21 21 21 21 21 21 21 21 21 20 20 20
25 24 26 29 29 31 29 30 29 30 30 31 31 31 31 28 28 28 26 25 25 25 25 24 22 21 21 21 21 20 21 21 21 21 21 21 21 21 21 21 21 21 21 21 21 21 21 21 20
25 23 28 25 28 31 29 30 30 30 31 30 30 31 29 27 28 28 26 25 26 25 25 22 21 21 20 21 21 21 20 21 21 21 21 21 21 21 21 21 21 21 21 21 21 21 21 20 20
26 27 25 25 30 28 30 30 31 30 30 30 30 28 27 28 27 27 25 26 26 25 26 22 21 21 21 21 20 20 20 20 21 21 21 21 21 21 21 21 21 21 21 21 21 21 21 21 20
27 23 25 26 29 29 31 30 31 30 29 30 30 28 27 26 26 26 26 27 26 26 25 23 21 21 21 21 20 20 20 21 21 21 21 21 21 21 21 21 21 21 21 21 21 21 21 21 20
27 24 26 29 29 29 29 30 31 31 30 29 30 29 27 26 26 26 26 26 26 27 26 23 21 21 20 20 20 20 20 20 21 21 21 22 22 21 21 21 21 21 21 21 21 21 20 20 20
26 25 28 28 28 28 29 30 31 31 31 30 31 29 27 27 26 26 26 26 26 26 26 25 24 21 20 21 20 20 20 20 20 21 21 21 21 21 21 21 21 21 21 21 22 21 21 21 21
28 25 26 27 27 29 29 30 31 31 30 31 31 28 26 27 25 26 26 26 26 26 25 25 24 24 24 22 20 20 20 21 21 21 21 21 21 22 21 22 21 21 21 21 22 22 22 21 21
27 27 25 27 27 28 28 30 31 32 30 30 30 31 27 26 26 26 26 26 26 26 26 26 25 23 22 22 21 21 20 21 22 22 22 23 24 23 22 22 21 21 22 22 22 22 22 22 22
28 28 27 31 30 30 30 31 30 30 29 29 30 29 27 26 27 27 27 27 26 26 26 25 25 25 24 24 23 23 23 24 23 23 23 24 23 23 24 22 22 23 23 23 23 22 23 23 24
29 28 30 31 31 31 30 30 31 31 29 30 29 28 27 27 27 28 28 27 27 26 26 25 24 23 24 23 24 24 24 23 23 23 24 24 24 24 24 23 24 24 24 25 24 24 25 23 25
29 30 30 32 32 31 30 31 30 31 31 31 30 29 28 28 28 28 28 27 27 26 25 25 24 22 24 24 25 24 24 24 24 23 23 23 24 24 25 25 24 25 25 24 25 25 24 24 24
29 30 31 32 31 29 30 30 30 29 30 31 30 29 29 29 29 28 28 27 26 26 25 25 23 23 23 24 24 24 24 25 24 24 23 24 24 24 24 24 25 25 25 25 25 25 25 25 25
30 30 31 31 29 28 30 30 31 29 30 30 29 30 30 30 29 28 28 27 26 26 25 24 23 23 23 23 23 24 25 24 25 25 23 23 24 24 24 24 25 25 26 25 25 25 26 27 27
28 30 30 30 29 29 29 28 28 29 30 29 30 30 30 30 29 28 28 27 27 26 25 24 24 23 23 23 23 25 25 25 25 24 23 23 24 23 24 25 25 25 24 25 25 26 26 27 27
29 31 28 28 29 26 25 27 26 27 29 29 30 30 30 30 29 28 28 27 27 26 25 24 25 24 24 24 24 25 25 25 25 25 24 23 23 23 24 25 25 25 25 26 26 27 27 27 28
26 29 30 28 28 25 24 25 26 24 26 30 30 30 30 30 29 28 28 27 27 26 25 25 25 24 24 23 24 24 24 25 25 25 25 23 23 23 25 25 25 24 25 26 27 27 27 27 28
26 30 32 30 27 24 23 22 25 22 24 30 31 31 31 30 30 29 28 28 27 26 25 25 25 24 23 23 23 25 25 25 25 25 25 23 24 23 25 25 24 25 26 26 26 26 27 27 27
29 27 32 32 28 23 24 23 23 22 23 30 31 31 31 31 30 29 28 28 27 26 25 25 24 23 23 23 25 25 26 25 25 25 23 23 24 23 24 25 24 25 26 25 25 27 26 28 27
32 31 32 32 30 29 23 23 23 23 23 28 30 31 31 31 31 30 29 28 28 26 26 25 24 23 23 24 25 25 26 25 25 25 24 24 24 23 24 24 25 25 26 25 25 25 28 28 27
33 33 33 31 27 28 26 24 24 23 22 26 30 32 32 31 32 31 29 29 28 27 26 25 24 24 23 24 24 23 24 24 24 24 24 24 24 24 24 24 25 24 25 26 25 26 26 29 27
33 33 33 30 30 26 26 25 25 24 22 24 29 31 31 31 32 31 30 29 29 28 26 25 24 24 23 23 24 23 23 24 24 26 26 25 24 24 24 24 24 24 26 25 25 26 26 26 28
32 33 33 33 31 28 27 29 27 23 24 27 29 31 32 32 33 32 31 30 29 28 27 26 25 24 24 23 24 24 24 24 25 26 24 25 24 24 24 23 24 24 25 24 25 25 25 27 28
32 32 32 33 32 30 30 30 27 28 27 29 30 31 32 33 33 32 31 30 30 29 28 27 25 24 23 23 23 23 24 24 23 24 25 26 26 24 24 24 24 24 24 24 25 24 25 26 26
31 32 30 30 31 32 33 31 31 29 29 30 29 30 31 33 33 32 31 30 29 29 27 27 25 24 24 23 24 23 24 23 24 24 24 26 25 25 24 23 23 24 23 24 24 24 24 25 26
30 32 31 28 31 33 31 31 32 32 29 29 31 30 31 32 33 32 27 26 26 28 27 23 25 25 24 24 24 23 23 24 24 25 24 24 25 25 25 24 24 24 24 24 24 25 25 25 25
31 30 33 32 32 33 33 33 28 28 28 29 30 30 31 31 32 32 30 29 27 26 24 24 23 25 24 24 24 23 23 23 25 23 23 24 24 26 24 24 24 24 24 24 24 25 24 25 25
32 33 31 32 30 31 33 32 32 28 28 25 29 30 32 31 31 31 30 28 24 22 23 24 24 23 23 24 25 23 24 24 24 24 23 24 24 24 24 24 24 24 24 23 23 25 24 24 25
31 31 32 34 33 33 32 33 32 31 29 25 24 24 26 29 29 28 28 28 26 22 20 21 21 22 23 22 23 23 24 24 24 24 24 24 24 23 23 23 24 24 24 24 23 24 24 24 24
33 32 32 32 31 33 33 32 28 29 28 27 23 23 22 22 21 22 24 24 23 23 20 21 21 20 21 22 21 22 23 23 24 23 24 23 23 23 23 23 23 24 24 24 23 24 25 24 24

GFSSGP_925_temp_099.txt.gz
Temp
24 25 28 30 27 31 33 32 33 33 33 35 35 34 33 32 31 29 29 29 28 27 24 22 21 21 21 20 21 21 21 21 21 21 21 21 21 21 21 21 21 21 21 21 21 21 21 21 21
28 28 29 32 28 32 31 33 32 33 33 33 34 33 31 30 32 31 29 28 27 27 26 24 21 21 21 21 21 21 21 21 21 21 21 21 21 21 21 21 21 21 21 21 21 21 21 21 20
26 26 29 26 27 31 32 33 33 33 33 34 32 31 31 30 31 31 29 27 27 26 27 22 21 21 21 21 21 21 21 21 21 21 21 21 21 21 21 21 21 22 21 21 21 20 21 21 20
29 30 28 28 27 32 33 33 33 32 32 34 33 30 32 31 31 30 28 26 27 26 25 22 21 21 20 21 21 21 21 21 21 21 21 21 21 21 21 21 21 21 21 21 21 21 21 21 20
28 29 29 26 31 32 34 33 33 32 32 31 32 31 30 30 30 29 27 26 29 27 26 23 21 21 21 20 20 21 21 21 21 21 21 21 21 21 21 21 21 21 21 21 21 21 21 20 20
28 26 30 30 30 32 33 33 33 32 31 32 31 31 30 30 28 29 27 29 29 26 26 23 21 21 20 20 20 21 21 21 21 21 21 21 22 21 21 21 21 21 21 21 21 21 21 20 20
28 25 28 31 30 32 32 34 33 33 33 32 33 30 30 30 29 30 30 30 30 27 26 26 24 22 21 20 21 21 21 21 21 21 21 21 21 21 21 21 21 21 21 21 21 21 21 21 22
29 23 28 28 32 31 33 34 34 34 32 34 33 30 30 30 30 30 30 30 29 28 28 27 24 23 24 23 21 20 21 21 21 21 21 22 21 22 22 22 21 21 21 21 21 22 22 23 23
31 26 27 28 33 32 33 33 34 32 33 33 34 33 32 30 31 30 30 29 29 27 29 27 26 25 25 24 22 21 22 22 23 22 22 23 25 24 23 23 21 22 22 22 23 23 23 24 24
30 29 28 31 35 33 33 33 32 33 32 32 33 32 30 30 30 31 30 30 30 30 30 28 27 25 25 25 23 24 23 24 25 24 23 24 24 25 25 23 23 23 24 24 24 24 24 24 24
30 29 31 33 35 34 33 32 34 31 31 33 31 31 31 31 31 31 31 30 30 30 28 27 25 26 27 25 26 25 25 26 24 23 24 25 25 25 25 24 24 24 24 24 25 24 25 26 27
31 32 31 34 34 34 33 34 33 34 34 34 32 32 31 32 32 32 31 31 30 29 28 27 24 26 26 26 28 26 27 26 25 25 25 25 26 26 26 26 26 26 26 26 27 26 26 26 27
32 31 32 32 34 34 34 33 34 33 34 34 33 32 32 33 32 31 31 30 29 28 28 27 24 24 26 27 27 27 27 27 25 26 26 27 26 26 26 27 27 27 27 27 27 27 27 27 27
31 32 32 31 33 31 33 33 34 32 34 33 32 32 33 33 32 31 31 30 29 28 28 26 26 24 24 26 26 26 27 27 27 26 26 26 26 25 26 26 27 27 27 27 27 27 28 28 28
31 30 30 29 32 29 31 31 31 32 33 32 32 33 33 33 32 31 30 30 29 28 27 26 26 25 24 25 25 27 27 27 26 26 25 25 25 25 26 26 27 27 26 26 27 27 28 29 28
31 29 26 28 32 29 30 27 31 32 32 32 33 33 33 33 32 31 30 30 29 28 27 27 27 26 25 25 26 26 27 27 26 27 25 25 24 25 26 27 27 27 27 28 28 29 29 29 29
30 26 28 27 30 26 28 26 29 32 32 33 33 33 33 33 32 31 30 30 29 27 27 27 27 27 26 25 25 26 26 27 27 26 26 25 25 25 25 27 26 25 28 28 29 29 29 29 30
29 25 30 28 27 28 23 22 25 27 25 32 32 33 33 33 32 31 30 30 29 27 27 27 27 26 25 26 26 25 25 26 26 26 25 25 25 25 25 27 26 26 28 28 27 27 28 29 29
26 24 24 29 26 25 25 24 23 23 24 26 32 32 32 32 32 31 31 30 29 28 27 27 26 25 24 24 27 26 26 26 26 26 25 25 25 25 25 26 26 27 27 26 27 27 27 29 29
33 27 22 26 28 27 24 23 23 22 23 24 28 32 33 33 32 31 31 31 30 28 28 27 26 24 24 25 26 26 26 27 27 26 26 25 25 25 26 26 26 26 27 26 26 27 28 30 29
35 30 25 22 26 25 24 23 23 21 21 23 25 31 33 33 33 32 31 31 30 29 28 27 27 24 25 25 25 25 26 25 26 25 26 25 25 25 25 25 24 26 26 27 26 27 27 29 29
34 30 25 23 30 26 25 24 25 22 22 21 28 30 32 32 31 33 32 32 31 29 28 27 26 25 25 25 26 24 24 24 25 25 25 25 25 26 25 25 25 25 26 26 26 28 27 28 30
33 34 26 25 30 30 27 29 27 26 22 22 28 30 31 32 32 29 33 32 32 30 29 28 26 26 26 25 25 25 26 26 26 25 26 25 25 26 26 25 25 25 26 26 26 26 26 28 28
35 34 35 33 32 26 31 32 29 28 24 22 24 27 30 31 30 31 33 32 32 31 29 28 26 26 25 25 25 25 25 26 25 24 25 27 26 26 25 25 25 25 26 25 26 26 26 25 27
34 34 32 32 25 33 33 33 32 31 25 24 24 27 31 28 33 31 33 31 31 31 30 28 27 25 25 25 25 25 25 24 24 25 26 24 24 24 25 25 24 25 25 25 25 25 25 26 27
33 35 33 31 32 32 32 32 31 33 31 31 30 31 32 33 29 32 32 31 31 30 30 29 27 26 25 25 25 25 25 26 26 26 26 27 26 27 25 25 25 25 25 25 25 26 26 27 26
33 33 36 32 34 29 32 31 32 34 33 32 31 33 31 33 31 32 33 31 29 30 30 29 26 26 26 26 25 24 24 25 25 24 25 26 26 25 26 25 25 25 25 25 25 25 26 25 26
34 35 33 35 31 30 32 33 33 30 31 32 32 33 32 32 34 32 31 30 27 27 25 25 25 25 25 26 26 24 24 24 25 25 24 25 24 23 24 25 25 25 25 25 25 26 26 26 26
33 33 34 35 35 34 32 33 34 32 32 31 33 34 34 33 33 33 31 31 29 26 24 24 23 23 24 24 25 25 25 25 25 25 25 25 25 24 24 24 25 25 25 25 25 24 25 25 26
35 34 34 33 33 35 35 27 34 33 32 31 28 28 28 30 32 32 31 28 25 24 21 22 23 23 22 22 23 23 24 25 25 25 25 25 25 24 24 24 24 25 24 25 25 24 26 25 25

GFSSGP_925_temp_102.txt.gz
Temp
26 25 26 29 26 27 33 33 35 34 35 36 35 33 32 32 32 27 28 28 27 24 22 21 21 21 20 21 21 21 21 21 21 21 21 21 21 21 21 21 21 21 20 21 21 21 21 21 22
26 28 30 25 26 28 32 34 33 34 34 33 33 33 32 30 31 29 29 28 27 26 24 22 21 21 21 21 21 21 21 21 21 21 21 21 21 21 21 21 21 21 21 21 21 21 21 21 22
25 28 28 25 24 29 32 33 33 33 34 29 27 33 32 30 32 30 28 27 27 25 23 21 21 21 21 21 20 20 21 21 21 21 21 21 21 21 21 21 21 21 21 21 21 21 21 21 22
28 30 29 23 25 32 33 33 33 33 34 32 32 31 32 31 31 29 28 27 27 25 22 21 21 21 21 21 21 21 21 21 21 21 21 21 21 21 21 21 21 21 21 21 21 21 21 21 22
29 31 27 24 26 34 34 34 33 32 32 32 33 31 30 30 29 29 27 28 28 25 23 21 21 21 21 21 21 21 21 21 21 21 21 21 21 21 21 21 21 21 21 21 21 21 20 22 23
27 29 25 27 32 34 34 34 33 32 32 30 32 31 29 29 29 29 27 25 28 26 24 22 21 21 21 21 21 21 21 21 21 21 21 21 21 21 21 21 21 21 21 21 21 21 21 23 24
28 26 27 30 32 33 33 34 31 32 32 32 33 30 29 30 30 29 26 26 28 27 25 23 22 21 21 21 21 21 21 21 21 21 22 22 21 21 21 21 21 21 21 21 21 22 23 24 24
27 23 25 26 31 31 34 34 34 34 28 34 33 30 28 30 29 30 28 28 28 27 26 24 23 22 22 21 21 21 21 21 21 22 22 22 21 23 22 22 21 21 21 21 22 23 24 25 25
30 23 24 24 32 32 35 33 34 35 33 33 33 32 30 31 31 31 30 29 29 26 25 24 25 24 23 22 21 21 21 22 22 22 23 23 23 23 22 23 22 22 23 24 24 24 23 24 25
28 25 25 27 32 34 35 33 32 32 33 33 33 33 32 32 32 32 31 29 29 27 26 26 26 25 25 24 23 22 23 23 23 23 23 23 24 24 24 24 23 23 23 24 24 24 23 22 24
28 24 27 27 28 35 34 33 33 32 31 34 32 32 33 33 32 32 32 31 31 28 26 26 26 25 25 24 24 24 24 23 23 24 24 25 25 25 24 25 23 23 25 23 24 25 24 24 26
30 31 30 32 31 35 33 33 34 33 33 34 33 32 33 33 33 32 32 32 30 28 26 26 26 27 26 25 25 25 25 24 24 24 25 25 25 26 25 24 22 23 23 24 24 26 26 27 28
29 30 32 30 33 34 33 33 31 32 31 34 33 33 33 33 33 33 32 31 30 29 26 26 26 26 26 27 27 27 26 24 25 25 26 26 26 26 24 24 24 23 26 26 26 26 26 27 28
31 31 31 32 29 34 34 35 33 29 34 33 33 33 34 34 33 32 32 31 30 29 25 25 25 25 26 26 27 27 27 26 26 26 26 25 26 25 26 23 25 26 26 27 27 25 27 27 27
33 31 29 29 30 32 34 33 31 34 34 33 33 33 34 34 33 32 31 31 29 29 26 26 25 25 25 26 26 27 27 26 26 26 25 25 25 24 27 25 27 27 28 27 27 28 28 28 28
32 31 28 27 27 31 30 28 31 34 33 33 33 33 33 33 33 32 31 30 29 28 27 26 26 25 25 26 25 26 26 27 26 26 25 25 25 24 24 25 26 27 27 27 27 28 29 29 28
29 28 29 28 30 29 30 26 26 34 33 33 33 33 33 33 32 32 31 30 29 28 27 27 27 26 25 25 26 26 26 26 26 26 25 25 25 26 26 26 27 27 26 27 27 28 28 29 29
29 28 29 28 25 28 25 23 30 31 32 33 32 33 33 33 32 32 31 30 28 27 27 27 27 26 26 25 25 26 26 26 26 26 25 25 25 25 25 26 26 26 26 27 28 28 28 28 28
27 25 27 23 24 27 25 23 23 25 28 26 32 32 32 33 32 32 31 30 28 28 27 27 26 26 26 25 25 26 26 26 25 25 25 25 25 25 25 26 27 23 26 27 28 27 27 29 29
26 25 23 21 22 22 25 23 23 23 24 24 25 26 32 33 32 31 30 30 29 28 27 27 25 25 25 25 25 25 25 25 25 25 25 25 25 25 25 26 25 27 26 27 27 27 27 29 29
30 29 23 22 20 21 25 23 23 22 21 23 24 26 24 31 31 31 31 31 29 28 27 26 25 24 25 24 25 24 25 24 25 25 26 25 26 25 25 25 25 25 25 26 26 27 27 28 29
27 26 25 22 21 22 25 24 23 21 22 21 23 24 26 29 30 32 31 31 30 29 28 26 25 24 24 25 25 25 24 24 25 24 23 25 26 26 26 25 25 24 23 25 26 27 27 27 28
29 29 26 23 21 21 24 27 24 23 22 22 23 24 26 28 31 30 31 31 30 29 28 27 26 25 26 25 25 25 25 25 24 24 23 24 25 26 26 26 25 25 24 24 27 26 27 26 26
31 31 25 23 21 23 28 29 25 24 25 24 24 25 25 28 31 27 30 30 30 29 28 27 26 25 25 25 25 24 25 25 24 23 24 23 24 25 26 25 25 25 24 25 25 26 26 26 26
33 32 28 25 23 26 24 30 27 27 28 26 24 23 24 27 29 31 28 30 30 29 28 27 26 25 25 25 25 25 24 25 24 25 25 25 25 25 25 25 25 25 25 25 25 25 25 26 26
34 32 31 26 27 26 24 29 29 29 29 27 26 26 24 25 26 29 27 26 30 29 28 27 26 25 25 25 25 25 25 25 25 25 25 24 23 23 24 24 25 25 25 25 25 25 26 26 26
34 33 35 32 30 30 26 28 30 30 28 28 28 26 24 24 24 25 25 27 26 25 25 27 26 25 25 26 25 25 25 25 25 25 25 25 23 23 24 24 24 25 25 26 25 26 26 25 25
35 36 33 30 29 29 29 26 29 29 29 28 28 28 26 25 24 27 24 23 26 25 23 25 26 25 25 26 25 24 24 24 25 25 25 24 23 24 23 24 24 25 25 25 25 25 25 25 26
34 34 35 35 34 29 30 28 27 32 31 31 32 31 30 30 27 22 24 24 25 24 24 25 25 25 25 26 25 25 24 25 25 25 25 25 24 24 23 24 25 25 25 25 25 25 24 24 25
35 34 35 33 33 34 34 30 26 26 31 32 33 33 30 32 27 23 23 22 25 25 25 24 24 25 25 25 24 24 24 23 25 25 24 25 25 24 24 24 24 24 24 25 25 24 25 25 25

GFSSGP_925_temp_105.txt.gz
Temp
26 26 24 23 24 25 29 31 32 30 30 32 32 31 29 30 27 23 23 23 22 22 21 21 21 21 21 21 21 21 21 21 21 21 21 21 21 21 20 21 21 21 21 21 21 21 21 21 21
27 25 25 21 24 26 29 31 30 29 30 31 31 29 27 26 28 25 23 23 23 22 21 21 21 21 21 21 21 21 21 21 21 21 21 21 21 21 21 21 21 21 21 21 21 21 22 22 22
26 25 24 21 24 27 28 30 30 29 31 31 30 30 29 27 28 27 25 24 23 22 22 21 21 21 21 21 21 21 21 21 21 21 21 21 21 21 21 21 20 21 21 21 21 21 22 23 23
25 27 25 24 25 27 30 30 30 29 30 31 30 29 29 28 28 26 25 25 24 22 22 21 21 21 21 20 21 21 21 21 21 21 21 21 21 21 21 21 21 21 21 21 21 21 23 23 23
27 27 24 24 27 31 31 31 30 31 30 30 28 27 26 28 27 27 25 24 23 21 21 21 21 21 21 21 21 21 21 21 21 21 21 21 21 21 21 21 21 21 21 21 21 22 23 23 23
26 26 23 25 28 31 31 31 31 30 30 29 28 27 26 28 27 27 25 24 23 21 22 21 21 21 21 21 21 21 21 21 21 21 21 21 21 21 21 21 21 21 21 21 22 23 24 24 24
26 24 25 27 30 30 31 32 31 30 31 29 29 26 26 26 27 27 25 24 24 23 22 22 21 21 21 21 21 21 21 21 21 21 21 21 21 21 21 21 21 21 21 21 23 24 24 24 24
23 22 24 27 31 29 32 32 32 31 31 30 29 27 25 26 27 27 26 25 24 23 22 22 22 22 21 21 21 21 21 21 21 21 21 22 22 22 22 22 21 22 22 22 23 24 24 24 24
25 22 23 25 30 30 30 28 31 31 32 30 31 29 28 28 27 26 25 25 24 23 23 22 22 22 22 22 21 21 21 22 22 22 23 23 23 23 23 23 23 22 22 23 24 24 25 25 25
25 23 23 25 25 29 32 31 31 31 31 30 29 29 29 29 28 27 26 24 25 24 24 23 23 23 23 22 23 23 23 23 23 23 23 23 23 24 23 23 22 22 22 22 23 25 25 25 26
24 23 23 25 25 25 32 31 32 30 28 30 28 29 30 30 28 28 28 25 25 25 24 24 24 24 24 24 23 23 23 23 23 24 24 23 24 23 23 22 22 23 23 23 23 23 25 25 26
27 25 24 25 23 26 31 32 31 30 31 31 30 30 31 30 29 30 28 25 26 26 26 25 25 25 25 24 23 23 23 24 24 25 24 24 24 24 23 24 24 26 26 25 24 24 25 25 26
29 29 24 23 23 25 32 32 31 32 32 31 31 31 30 31 30 30 28 26 26 26 26 26 25 25 25 25 24 23 24 25 25 24 24 25 24 24 23 25 26 25 25 24 25 26 25 26 27
29 27 26 24 24 23 30 29 30 31 32 31 31 30 31 31 31 30 28 25 26 26 26 26 25 26 25 25 25 25 26 26 24 25 24 24 24 24 24 24 25 24 24 24 26 27 26 27 27
28 27 28 24 24 27 29 30 29 31 32 31 31 31 32 30 30 29 29 26 26 26 25 26 25 26 26 26 25 26 25 25 25 25 25 25 26 25 25 24 24 25 25 24 27 27 27 27 27
30 29 26 26 24 25 28 27 28 29 31 30 31 31 32 30 30 29 29 27 26 26 26 26 26 26 26 26 26 26 26 26 26 26 25 24 25 25 25 25 26 25 26 25 26 26 27 27 27
27 25 26 26 23 23 28 27 29 30 31 30 30 30 31 30 30 30 29 28 26 26 26 26 26 25 25 26 25 25 26 26 26 25 25 25 25 25 25 25 25 26 26 26 27 27 28 28 28
27 25 28 25 21 22 25 25 25 26 31 30 31 30 30 30 30 29 29 28 27 27 26 26 26 26 25 25 25 26 26 26 25 25 25 25 25 25 25 25 25 26 26 27 27 27 28 28 29
26 26 24 22 21 21 24 24 23 23 25 25 30 28 30 29 30 29 28 27 27 27 27 26 26 26 25 25 25 25 25 25 25 25 25 25 25 25 25 25 26 26 26 26 26 27 27 28 28
26 24 23 21 21 21 21 24 23 22 23 23 24 25 27 29 30 28 27 27 27 27 26 25 26 25 25 25 25 25 25 25 25 25 25 25 25 25 25 25 25 24 25 26 27 27 26 27 29
26 25 24 23 21 20 21 23 23 23 22 23 24 24 25 26 29 28 27 27 27 26 26 25 25 26 25 25 25 25 25 25 25 25 25 25 26 25 25 25 25 25 26 26 26 26 26 26 27
26 26 24 22 22 22 20 23 23 23 23 23 23 25 24 24 27 28 28 27 26 27 27 26 25 25 25 25 24 25 25 25 25 25 25 25 26 26 25 25 25 25 25 26 25 25 26 26 26
25 25 25 24 21 22 22 23 23 22 23 24 25 25 24 26 27 29 29 28 27 26 27 26 26 25 25 25 24 24 25 25 24 24 25 25 25 25 26 25 25 25 25 26 25 25 26 26 26
27 25 23 22 22 22 23 22 23 22 24 26 26 25 25 25 26 26 30 29 27 26 26 26 25 25 25 24 24 24 24 24 24 24 23 24 24 25 25 26 25 24 24 25 25 25 25 26 26
25 23 22 22 22 22 23 23 23 26 25 25 25 24 25 24 24 26 27 27 28 27 25 25 25 25 25 25 25 25 25 24 24 24 24 24 24 24 25 25 25 25 25 25 25 25 25 26 25
26 25 23 24 23 24 25 24 24 27 27 27 25 25 24 24 24 25 27 25 27 27 26 26 25 25 25 25 24 24 25 25 25 24 23 24 24 24 24 24 24 24 24 25 25 25 25 25 26
29 28 28 23 23 24 23 23 23 27 26 27 25 24 23 24 24 24 25 24 25 23 26 26 25 25 25 25 25 25 25 25 25 24 24 24 25 25 25 24 24 24 24 25 25 25 25 25 26
32 31 27 26 24 24 24 23 23 26 24 25 25 25 27 25 25 23 23 22 22 21 23 25 25 25 25 25 25 25 25 25 24 24 24 24 24 24 24 24 24 24 25 25 25 25 25 25 25
29 29 29 26 27 26 24 24 24 25 27 26 26 26 26 25 24 23 22 21 24 21 22 26 25 25 25 25 25 25 24 25 24 24 24 24 24 24 24 24 25 24 25 25 25 25 25 25 24
31 30 28 26 28 27 27 24 26 26 26 27 27 25 25 26 25 22 21 20 22 21 23 27 25 24 25 25 25 24 23 24 24 24 24 24 24 24 24 24 24 24 24 24 24 24 24 24 24

GFSSGP_925_temp_108.txt.gz
Temp
25 25 24 22 24 24 27 29 29 29 30 31 31 29 28 27 26 23 23 23 23 22 21 21 21 20 21 21 21 21 21 21 21 21 21 21 20 20 21 21 21 20 21 21 21 21 21 21 21
26 24 23 22 23 26 26 28 27 28 28 29 29 27 26 24 24 20 21 22 22 22 21 21 21 20 21 21 21 21 21 21 21 21 20 21 20 21 21 21 21 21 21 21 21 21 21 21 21
26 25 23 22 22 25 26 28 28 29 29 29 27 28 27 22 22 22 22 22 22 22 22 21 21 21 21 21 21 21 21 21 21 21 21 21 21 21 21 21 21 21 21 21 21 21 21 21 21
25 24 23 24 25 27 28 27 28 29 29 29 28 26 26 26 25 24 22 22 22 22 21 21 20 20 20 20 20 21 21 21 21 21 21 21 21 21 21 21 21 21 21 21 21 22 22 22 22
26 24 23 24 25 29 29 29 29 28 27 27 27 26 24 24 24 23 21 22 22 21 21 21 21 21 20 21 21 21 21 21 21 21 21 21 21 21 21 21 21 21 21 22 22 22 23 23 23
25 24 24 26 27 30 29 29 29 27 27 27 26 26 23 24 23 22 22 23 22 21 21 21 21 20 20 21 21 21 21 21 21 21 21 21 21 21 21 21 21 21 21 23 23 23 23 23 23
25 24 24 26 28 29 29 30 28 27 27 27 28 24 23 24 23 24 23 23 22 21 21 21 21 21 21 21 21 21 21 21 21 21 21 21 21 21 21 21 21 21 21 22 23 23 23 23 22
23 24 25 26 29 28 30 30 30 28 27 29 28 25 23 23 25 23 23 22 22 21 21 21 21 21 21 21 21 21 21 21 21 21 22 22 21 21 21 21 21 21 22 22 23 24 24 23 23
23 23 23 26 29 29 30 30 31 30 28 29 29 27 26 25 24 23 22 22 22 21 21 21 21 21 21 21 21 21 21 21 21 22 22 23 22 22 22 21 21 22 23 24 24 24 24 24 24
25 22 23 25 25 26 28 27 30 28 28 28 29 26 25 25 24 23 23 22 21 21 21 21 22 22 21 21 22 22 22 22 22 23 23 23 23 23 22 22 22 22 23 23 23 24 24 24 24
24 23 24 24 25 25 26 27 31 28 28 29 28 26 26 25 24 24 23 23 22 22 22 22 22 23 23 23 23 22 22 23 23 23 23 23 23 23 23 23 23 23 23 24 24 24 24 25 25
24 24 24 26 26 25 26 29 30 27 28 29 28 28 27 26 25 24 24 24 23 23 23 23 23 23 23 23 23 23 23 23 23 23 23 23 23 23 23 24 24 24 24 24 24 24 24 25 25
25 24 25 23 23 24 25 26 29 29 29 29 29 29 27 26 26 25 25 24 24 24 23 24 24 23 23 23 23 23 23 23 24 23 23 23 24 24 24 25 25 25 24 24 24 24 24 25 26
29 27 24 22 23 23 24 27 29 29 29 29 29 28 28 27 26 25 25 24 24 24 24 24 25 24 24 24 24 24 24 24 24 24 24 24 24 24 25 25 25 25 24 24 24 25 25 25 26
29 26 22 22 23 22 25 26 27 29 30 29 29 29 30 28 26 25 25 25 25 25 25 25 25 25 25 24 25 24 24 24 25 25 24 24 25 25 25 24 24 23 24 25 26 25 25 26 26
28 25 25 24 23 22 22 25 28 30 29 30 29 29 29 28 26 25 25 25 25 25 25 26 26 25 25 25 25 25 24 25 25 25 24 24 25 25 24 24 24 24 26 24 25 25 26 27 27
26 24 26 23 22 22 23 24 28 29 29 29 29 28 29 27 27 25 24 25 25 26 25 26 26 26 25 25 25 25 25 25 25 25 25 25 25 25 24 25 25 24 25 25 26 26 27 27 27
25 26 24 22 21 22 21 23 26 27 29 29 28 29 29 27 26 25 24 25 26 26 26 26 25 25 25 25 25 25 25 25 25 25 25 24 25 25 25 25 25 25 26 26 26 27 27 27 27
26 23 23 22 21 22 21 21 22 23 27 26 26 28 28 27 27 25 25 25 25 26 25 25 25 25 25 25 25 25 25 25 25 25 25 25 25 25 25 25 26 26 26 25 26 26 27 28 27
24 22 22 22 21 22 21 21 22 23 22 23 24 28 28 27 26 25 25 24 24 25 26 26 25 25 25 25 25 25 25 25 25 25 25 25 25 25 25 25 26 26 26 25 25 26 26 26 26
24 25 22 23 22 21 21 21 22 23 22 23 24 24 25 27 25 25 25 25 25 25 25 25 26 25 25 25 25 25 24 25 25 24 25 25 25 25 25 25 25 25 25 25 25 25 25 26 27
23 25 25 22 22 22 21 23 22 22 22 23 24 24 24 25 26 25 26 25 25 25 26 26 25 25 25 25 25 25 24 25 24 25 25 25 25 24 25 25 25 25 25 25 26 26 25 26 26
23 25 24 23 21 21 22 22 22 21 23 23 24 24 24 24 26 26 25 25 25 26 25 25 25 25 25 25 25 25 24 24 24 24 24 24 25 25 25 25 25 25 25 25 25 26 25 25 26
25 24 23 22 21 22 23 23 22 22 23 25 25 24 24 24 24 25 26 26 25 24 24 25 25 25 25 24 24 24 24 24 24 24 24 24 25 25 24 25 25 25 25 25 25 25 25 25 26
23 21 21 22 22 23 22 22 23 24 24 25 25 23 24 24 24 24 25 25 25 24 24 25 25 25 25 24 24 24 24 24 24 24 24 24 24 25 25 25 24 25 25 25 25 25 25 25 25
23 24 23 24 22 24 23 23 24 25 26 27 26 25 23 24 23 24 24 25 25 24 24 24 25 25 24 24 24 24 24 24 25 24 24 24 25 25 24 25 24 24 24 24 25 25 25 25 25
23 25 25 22 22 23 23 24 24 26 26 25 25 25 24 24 23 23 24 24 25 24 24 24 25 25 24 24 24 24 24 24 24 24 23 24 24 24 24 24 24 24 24 24 24 24 25 25 25
26 27 25 22 22 23 22 22 23 25 25 24 24 24 24 23 22 22 22 22 24 24 23 23 25 25 24 24 24 24 24 24 24 24 24 24 24 24 24 24 24 24 24 24 24 24 24 25 25
27 26 24 23 23 23 22 23 22 25 25 24 24 24 24 24 23 21 20 21 23 25 25 24 22 24 24 24 24 24 24 24 24 24 24 24 24 24 24 24 24 24 24 24 24 24 24 24 25
27 27 24 23 27 24 24 24 27 25 25 24 24 24 24 25 23 21 20 21 22 24 25 25 22 23 24 24 24 24 24 24 24 24 24 24 24 23 24 24 23 24 24 24 24 24 24 24 24

GFSSGP_925_temp_111.txt.gz
Temp
23 23 22 22 23 23 27 27 28 28 28 29 28 28 25 24 25 22 22 23 23 22 21 20 21 21 21 21 21 21 21 21 21 21 21 21 21 21 21 21 21 21 21 21 21 21 21 21 20
24 23 23 22 23 24 25 27 26 27 27 28 28 27 24 23 22 20 21 23 23 22 21 21 21 21 21 21 21 21 21 20 21 21 21 21 21 21 21 21 21 20 21 21 21 21 21 21 21
24 24 23 23 22 24 24 27 26 27 28 28 26 27 25 22 21 21 23 22 23 21 21 21 21 21 21 21 21 21 21 21 21 21 21 21 21 21 21 21 21 21 21 21 21 21 21 21 21
25 23 23 24 25 27 26 26 27 27 28 28 26 25 25 24 23 23 22 23 22 21 21 20 21 21 20 21 21 20 21 21 21 20 21 21 21 21 21 21 21 21 21 21 21 21 21 21 21
25 23 23 25 26 27 28 27 27 26 26 26 26 24 22 23 24 22 22 22 22 21 20 20 21 21 21 21 21 20 21 21 21 21 21 21 21 21 21 21 21 21 21 21 21 22 21 22 22
23 23 24 25 27 28 28 28 26 26 25 25 24 24 22 22 23 21 22 22 22 21 20 21 21 21 21 21 21 21 21 21 21 21 21 21 21 21 21 21 21 21 21 21 22 22 22 22 21
25 23 24 26 27 28 28 27 26 26 26 26 26 22 21 21 21 21 22 21 21 21 20 21 21 21 21 21 21 21 21 21 21 21 21 21 21 21 21 21 21 21 21 22 22 22 22 22 22
23 23 26 26 27 27 28 28 27 27 26 27 26 22 21 22 21 21 21 21 21 21 21 21 20 21 21 21 21 21 21 21 21 21 21 21 21 21 21 21 21 21 22 22 23 23 23 22 22
23 23 24 25 28 27 29 27 28 29 27 27 28 25 24 22 21 21 20 20 21 21 20 20 21 21 21 21 21 21 21 21 21 21 22 22 21 22 22 22 21 21 21 23 23 23 23 23 22
24 23 24 24 25 25 27 28 27 27 27 26 26 25 23 22 21 21 20 19 20 20 20 21 21 21 21 21 21 22 21 21 21 22 22 22 22 22 23 23 23 23 23 23 23 23 23 23 24
24 24 23 26 25 25 26 28 29 26 26 26 25 24 23 23 22 22 21 21 21 21 21 21 21 21 21 22 22 22 22 22 22 22 22 22 23 23 23 23 23 23 24 24 23 24 24 23 23
25 24 24 25 26 26 26 26 29 27 28 27 26 25 24 23 23 22 22 22 21 21 21 21 21 21 22 22 23 22 22 22 22 22 22 22 23 23 23 23 23 23 23 24 24 24 24 24 24
25 24 23 24 24 25 25 25 27 27 28 27 26 25 24 23 23 23 23 23 22 21 21 22 22 22 22 22 22 22 23 23 22 23 23 23 23 23 23 23 23 23 23 23 24 24 25 25 25
27 25 24 25 24 25 24 26 26 28 29 27 26 25 25 24 24 24 23 22 23 22 22 23 23 23 23 23 23 23 23 23 23 23 23 23 23 23 23 23 23 24 24 24 25 25 25 25 25
27 25 23 22 23 24 24 26 26 28 27 27 27 26 25 25 24 24 23 23 23 23 23 23 24 24 24 24 24 24 24 23 24 24 24 24 24 23 24 24 25 25 25 25 26 26 26 25 25
27 26 24 23 23 22 23 24 26 27 28 27 28 26 26 25 24 24 24 24 24 24 24 23 24 24 24 24 24 24 24 24 24 24 24 24 24 24 24 25 25 26 25 26 26 26 27 26 26
24 25 25 23 21 22 22 23 25 26 27 27 28 27 26 24 25 24 24 24 24 24 24 24 25 25 24 24 25 24 24 24 24 24 24 24 24 24 24 25 25 25 25 25 26 25 26 27 27
25 24 23 22 21 22 22 22 23 26 26 28 28 26 26 24 24 24 24 24 24 24 25 25 25 24 24 25 25 24 24 24 24 24 24 24 24 24 24 25 25 25 25 25 25 26 26 26 27
24 24 22 22 21 21 21 21 21 22 25 27 26 26 25 25 25 24 24 24 24 24 25 25 24 25 24 24 25 24 24 24 24 24 24 24 24 24 24 25 25 24 25 25 26 26 26 27 26
25 23 21 22 21 21 21 21 20 21 22 23 25 26 26 26 24 24 24 23 24 24 25 25 25 25 25 25 25 24 24 24 24 24 24 24 24 24 25 25 25 25 25 26 26 26 26 26 26
22 23 22 23 21 21 21 21 21 21 22 23 24 26 26 25 24 23 23 23 23 24 25 25 25 25 25 25 25 24 24 24 24 24 24 24 24 25 25 25 25 25 25 25 25 25 26 25 25
23 25 24 22 22 22 21 22 21 21 22 23 23 23 25 25 24 24 24 23 23 24 24 25 24 25 25 25 25 25 24 24 24 24 24 24 24 24 25 25 25 25 25 25 25 25 26 25 25
24 24 23 22 20 21 22 21 22 22 22 23 23 23 23 25 24 24 24 24 24 24 24 25 24 24 24 25 25 25 24 24 25 24 24 24 24 24 24 24 25 24 25 25 25 25 25 25 26
24 22 22 21 20 22 23 22 23 22 23 24 23 24 23 25 25 25 25 24 23 23 24 25 24 25 24 24 25 25 24 24 24 24 24 24 24 24 24 24 24 24 25 25 25 25 25 25 25
22 20 20 22 21 23 22 22 22 23 23 25 24 23 24 24 25 24 23 24 23 23 23 24 24 24 24 24 24 25 24 24 24 24 24 24 24 24 24 24 25 24 24 25 25 24 25 25 25
21 21 21 23 22 22 22 23 24 24 24 23 23 23 23 23 24 24 24 23 23 23 23 23 24 24 24 24 24 24 24 24 24 24 24 24 24 24 24 24 24 24 24 24 24 24 24 25 24
23 22 23 21 21 21 23 24 24 24 24 24 23 26 23 23 22 24 24 23 23 23 23 24 24 24 24 24 24 24 24 24 24 24 24 23 24 24 24 24 24 24 24 24 24 24 24 24 24
24 24 24 20 23 22 22 22 23 24 24 25 24 24 24 23 23 22 23 23 23 24 24 24 24 25 24 24 23 24 24 24 24 24 24 24 23 24 24 24 23 24 24 24 24 24 24 24 24
25 25 22 21 21 21 21 23 23 26 25 24 24 25 24 24 23 22 21 22 22 23 23 24 24 24 24 24 24 24 24 24 23 24 24 24 24 23 23 23 23 23 23 24 24 24 24 24 24
26 24 22 22 25 21 22 24 24 24 23 23 23 23 23 24 23 22 21 20 21 22 22 23 23 23 23 24 24 23 23 23 23 23 24 24 24 23 23 23 23 23 23 23 24 24 24 24 24

GFSSGP_925_temp_114.txt.gz
Temp
22 22 21 21 23 22 25 26 27 26 25 27 26 26 24 23 24 22 21 23 23 22 21 21 20 21 21 21 21 21 21 21 21 20 20 20 20 20 21 20 20 21 21 20 20 21 21 20 21
23 22 21 21 22 23 24 26 26 26 26 26 26 26 23 22 21 19 20 22 23 22 21 22 21 22 21 21 21 21 20 21 21 20 21 21 21 21 20 20 21 21 20 20 21 21 21 21 21
24 23 22 21 21 23 24 25 25 26 27 27 25 25 24 21 21 20 22 22 23 22 21 21 21 21 21 21 21 21 20 20 20 21 21 21 21 21 21 21 20 21 21 21 21 21 22 22 21
24 22 22 24 24 26 26 25 25 26 27 26 25 24 23 23 22 22 22 22 22 21 21 21 21 21 21 21 21 20 21 21 20 20 21 21 21 21 20 21 21 21 20 21 20 21 22 22 21
24 23 23 25 26 26 26 26 26 25 25 25 25 23 22 22 22 22 22 22 22 21 21 21 21 21 21 20 20 21 21 21 21 21 21 21 21 21 21 21 20 21 20 21 21 21 22 22 21
23 23 24 25 26 26 26 26 26 24 24 24 24 22 21 20 21 21 22 22 21 21 20 21 21 21 21 20 21 21 20 21 21 20 20 20 21 21 21 21 21 21 21 21 21 22 22 22 21
24 24 25 25 25 26 26 26 25 24 25 24 24 21 20 20 20 21 21 21 21 21 21 21 21 21 21 21 21 20 20 20 21 21 21 21 21 22 21 20 21 21 21 21 22 22 22 22 21
22 23 26 26 26 26 26 27 26 26 24 25 24 21 20 20 20 21 21 21 20 21 21 21 21 21 21 21 21 21 21 21 21 21 21 22 21 21 21 21 21 21 21 22 22 22 22 22 21
23 23 24 25 27 26 27 26 27 26 25 26 26 23 22 21 20 20 20 20 20 20 20 20 20 21 21 21 21 21 21 21 21 21 21 21 21 21 21 20 21 21 21 22 23 22 22 22 22
24 24 25 25 25 24 26 27 26 26 25 24 23 22 21 20 20 19 19 19 19 20 20 20 20 21 21 21 22 21 21 21 21 22 22 22 22 21 21 21 22 22 22 23 23 23 23 23 23
23 25 23 25 25 24 24 27 27 25 25 25 23 21 21 20 20 20 19 19 20 20 20 20 20 21 21 21 21 21 21 22 22 22 22 22 22 22 22 23 23 23 23 23 23 23 23 23 23
25 25 25 21 21 26 25 26 26 26 27 26 24 22 22 21 21 21 20 20 20 21 20 20 21 21 21 21 21 22 21 22 22 22 22 22 22 23 23 23 23 23 24 24 24 24 24 24 24
24 25 25 22 23 25 25 26 26 26 27 26 24 23 22 22 21 22 22 21 21 21 20 21 21 21 22 22 22 22 22 23 22 22 23 23 23 23 23 23 24 24 24 24 24 24 25 25 25
25 25 24 24 24 24 24 26 26 26 27 25 24 23 22 22 22 22 22 22 21 21 21 21 22 22 22 22 22 22 22 22 23 23 23 23 23 23 23 23 24 24 24 25 25 25 25 25 26
24 24 23 23 23 24 23 25 25 25 26 25 24 23 23 23 22 22 23 23 22 22 22 22 22 22 23 23 23 23 23 23 23 23 23 23 23 23 23 23 24 24 24 25 25 26 26 26 26
25 25 24 22 22 23 23 24 25 24 26 25 24 24 23 23 23 23 23 23 23 23 22 22 22 23 23 23 23 23 23 23 23 23 23 24 23 23 23 24 24 25 25 26 26 26 26 26 26
22 23 24 23 22 22 22 23 23 24 26 25 25 24 24 23 23 23 24 23 23 23 23 23 23 23 23 23 23 24 23 23 23 23 23 24 24 24 24 24 25 25 25 26 26 26 26 27 26
24 22 23 23 22 22 21 21 22 23 23 26 26 24 24 23 23 23 23 24 24 23 23 23 23 24 23 24 23 24 23 23 23 23 23 24 24 24 24 25 25 25 25 26 26 26 26 26 27
24 23 22 22 22 22 21 21 21 21 22 24 25 24 24 24 24 24 23 23 23 23 23 23 23 24 23 23 23 24 24 24 24 23 23 24 23 24 24 25 25 25 25 25 26 26 25 26 27
23 22 21 22 21 22 21 21 21 21 21 23 24 24 24 23 22 23 23 23 23 23 23 23 24 24 24 24 24 24 24 24 24 24 24 24 24 24 24 24 25 25 25 25 25 26 25 25 26
22 22 21 23 21 21 21 21 21 21 21 22 22 23 24 23 22 23 23 23 22 23 23 23 24 24 25 25 24 24 24 24 23 23 24 24 24 24 24 24 24 24 25 25 26 26 26 25 25
23 23 23 21 21 21 21 22 21 22 21 21 22 23 24 24 23 23 23 22 22 23 23 23 24 24 24 24 25 25 24 24 24 24 24 24 24 24 24 24 24 24 25 25 25 25 26 26 25
24 23 21 22 20 21 21 21 22 21 21 21 22 22 25 24 24 23 23 23 23 23 23 23 24 24 24 24 25 25 24 24 25 24 24 24 24 24 24 24 24 24 25 24 24 25 25 26 25
23 21 20 20 19 20 22 22 21 21 21 22 23 23 23 25 24 24 24 23 23 23 23 24 24 24 24 24 24 25 24 24 24 24 24 24 24 24 24 24 24 24 24 24 24 24 25 25 25
21 19 19 20 20 21 21 21 22 23 21 22 22 23 23 24 23 23 24 23 22 22 23 23 24 24 23 24 24 24 24 24 24 24 24 24 24 24 24 24 24 24 24 24 24 24 24 24 25
20 21 19 22 20 21 22 21 23 24 24 24 25 24 23 23 24 24 24 23 22 22 23 23 23 23 23 23 24 24 24 24 24 24 24 24 24 24 24 24 24 24 24 24 24 24 24 24 24
22 21 21 19 20 21 21 23 24 24 23 22 23 23 23 23 23 23 23 23 22 22 23 23 24 23 24 23 23 23 23 23 24 24 23 23 23 23 23 24 24 24 24 24 23 23 24 24 24
23 22 22 19 21 23 22 22 22 23 22 22 23 23 23 22 22 23 23 22 22 22 24 23 24 24 24 24 23 23 23 23 24 23 23 23 23 23 22 23 23 23 23 23 23 23 23 23 24
23 22 21 19 19 21 22 23 23 24 24 23 24 25 25 24 23 22 23 22 22 22 22 23 23 24 24 24 23 23 23 23 23 23 24 24 23 23 23 22 23 23 23 23 23 23 23 23 23
23 23 21 21 23 19 20 22 22 24 24 25 25 25 24 25 24 22 22 21 21 22 22 22 23 23 24 24 23 23 23 23 23 23 23 23 23 23 23 23 23 22 22 23 23 23 23 23 23

GFSSGP_925_temp_117.txt.gz
Temp
22 21 21 23 27 29 28 28 29 28 27 28 28 27 27 25 26 26 22 22 22 22 22 22 22 22 21 21 21 21 20 20 20 20 20 20 20 21 21 21 21 21 20 21 21 21 21 21 21
22 21 22 23 27 29 28 28 28 28 28 28 28 27 26 24 23 22 22 22 23 22 22 22 22 21 22 21 21 21 21 21 21 21 21 20 20 20 20 21 21 20 21 21 21 21 21 21 21
23 22 25 24 25 28 28 28 28 28 28 28 27 27 26 24 23 24 22 22 22 21 22 21 21 21 21 21 21 20 20 20 21 21 21 21 21 21 21 21 21 21 21 21 21 21 22 21 21
24 24 25 26 27 27 28 28 28 28 28 27 27 26 25 24 24 23 22 22 22 21 22 21 21 20 21 21 21 21 21 21 21 21 21 21 20 20 20 21 21 21 21 21 21 21 21 21 21
25 26 27 26 27 28 28 28 28 28 27 27 27 25 24 22 21 21 21 22 22 21 21 21 20 21 21 21 21 21 21 21 21 21 21 21 20 20 20 21 21 21 21 22 21 21 21 21 20
26 26 28 27 28 28 28 28 28 27 26 26 26 26 24 21 22 21 21 21 22 22 21 21 21 21 20 21 21 21 21 21 21 21 21 21 21 21 20 20 21 21 21 21 22 22 21 21 21
27 25 27 28 28 28 28 28 28 28 27 26 26 26 23 23 21 21 21 21 21 21 21 21 21 21 20 21 21 21 21 21 21 21 21 21 20 21 21 21 21 21 21 21 22 22 21 21 21
26 25 27 28 28 28 27 28 28 28 26 27 28 26 25 23 21 21 21 21 21 21 21 21 21 21 21 21 21 21 21 21 21 21 21 20 21 20 20 21 21 21 22 22 22 22 22 22 21
26 27 27 27 28 27 28 27 28 28 27 27 27 27 26 22 21 22 21 21 21 21 21 21 21 21 21 21 21 21 21 21 21 21 21 21 21 21 21 21 21 21 21 23 23 22 22 22 22
26 27 26 25 25 25 28 28 27 27 27 26 25 25 23 22 22 23 22 22 21 21 21 21 21 21 21 21 21 21 21 21 21 21 21 21 20 21 21 21 22 22 23 23 23 23 23 23 22
24 26 24 23 23 23 25 28 28 28 27 27 26 25 24 23 23 23 23 22 22 21 21 21 20 20 20 21 21 21 21 21 21 22 22 21 21 21 22 22 22 23 23 23 23 23 23 23 23
27 26 26 23 23 23 25 28 28 27 29 29 27 26 24 25 24 24 23 22 22 21 21 20 20 20 21 21 21 21 21 21 21 22 22 22 21 22 23 23 23 23 24 24 24 24 24 24 24
27 26 25 25 24 24 25 27 27 28 27 27 26 25 25 25 25 24 23 23 22 22 21 21 20 20 20 21 21 21 21 22 22 22 22 23 22 23 23 23 23 23 24 24 24 24 24 24 24
27 26 25 24 24 25 25 27 27 28 28 25 26 26 26 26 25 24 23 23 22 22 21 21 20 20 20 21 22 22 22 22 22 22 22 23 23 23 23 23 23 24 25 25 25 25 25 24 25
27 25 25 24 25 24 25 27 26 28 27 25 26 26 26 26 25 25 24 24 23 22 22 21 21 20 21 22 22 22 22 23 23 23 23 23 23 23 23 23 24 24 25 25 25 26 26 25 26
27 27 26 23 24 22 25 24 26 27 27 25 27 26 26 26 25 25 25 24 23 23 21 21 22 21 21 22 22 22 22 23 22 23 23 23 23 23 23 24 24 24 25 25 25 25 25 25 26
26 27 25 24 23 23 25 24 24 25 27 27 27 26 26 26 25 25 25 24 24 23 22 21 21 22 21 22 22 22 23 23 22 23 23 23 24 23 24 24 24 24 24 24 24 26 26 26 26
27 26 25 25 23 24 23 23 22 23 27 28 27 27 27 27 27 25 25 25 24 23 22 22 22 22 22 21 22 23 22 23 23 23 23 24 23 23 24 24 24 25 24 24 25 26 26 25 25
27 27 26 24 23 23 23 22 22 22 25 26 25 25 27 27 27 26 25 25 24 23 22 22 22 22 22 21 22 22 23 22 23 23 23 24 24 24 24 24 25 25 25 25 25 25 24 25 25
27 27 26 23 22 23 23 23 22 20 23 25 24 23 27 27 27 26 25 25 24 23 23 22 22 22 23 22 22 23 23 22 23 23 23 24 24 24 24 24 24 25 25 25 26 26 25 25 24
27 28 25 26 23 23 23 24 22 21 21 24 23 26 28 28 27 27 26 25 25 24 23 22 22 23 23 23 23 23 23 23 23 23 23 24 24 24 24 24 24 25 25 24 25 25 26 26 24
27 27 26 23 24 25 23 26 23 22 22 24 25 26 27 28 28 28 26 25 25 24 23 23 22 22 23 23 23 24 24 24 23 24 23 23 24 24 24 24 24 24 25 25 24 24 25 25 26
28 26 26 24 24 24 23 24 26 23 22 24 25 27 28 28 28 28 27 26 26 24 23 23 22 22 22 23 23 24 24 24 24 23 23 23 24 24 24 24 24 24 24 24 24 25 25 24 25
25 24 24 23 24 24 26 25 27 24 24 25 26 27 28 28 28 28 27 26 25 24 23 23 22 23 23 23 24 24 24 24 23 24 23 23 23 23 24 24 24 24 24 24 24 24 24 24 25
25 27 26 25 24 26 24 24 27 27 26 27 26 26 27 28 28 28 27 26 25 24 24 23 22 22 22 22 23 24 24 24 24 24 24 23 23 23 23 24 24 24 24 24 24 24 24 24 24
26 28 28 26 27 26 24 24 28 28 28 26 25 26 26 27 28 27 27 26 25 24 24 23 23 22 22 22 22 23 24 23 23 23 23 23 23 23 23 24 24 24 24 24 24 23 23 23 23
25 26 28 27 24 25 26 27 28 27 27 25 23 25 25 25 27 27 27 25 25 24 24 23 23 23 22 22 22 22 23 23 23 24 23 22 23 22 23 23 23 23 23 23 24 23 23 23 23
27 27 25 25 26 27 28 26 28 26 26 25 24 25 26 25 25 27 27 26 25 24 24 23 23 23 23 23 22 22 22 23 23 23 23 23 23 23 22 23 23 23 23 23 23 23 23 23 23
26 27 26 26 26 28 27 29 27 27 27 24 25 26 26 25 24 24 24 24 24 24 23 23 23 23 22 22 22 22 22 22 23 23 22 23 23 22 22 23 23 22 22 22 23 23 23 23 23
27 28 29 29 26 27 27 29 25 25 27 26 25 25 25 23 24 24 23 22 23 23 23 23 22 22 22 22 22 23 23 22 22 22 22 23 23 22 21 22 22 21 21 22 22 22 22 23 23

GFSSGP_925_temp_120.txt.gz
Temp
23 25 25 27 31 34 32 31 32 31 30 31 31 31 30 29 29 27 26 25 24 22 22 22 22 21 21 21 21 21 21 21 21 21 20 20 21 21 21 21 21 21 21 21 21 21 21 21 21
26 25 26 29 32 33 31 32 31 31 31 31 31 30 30 28 28 27 26 25 24 23 23 22 22 22 21 21 21 21 21 21 21 21 21 20 21 21 21 21 21 21 21 21 21 21 21 21 21
26 25 28 29 32 33 32 32 32 31 31 31 30 30 30 27 28 27 26 26 26 24 25 22 22 22 21 21 21 21 21 21 21 21 21 21 21 21 21 21 21 22 22 21 21 21 21 21 21
28 29 28 29 32 31 33 32 32 30 31 30 31 28 28 28 28 27 26 26 26 25 26 22 22 22 21 21 20 21 21 21 21 21 21 21 21 21 21 21 21 21 21 21 21 21 21 21 21
29 31 30 29 31 32 33 32 31 31 30 30 31 29 27 26 27 26 25 26 26 26 25 23 21 21 21 21 21 21 21 21 21 21 20 20 21 21 21 21 21 21 21 21 21 21 21 20 20
31 32 31 27 31 31 32 32 31 31 30 30 31 29 28 26 26 26 26 26 26 26 26 23 21 21 21 21 21 21 21 21 21 21 21 20 21 21 21 21 21 21 21 21 21 21 21 20 21
30 31 31 33 31 31 30 32 31 31 30 30 31 30 28 27 26 26 26 26 26 26 25 25 24 22 21 21 21 21 21 22 21 20 21 20 21 21 21 21 21 21 21 21 21 21 21 21 21
31 31 31 32 32 30 31 31 31 31 30 31 31 30 28 27 26 26 26 26 26 25 25 25 25 24 24 23 22 21 21 21 21 21 21 21 21 21 21 22 21 21 21 22 22 22 22 22 22
30 30 31 31 32 30 31 30 31 31 31 31 31 32 30 26 26 26 26 26 25 25 26 26 25 24 22 23 22 22 21 21 21 21 21 23 24 23 23 22 21 21 21 22 22 23 23 23 23
29 30 29 29 27 27 30 31 31 31 31 30 30 30 27 26 26 27 27 27 26 26 26 26 25 24 23 24 22 22 24 24 24 23 23 24 24 23 23 22 22 22 23 23 23 23 23 24 26
25 26 28 26 25 26 28 30 31 30 31 31 30 29 28 28 28 28 28 27 27 26 26 25 24 24 24 24 24 24 24 24 23 22 23 23 24 24 24 23 23 23 23 25 25 25 26 25 26
29 28 27 27 26 25 26 31 30 31 31 32 32 30 29 29 29 28 28 27 26 26 25 25 24 24 24 24 25 25 25 25 24 23 23 23 24 24 24 24 24 24 25 24 25 26 25 25 26
31 29 27 28 28 27 29 30 30 30 31 32 31 30 30 30 29 28 28 27 26 26 25 25 24 23 23 24 25 25 25 25 25 24 23 24 25 24 24 24 25 25 25 25 26 26 26 26 27
31 30 28 28 28 28 29 30 30 31 30 31 30 30 30 30 29 28 28 27 26 26 25 24 24 23 23 24 23 24 25 25 25 25 24 23 25 24 24 24 25 25 25 26 26 26 27 28 27
30 28 28 27 27 26 27 28 28 31 31 30 30 31 31 30 29 28 28 27 27 26 25 24 24 23 23 23 23 24 25 25 25 25 23 23 24 23 23 25 25 25 24 25 25 26 27 28 28
31 31 29 27 27 27 26 27 26 30 30 29 30 31 31 30 30 29 28 28 27 26 25 24 25 24 24 24 23 25 25 25 25 25 24 23 23 23 23 25 25 25 25 26 27 28 28 28 28
31 32 30 27 27 26 26 26 26 27 30 29 28 31 31 30 30 29 28 28 27 26 25 24 25 24 24 23 24 24 24 24 25 25 25 23 23 23 24 25 25 24 26 26 28 28 28 28 29
32 31 30 30 27 27 28 27 24 26 29 31 31 31 31 31 30 29 28 28 27 26 25 24 24 24 24 23 23 25 25 25 25 25 25 23 24 23 24 25 25 25 27 27 27 27 27 28 29
31 31 31 29 27 28 29 28 25 24 25 30 31 29 32 32 31 29 29 28 27 26 25 24 24 23 24 24 25 25 25 25 25 25 24 23 24 23 24 25 25 26 27 26 26 27 27 28 27
32 31 31 28 26 27 28 27 28 26 25 28 31 27 31 32 32 30 29 29 28 26 26 25 24 23 23 24 24 26 26 26 26 25 24 24 24 24 24 24 25 25 27 26 26 26 29 29 28
31 31 31 30 27 27 27 28 28 26 26 26 29 29 29 32 32 31 29 29 28 27 26 25 24 24 23 24 24 24 24 24 24 25 25 24 24 24 24 24 25 25 25 27 26 26 27 29 28
31 32 31 29 28 29 28 31 29 28 25 26 26 29 27 31 32 32 30 29 29 28 26 25 25 24 23 24 24 24 25 26 26 25 24 24 24 24 24 24 24 24 25 25 26 26 26 27 29
31 31 31 30 29 29 28 29 33 29 26 27 27 29 28 31 32 32 31 30 29 28 27 26 25 24 24 24 25 24 25 26 25 26 24 24 23 24 25 24 24 24 25 25 24 25 25 27 28
31 30 30 29 29 29 32 30 33 30 29 28 27 28 30 32 32 32 31 30 29 28 27 26 25 24 24 23 24 24 25 25 25 24 25 25 25 25 24 24 24 24 24 24 25 25 25 25 26
30 31 30 29 30 30 30 30 32 33 32 31 29 29 30 32 32 32 32 31 30 29 27 26 25 24 24 23 24 24 24 25 25 24 24 24 25 26 25 24 23 24 24 24 24 24 25 25 26
30 32 32 29 31 32 29 29 33 32 33 33 31 29 31 32 33 33 32 31 29 29 27 26 25 24 24 24 24 24 24 23 24 24 24 24 24 24 24 24 24 24 24 24 24 24 25 25 25
31 29 33 32 33 31 32 32 33 33 32 33 32 30 30 31 32 33 32 30 29 29 27 27 26 25 25 25 24 24 24 24 25 25 23 24 23 23 23 23 24 24 24 24 24 25 25 25 25
30 32 30 31 28 29 32 31 31 32 32 31 31 29 28 29 31 32 32 31 29 28 28 27 26 25 25 25 25 24 24 24 24 24 24 24 25 23 23 23 23 23 23 24 23 25 25 24 25
30 30 30 32 32 30 29 32 32 31 30 31 30 30 28 27 28 31 31 30 29 28 28 27 26 26 25 25 25 25 25 25 24 24 24 23 23 23 23 23 23 23 23 23 23 24 24 24 24
32 32 32 31 30 31 32 27 30 30 30 32 31 26 28 27 27 26 30 29 29 28 28 27 26 26 26 25 25 24 24 24 24 24 24 23 23 23 23 23 23 23 23 24 24 23 25 25 24

GFSSGP_925_temp_123.txt.gz
Temp
24 25 29 30 30 33 33 33 35 33 33 34 34 33 32 31 31 28 28 26 24 23 23 22 22 22 22 21 21 20 20 20 20 21 21 21 21 21 21 21 21 21 21 21 21 21 21 21 21
28 29 29 32 30 33 32 35 34 34 33 34 33 32 32 30 31 30 28 25 25 23 24 23 21 21 22 21 20 21 21 20 21 21 20 21 21 21 21 21 21 21 21 21 21 21 21 21 21
27 29 32 34 32 33 33 34 33 33 33 32 32 33 32 30 31 30 27 25 27 25 26 22 21 21 21 21 21 21 21 21 21 21 21 21 21 21 21 21 21 21 21 21 21 21 21 21 21
31 32 30 29 33 35 35 35 34 33 33 33 33 31 32 31 31 29 28 28 28 26 25 22 21 21 21 21 21 21 21 21 21 21 21 21 21 21 21 21 21 21 21 21 21 21 21 21 21
32 34 32 33 33 35 35 34 34 33 33 33 34 31 30 31 30 29 29 29 28 28 26 23 21 21 21 21 21 21 21 21 21 21 21 21 21 21 21 21 21 21 21 21 21 21 21 21 20
32 34 28 30 32 34 34 35 34 32 33 33 32 31 30 30 29 29 29 29 29 29 27 24 22 21 21 21 22 22 21 21 21 21 21 21 21 21 21 21 21 21 21 21 21 21 21 21 21
32 33 25 33 33 33 33 35 33 33 33 33 34 30 30 31 30 29 30 30 29 29 27 25 24 22 21 21 21 21 21 21 21 21 21 21 21 21 21 21 21 21 21 21 21 21 22 22 22
32 33 33 31 34 32 34 34 34 34 33 35 35 31 30 31 30 29 29 29 28 28 27 26 26 25 24 22 21 21 21 21 21 21 21 21 21 22 21 22 21 21 21 21 22 22 22 23 23
33 31 27 31 31 32 33 33 34 34 33 34 34 34 32 30 30 30 30 29 29 27 27 27 25 24 24 24 22 21 21 21 22 23 22 23 24 24 23 22 21 21 22 23 23 24 24 23 24
33 27 30 31 30 29 31 33 33 33 33 33 33 32 30 30 30 30 30 29 29 29 26 24 26 26 25 25 23 24 23 24 24 24 24 26 25 24 24 22 23 23 23 24 24 25 25 24 24
30 28 32 30 29 27 28 32 34 33 31 34 32 31 31 30 31 31 31 30 30 29 27 27 27 26 25 25 24 25 26 25 24 24 25 25 25 25 25 23 24 24 24 24 25 25 25 27 28
31 31 31 31 29 27 26 27 33 32 29 34 33 32 32 31 32 32 31 31 30 29 28 28 27 26 26 26 27 27 26 26 26 25 25 25 26 25 26 26 25 26 27 26 27 28 27 27 28
31 31 29 31 31 28 28 29 28 32 34 34 33 33 32 32 32 32 31 30 29 29 28 28 26 24 25 26 27 27 27 27 26 25 26 27 27 25 26 25 27 27 28 28 28 28 28 28 28
32 33 32 31 31 30 30 30 30 33 33 34 33 33 33 32 32 31 31 30 29 29 28 27 26 24 26 26 26 27 27 27 27 26 25 25 26 26 26 26 27 28 28 28 28 28 28 29 28
34 32 31 29 30 29 31 29 31 33 33 33 33 33 34 33 32 31 30 30 29 29 28 27 26 25 25 24 25 27 28 28 28 25 25 25 26 25 26 27 27 27 26 26 27 27 28 30 29
34 34 31 31 30 29 27 28 29 31 33 33 32 34 33 32 32 31 30 30 29 29 27 26 28 26 25 25 25 27 27 27 26 25 26 25 24 25 25 27 28 27 27 28 29 29 30 30 30
34 33 32 31 30 30 29 23 24 25 31 31 30 34 34 32 32 31 31 30 29 28 27 26 27 26 25 25 26 27 27 26 25 26 27 25 25 25 26 27 27 26 29 29 29 30 30 30 30
35 34 34 32 31 30 30 28 28 25 27 25 31 33 34 33 32 32 31 30 29 28 27 27 27 26 25 25 25 26 26 26 27 26 26 25 25 25 25 27 27 26 29 29 27 28 29 30 31
35 34 33 33 31 31 31 31 30 28 27 29 29 31 34 34 34 32 31 30 29 28 27 26 27 25 26 26 27 26 27 27 27 26 25 25 25 25 25 27 26 26 27 26 28 28 28 30 29
34 34 34 32 31 30 32 31 32 29 28 31 24 31 33 34 34 32 32 31 30 28 27 26 26 25 25 26 27 27 27 26 27 27 25 26 26 25 26 26 27 26 28 28 28 27 27 31 30
34 34 34 33 31 31 31 31 32 32 30 30 29 29 34 34 33 33 32 32 30 29 27 26 26 25 24 25 26 26 25 26 27 27 26 26 26 25 25 25 25 26 27 27 27 27 28 24 30
34 35 34 33 31 31 30 31 32 33 30 30 31 31 33 33 34 34 33 32 31 29 28 27 26 25 25 25 26 26 25 27 28 27 26 26 26 26 26 26 25 25 27 27 27 28 27 28 29
34 35 34 33 32 33 33 31 34 35 31 30 31 32 31 33 34 34 34 32 32 30 29 28 26 25 25 25 24 25 25 27 27 27 26 26 25 26 26 26 25 25 26 26 26 26 27 28 28
35 33 33 33 33 32 34 33 34 33 33 32 31 31 31 33 33 35 34 33 32 31 29 28 26 25 24 24 24 25 26 26 26 27 26 27 27 26 26 26 25 25 26 25 26 26 26 26 26
33 33 32 32 32 33 34 34 35 33 34 34 33 32 30 32 33 33 34 33 32 31 30 29 27 26 25 24 25 25 26 26 26 25 26 27 27 26 26 25 26 26 25 25 25 25 25 26 27
33 34 34 31 34 30 33 33 33 29 36 36 35 33 32 31 33 33 34 33 31 31 30 29 27 26 25 25 25 25 25 26 26 26 27 27 27 27 26 25 25 25 25 25 25 25 26 27 27
34 33 35 34 35 35 33 33 36 33 34 35 34 33 31 31 32 32 33 34 31 31 30 29 28 26 26 26 25 25 25 25 26 26 25 25 26 26 25 25 25 25 25 25 25 25 26 26 26
33 30 31 34 31 31 34 33 34 31 33 33 34 33 32 31 32 31 33 33 33 31 30 29 28 27 26 27 26 26 26 25 25 25 25 25 26 24 25 24 25 25 25 25 25 26 26 26 26
33 33 30 32 31 30 32 31 22 32 32 33 32 33 33 32 32 33 26 33 33 31 31 29 28 27 26 26 27 26 26 26 26 26 25 25 24 24 24 24 24 24 24 24 24 24 25 26 25
34 31 33 33 31 28 29 28 26 33 33 32 30 31 31 31 30 29 32 31 32 31 30 29 29 28 27 27 27 26 26 26 27 26 26 24 24 23 23 24 24 24 24 24 23 23 25 25 25